     2              OBSERVATION DATA    GPS                 RINEX VERSION / TYPE
ASHTORIN MIT 06 - JUN - 97 12:53                            PGM / RUN BY / DATE
                                                            COMMENT
China Lake 97 #1 Ashtech Z12                                COMMENT
Original Marker Name: GS20                                  COMMENT
Campaign Name: China Lake May 1997                          COMMENT
4-Character Station Name: GS20                              COMMENT
6-Character Antenna Code: ASHGD3                            COMMENT
Vertical Measurement Point: TGP                             COMMENT
Vertical Offset to Rinex Ref. Point: 0.0640                 COMMENT
Radial Measurement Point: RRP                               COMMENT
Radial Offset to Rinex Ref. Point: 0.0000                   COMMENT
Antenna Height from Field Measurement: 0.2100 m             COMMENT
Additional Antenna Identification Info.:                    COMMENT
The Whopper (700718AB)                                      COMMENT
Original XYZ: -2435897.9000 -4555584.6800 3731282.9400      COMMENT
New XYZ position is based on association with SCEC monument COMMENT
E1F4F6M9+0011. Position of that monument is believed to be  COMMENT
valid to within 1 m horizontally; vertical accuracy         COMMENT
should be no worse than 3-times this value.                 COMMENT
                                                            COMMENT
Revised Rinex header created by UCSD GPS archive for        COMMENT
GSAC on 01-Aug-2000 (2000:214) 05:49:54 GMT                 COMMENT
For assistance contact dagnew@ucsd.edu                      COMMENT
or anderson@python.ucsd.edu                                 COMMENT
                                                            COMMENT
GO20 BLM CA 065-94-66                                       MARKER NAME
gs20                                                        MARKER NUMBER
WAP US DEFENSE MAPPING AGENCY                               OBSERVER / AGENCY
426 ASHTECH Z-XII3 1G001C7                                  REC # / TYPE / VERS
452 ASHTECH GEODETIC III                                    ANT # / TYPE
 -2384589.5226 -4600193.7268  3707714.9288                  APPROX POSITION XYZ
        0.1460        0.0000        0.0000                  ANTENNA: DELTA H/E/N
     1     1     0                                          WAVELENGTH FACT L1/2
     7    L1    L2    C1    P1    P2    D1    D2            # / TYPES OF OBSERV
    30                                                      INTERVAL
  1997     5    12    15    30    0.000000                  TIME OF FIRST OBS
  1997     5    12    21    29   60.000000                  TIME OF LAST OBS
                                                            END OF HEADER
 97  5 12 15 30  0.0000000  0  6  2 27 26 19  7 15                   0.000696935
    -53113.61319    -31888.66558  19371890.715           0.0005   19371897.5655
      1578.658        1230.123
    -23148.56919    -13531.38158  18416412.688           0.0005   18416418.3815
       848.949         661.519
    -88552.68619    -50798.74951  21554040.280           0.0005          0.0005
      3204.404        2496.938
     36695.50519     21218.08757  20724974.417           0.0005   20724985.7535
     -1343.953       -1047.236
    -99355.86719    -60460.06258  19823767.840           0.0005   19823775.6105
      3814.520        2972.353
    -32610.65619    -16684.51452  22125055.227           0.0005          0.0005
      2579.786        2010.223
 97  5 12 15 30 30.0000000  0  6  2 27 26 19  7 15                   0.000687373
   -100459.833 9    -68781.82448  19362879.663    19362881.4275   19362887.8554
      1576.737        1228.626
    -48471.210 9    -33263.32048  18411593.299    18411594.0735   18411599.6594
       838.314         653.232
   -184552.274 9   -125729.18955  21535770.115           0.0004          0.0005
      3194.402        2489.144
     77062.355 9     52672.70847  20732658.091    20732660.2145   20732667.4114
     -1348.062       -1050.438
   -213693.310 9   -149554.13948  19802009.560    19802010.8315   19802017.9634
      3806.835        2966.365
   -109870.851 9    -76887.73656  22110358.157           0.0004          0.0005
      2569.785        2002.430
 97  5 12 15 31  0.0000000  0  6  2 27 26 19  7 15                   0.000187011
   -147661.736 9   -105562.52748  21152653.311    21152653.9884   21152660.3994
      1572.086        1225.002
    -73398.200 9    -52686.95348  20205604.994    20205605.4394   20205610.9764
       825.162         642.983
   -280148.264 9   -200339.84055  23316336.215           0.0004          0.0005
      3181.406        2479.018
    117608.888 9     84267.35247  22539129.614    22539130.8194   22539137.9744
     -1354.269       -1055.274
   -327696.938 9   -238388.09548  21579071.044    21579071.4084   21579078.5684
      3796.443        2958.267
   -186738.970 9   -136784.90256  23894482.024    23894484.7545   23894492.3515
      2557.142        1992.578
 97  5 12 15 31 30.0000000  0  6  2 27 26 19  7 15                   0.000163835
   -194717.821 9   -142229.59858  21143700.395    21143699.5455   21143705.9365
      1564.697        1219.244
    -97910.985 9    -71787.81958  20200939.855    20200940.8395   20200946.3825
       808.655         630.121
   -375345.965 9    -45179.75955  23298216.373           0.0005          0.0005
      3164.767        2466.052
    158376.175 9    116034.00757  22546890.324    22546888.5775   22546895.7125
     -1363.807       -1062.707
   -441396.613 9   -326985.20358  21557432.764    21557435.0585   21557442.2255
      3783.285        2948.014
   -263217.416 9   -196378.49156  23879934.130    23879931.9355   23879939.1325
      2541.035        1980.027
 97  5 12 15 32  0.0000000  0  7  2 27 26 19  7 31 15                0.000140585
   -241593.655 9   -178756.21748  21134779.392    21134779.3654   21134785.7864
      1558.920        1214.743
   -121972.329 9    -90536.92648  20196361.005    20196362.1594   20196367.7134
       793.975         618.682
   -470081.042 9   -118987.66752  23280189.496           0.0005          0.0005
      3149.488        2454.146
    199387.742 9    147991.01947  22554693.535    22554692.8644   22554699.9774
     -1371.819       -1068.950
   -554745.920 9   -415309.29048  21535863.702    21535865.3584   21535872.5374
      3771.695        2938.983
    225770.19018    163937.12056  24962005.700    24962002.1285   24962008.4745
     -2443.244       -1903.826
   -339251.274 9   -255625.64646  23865465.707    23865463.1974   23865470.2424
      2526.342        1968.578
 97  5 12 15 32 30.0000000  0  7  2 27 26 19  7 31 15                0.000117362
   -288272.393 9   -215129.25248  21125896.469    21125896.6934   21125903.1344
      1551.392        1208.877
   -145573.842 9   -108927.72148  20191869.781    20191870.9614   20191876.5374
       778.033         606.259
   -564348.466 9   -192437.49954  23262251.554           0.0005          0.0005
      3133.730        2441.868
    240660.888 9    180151.85147  22562546.788    22562546.9364   22562554.0424
     -1381.154       -1076.224
   -667721.542 9   -503342.19848  21514365.426    21514366.7954   21514373.9794
      3758.431        2928.648
    299105.146 8    221081.17155  24975952.929    24975953.8325   24975962.8825
     -2447.299       -1906.986
   -414822.548 9   -314512.34946  23851083.262    23851082.1704   23851089.3864
      2510.288        1956.069
 97  5 12 15 33  0.0000000  0  7  2 27 26 19  7 31 15                0.000094145
   -334711.946 9   -251315.91648  21117059.183    21117059.5304   21117066.0024
      1544.634        1203.611
   -168691.214 9   -126941.26048  20187470.862    20187471.8994   20187477.4814
       763.047         594.582
   -658151.853 9   -265530.08354  23244401.947           0.0005          0.0005
      3119.778        2430.996
    282224.692 9    212539.18447  22570455.760    22570456.3204   22570463.3994
     -1389.870       -1083.015
   -780287.297 9   -591055.73748  21492945.056    21492946.2604   21492953.3964
      3745.881        2918.868
    372563.738 9    278321.74146  24989932.541    24989934.4354   24989941.5614
     -2450.136       -1909.197
   -489904.079 9   -373017.43246  23836794.633    23836794.4674   23836801.7904
      2495.132        1944.259
 97  5 12 15 33 30.0000000  0  7  2 27 26 19  7 31 15                0.000070947
   -380908.983 9   -287313.60148  21108268.051    21108268.5344   21108275.0214
      1536.348        1197.154
   -191314.490 9   -144569.78348  20183165.855    20183166.8454   20183172.4464
       746.391         581.603
   -751488.128 9    -64918.22757  23226640.767           0.0005   23226648.9275
      3103.869        2418.599
    324105.535 9    245173.56247  22578425.253    22578426.0064   22578433.1324
     -1400.983       -1091.675
   -892431.883 9   -678441.08348  21471604.714    21471605.8604   21471612.9864
      3731.400        2907.584
    446154.463 8    335665.01345  25003936.905    25003938.5154   25003945.8094
     -2454.958       -1912.954
   -564483.997 9   -431131.66046  23822601.901    23822602.3594   23822609.8524
      2478.009        1930.916
 97  5 12 15 34  0.0000000  0  7  2 27 26 19  7 31 15                0.000047780
   -426857.006 9   -323117.24648  21099524.318    21099524.9454   21099531.4104
      1527.506        1190.264
   -213444.272 9   -161813.77548  20178954.813    20178955.7224   20178961.3264
       729.484         568.429
   -844351.798 9   -137279.52847  23208969.504    23208971.6055   23208977.3724
      3087.663        2405.971
    366320.233 9    278068.07347  22586458.307    22586459.2964   22586466.4184
     -1412.668       -1100.780
  -1004130.992 9   -765479.31048  21450349.088    21450350.2454   21450357.3634
      3715.721        2895.367
    519890.632 8    393121.80745  25017969.129    25017970.1674   25017977.1544
     -2460.183       -1917.026
   -638550.590 9   -488845.90946  23808507.546    23808508.0074   23808515.4954
      2460.352        1917.157
 97  5 12 15 34 30.0000000  0  7  2 27 26 19  7 31 15                0.000024637
   -472573.188 9   -358740.24448  21090824.936    21090825.5024   21090831.9314
      1520.166        1184.545
   -235096.839 9   -178685.91848  20174834.574    20174835.4234   20174841.0314
       713.802         556.209
   -936760.083 9   -209285.97247  23191385.019    23191386.6754   23191392.5914
      3072.546        2394.192
    408862.403 9    311217.75947  22594553.636    22594554.8564   22594561.9964
     -1423.542       -1109.254
  -1115389.933 9   -852174.55448  21429177.286    21429178.3614   21429185.4344
      3701.566        2884.337
    593756.662 8    450679.78645  25032025.442    25032026.4364   25032033.5194
     -2464.422       -1920.329
   -712112.910 9   -546167.22646  23794509.227    23794509.5994   23794517.0614
      2443.635        1904.131
 97  5 12 15 35  0.0000000  0  6  2 27 26 19  7 15                   0.000001523
   -518068.817 9   -394191.37548  21082167.431    21082168.0034   21082174.4074
      1513.491        1179.344
   -256260.729 9   -195177.27248  20170807.409    20170808.1064   20170813.7074
       697.672         543.640
  -1028689.360 9   -280919.16647  23173891.513    23173893.1194   23173899.1104
      3056.522        2381.705
    451740.069 9    344628.87647  22602713.133    22602714.2284   22602721.4184
     -1434.538       -1117.822
  -1226226.196 9   -938540.43748  21408085.908    21408086.9124   21408093.9914
      3688.030        2873.790
   -785168.206 9   -603093.46146  23780607.131    23780607.6374   23780615.1854
      2427.123        1891.265
 97  5 12 15 35 30.0000000  0  6  2 27 26 19  7 15                  -0.000021542
   -563344.654 9   -429471.24348  21073551.603    21073552.3254   21073558.7114
      1505.828        1173.372
   -276919.137 9   -211274.74448  20166876.241    20166876.9944   20166882.5964
       680.526         530.280
  -1120107.675 9   -352154.22047  23156495.240    23156496.7874   23156502.7444
      3039.045        2368.087
    494975.201 9    378318.53447  22610940.473    22610941.6334   22610948.8574
     -1446.719       -1127.313
  -1336637.511 9  -1024575.18848  21387075.259    21387076.3754   21387083.4134
      3673.572        2862.524
   -857702.076 9   -659613.39046  23766804.188    23766804.7744   23766812.5514
      2409.402        1877.456
 97  5 12 15 35 59.9990000  0  6  2 27 26 19  7 15                  -0.000044551
   -608386.049 9   -464568.42848  21064980.573    21064981.2874   21064987.6724
      1496.790        1166.330
   -297053.593 9   -226963.94648  20163044.769    20163045.5884   20163051.1994
       661.551         515.494
  -1210993.367 9   -422974.23347  23139200.489    23139201.8714   23139207.7914
      3019.877        2353.151
    538564.962 9    412284.52347  22619235.340    22619236.6254   22619243.8164
     -1459.501       -1137.274
  -1446601.510 9  -1110261.38548  21366149.859    21366150.9244   21366157.9834
      3657.386        2849.911
   -929697.496 9   -715713.73646  23753104.229    23753104.6214   23753112.3374
      2390.158        1862.461
 97  5 12 15 36 29.9990000  0  6  2 27 26 19  7 15                  -0.000067512
   -653202.561 9   -499490.37848  21056452.432    21056453.0474   21056459.3934
      1489.393        1160.566
   -316659.797 9   -242241.51948  20159313.883    20159314.7024   20159320.3204
       643.952         501.781
  -1301342.338 9   -493376.01047  23122007.699    23122009.0254   23122015.0084
      3001.715        2338.999
    582493.823 9    446514.75447  22627595.051    22627596.0734   22627603.2784
     -1470.542       -1145.877
  -1556131.323 9  -1195609.24948  21345307.118    21345308.1274   21345315.1644
      3643.035        2838.729
  -1001159.913 9   -771398.77946  23739505.247    23739505.6584   23739513.5084
      2372.434        1848.650
 97  5 12 15 36 59.9990000  0  6  2 27 26 19  7 15                  -0.000090413
   -697780.888 9   -534226.73348  21047969.498    21047970.0894   21047976.4504
      1481.700        1154.571
   -335727.083 9   -257099.15548  20155685.681    20155686.3664   20155691.9744
       626.544         488.216
  -1391120.458 9   -563332.97847  23104923.516    23104924.8664   23104930.8474
      2982.957        2324.382
    626758.508 9    481006.65747  22636018.274    22636019.4044   22636026.6194
     -1481.203       -1154.184
  -1665213.948 9  -1280608.66048  21324549.333    21324550.4004   21324557.4514
      3628.222        2827.186
  -1072077.057 9   -826658.91646  23726009.939    23726010.5544   23726018.4404
      2354.587        1834.743
 97  5 12 15 37 29.9990000  0  6  2 27 26 19  7 15                  -0.000113260
   -742139.657 9   -568791.99748  21039528.289    21039528.9244   21039535.2834
      1474.992        1149.344
   -354298.081 9   -271570.07848  20152151.769    20152152.4664   20152158.0634
       610.991         476.097
  -1480357.365 9   -632868.22647  23087942.291    23087943.6574   23087949.5964
      2965.722        2310.952
    671323.863 9    515732.85647  22644498.877    22644499.9134   22644507.2024
     -1490.164       -1161.167
  -1773856.171 9  -1365264.90248  21303875.588    21303876.4684   21303883.5534
      3614.035        2816.131
  -1142468.836 9   -881509.70046  23712614.937    23712615.6154   23712623.3584
      2337.723        1821.602
 97  5 12 15 37 59.9990000  0  6  2 27 26 19  7 15                  -0.000136043
   -786248.707 9   -603162.68248  21031134.728    21031135.3054   21031141.6344
      1466.549        1142.765
   -372356.700 9   -285641.74048  20148715.380    20148716.0384   20148721.6224
       593.884         462.767
  -1569029.006 9   -701962.99547  23071068.679    23071070.0264   23071076.0414
      2946.669        2296.106
    716196.346 9    550698.36547  22653038.066    22653038.8884   22653046.2154
     -1500.543       -1169.254
  -1882024.640 9  -1449551.98648  21283291.743    21283292.6904   21283299.7934
      3598.243        2803.826
  -1212309.181 9   -935930.75746  23699324.596    23699325.3864   23699333.1824
      2319.239        1807.199
 97  5 12 15 38 29.9990000  0  6  2 27 26 19  7 15                  -0.000158754
   -830105.323 9   -637336.65748  21022789.088    21022789.7014   21022796.0304
      1457.238        1135.510
   -389914.008 9   -299322.76948  20145374.217    20145375.0304   20145380.6034
       576.686         449.366
  -1657129.836 9   -770613.00547  23054303.645    23054304.9514   23054310.9834
      2926.956        2280.745
    761387.144 9    585911.93047  22661637.210    22661638.4884   22661645.8094
     -1512.172       -1178.316
  -1989728.714 9  -1533477.19948  21262796.400    21262797.2904   21262804.4024
      3582.048        2791.206
  -1281599.187 9   -989922.98646  23686139.228    23686139.8864   23686147.7924
      2300.190        1792.356
 97  5 12 15 38 59.9990000  0  6  2 27 26 19  7 15                  -0.000181377
   -873679.608 9   -671290.63948  21014497.087    21014497.8144   21014504.1594
      1447.572        1127.978
   -406954.184 9   -312600.83948  20142131.572    20142132.4494   20142138.0154
       559.232         435.765
  -1744647.835 9   -838808.84247  23037649.509    23037650.9394   23037656.9954
      2907.711        2265.749
    806931.311 9    621400.83747  22670304.112    22670305.3494   22670312.6664
     -1524.271       -1187.744
  -2096940.454 9  -1617018.78248  21242394.654    21242395.5764   21242402.6994
      3565.179        2778.062
  -1350317.464 9  -1043469.71646  23673062.777    23673063.4644   23673071.1554
      2280.908        1777.331
 97  5 12 15 39 29.9990000  0  6  2 27 26 19  7 15                  -0.000203931
   -916983.732 9   -705034.10448  21006256.727    21006257.3114   21006263.6424
      1439.385        1121.599
   -423483.713 9   -325480.99948  20138986.221    20138987.0284   20138992.5964
       542.664         422.855
  -1831618.461 9   -906578.14047  23021099.557    23021100.9844   23021106.9704
      2890.346        2252.218
    852826.867 9    657163.56047  22679038.005    22679039.1144   22679046.4414
     -1535.372       -1196.394
  -2203657.296 9  -1700174.72748  21222087.180    21222088.0434   21222095.1604
      3549.358        2765.734
  -1418470.316 9  -1096575.82346  23660093.984    23660094.2444   23660102.1434
      2262.722        1763.160
 97  5 12 15 39 59.9990000  0  6  2 27 26 19  7 15                  -0.000226405
   -959987.299 9   -738543.36348  20998073.345    20998074.0044   20998080.3364
      1427.710        1112.501
   -439455.732 9   -337926.73848  20135946.819    20135947.6864   20135953.2584
       522.244         406.943
  -1918016.039 9   -973900.90047  23004658.594    23004660.0164   23004666.0554
      2869.649        2236.090
    899112.166 9    693229.97647  22687845.844    22687847.0194   22687854.3124
     -1550.196       -1207.945
  -2309847.294 9  -1782920.14048  21201879.769    21201880.7634   21201887.8774
      3530.178        2750.788
  -1486024.995 9  -1149215.83346  23647238.433    23647239.0264   23647246.9764
      2241.005        1746.238
 97  5 12 15 40 29.9990000  0  6  2 27 26 19  7 15                  -0.000248800
  -1002684.539 9   -771813.93348  20989948.433    20989949.0024   20989955.3214
      1417.571        1104.601
   -454857.660 9   -349928.25548  20133015.786    20133016.8244   20133022.4074
       503.119         392.041
  -2003842.026 9  -1040778.29447  22988326.440    22988327.9194   22988333.9824
      2850.930        2221.504
    945797.574 9    729608.16147  22696729.770    22696730.9974   22696738.3424
     -1563.255       -1218.121
  -2415508.126 9  -1865253.21948  21181773.239    21181774.1794   21181781.2774
      3512.681        2737.154
  -1552971.826 9  -1201382.18646  23634498.949    23634499.6224   23634507.3914
      2220.871        1730.549
 97  5 12 15 40 59.9990000  0  6  2 27 26 19  7 15                  -0.000271138
  -1045077.791 9   -804847.63148  20981881.314    20981881.8414   20981888.1394
      1408.682        1097.674
   -469668.774 9   -361469.40448  20130197.404    20130198.4114   20130203.9744
       484.176         377.280
  -2089111.401 9  -1107221.95347  22972099.923    22972101.5864   22972107.7184
      2833.546        2207.958
    992869.007 9    766287.15647  22705687.105    22705688.4754   22705695.8424
     -1574.720       -1227.054
  -2520640.379 9  -1947174.42048  21161767.205    21161768.1614   21161775.2694
      3496.133        2724.259
  -1619307.028 9  -1253071.93446  23621876.096    23621876.6354   23621884.3254
      2201.433        1715.402
 97  5 12 15 41 29.9990000  0  6  2 27 26 19  7 15                  -0.000293412
  -1087143.238 9   -837625.90048  20973876.544    20973877.0714   20973883.3444
      1396.883        1088.480
   -483840.415 9   -372512.25148  20127500.606    20127501.6564   20127507.2584
       461.811         359.853
  -2173791.450 9  -1173206.41747  22955986.050    22955987.6184   22955993.6964
      2812.988        2191.939
   1040340.576 9    803277.93447  22714720.673    22714722.1254   22714729.4814
     -1588.696       -1237.945
  -2625218.956 9  -2028664.18548  21141866.542    21141867.5264   21141874.6424
      3477.155        2709.471
  -1684994.839 9  -1304257.23446  23609376.253    23609376.8274   23609384.3464
      2179.039        1697.952
 97  5 12 15 41 59.9990000  0  6  2 27 26 19  7 15                  -0.000315638
  -1128879.444 9   -870147.60548  20965934.303    20965934.9354   20965941.2294
      1384.733        1079.013
   -497367.339 9   -383052.72548  20124926.596    20124927.5904   20124933.2214
       439.253         342.275
  -2257882.104 9  -1238731.60447  22939983.888    22939985.6974   22939991.7804
      2792.042        2175.617
   1088197.982 9    840569.37447  22723827.616    22723829.1114   22723836.5284
     -1602.606       -1248.784
  -2729265.434 9  -2109739.32548  21122067.284    21122068.1194   21122075.2294
      3458.402        2694.859
  -1750041.556 9  -1354942.94946  23596998.187    23596998.7774   23597006.3764
      2156.513        1680.400
 97  5 12 15 42 29.9990000  0  6  2 27 26 19  7 15                  -0.000337792
  -1170256.751 9   -902389.65148  20958060.480    20958061.0974   20958067.3834
      1372.086        1069.158
   -510225.845 9   -393072.35748  20122479.806    20122480.7264   20122486.3724
       416.256         324.355
  -2341342.488 9  -1303765.66147  22924102.012    22924103.7194   22924109.8334
      2770.281        2158.660
   1136465.472 9    878180.35347  22733012.773    22733014.1864   22733021.5854
     -1617.008       -1260.006
  -2832755.963 9  -2190381.25748  21102373.683    21102374.4864   21102381.5874
      3439.152        2679.859
  -1814421.931 9  -1405109.44146  23584746.679    23584747.4174   23584755.3074
      2133.721        1662.640
 97  5 12 15 42 59.9990000  0  6  2 27 26 19  7 15                  -0.000359855
  -1211261.691 9   -934341.54948  20950257.580    20950258.1514   20950264.4114
      1361.826        1061.163
   -522397.659 9   -402556.90048  20120163.643    20120164.5254   20120170.1634
       395.608         308.266
  -2424150.651 9  -1368291.52247  22908344.353    22908345.9324   22908351.9154
      2750.412        2143.178
   1185171.644 9    916133.15847  22742281.562    22742282.7524   22742290.1364
     -1629.898       -1270.050
  -2935664.993 9  -2270570.07548  21082790.568    21082791.5554   21082798.6604
      3421.566        2666.155
  -1878116.104 9  -1454741.21246  23572626.323    23572626.8624   23572634.8224
      2112.688        1646.250
 97  5 12 15 43 29.9990000  0  6  2 27 26 19  7 15                  -0.000381817
  -1251913.079 9   -966017.95148  20942521.786    20942522.4254   20942528.7014
      1349.875        1051.851
   -533913.510 9   -411530.30348  20117972.220    20117973.1364   20117978.8044
       373.877         291.333
  -2506311.135 9  -1432312.68447  22892709.822    22892711.3764   22892717.2454
      2728.511        2126.112
   1234321.477 9    954431.66847  22751634.424    22751635.7384   22751643.0674
     -1645.312       -1282.061
  -3038004.118 9  -2350314.81248  21063316.160    21063317.0514   21063324.1894
      3402.649        2651.415
  -1941133.563 9  -1503845.69246  23560634.355    23560635.0344   23560642.9504
      2090.022        1628.589
 97  5 12 15 43 59.9990000  0  6  2 27 26 19  7 15                  -0.000403636
  -1292187.194 9   -997400.36848  20934857.908    20934858.5184   20934864.7734
      1337.491        1042.201
   -544772.197 9   -419991.63248  20115905.935    20115906.8074   20115912.5084
       352.414         274.608
  -2587784.791 9  -1495798.64747  22877205.920    22877207.4164   22877213.3524
      2705.234        2107.975
   1283963.545 9    993113.73347  22761081.047    22761082.3814   22761089.7264
     -1661.830       -1294.932
  -3139748.041 9  -2429595.76348  21043954.866    21043955.7764   21043962.9144
      3382.389        2635.628
  -2003449.432 9  -1552403.46946  23548776.184    23548776.7804   23548784.5474
      2066.582        1610.324
 97  5 12 15 44 29.9990000  0  6  2 27 26 19  7 15                  -0.000425289
  -1332101.915 9  -1028502.73848  20927262.481    20927263.0064   20927269.2674
      1324.353        1031.963
   -554996.559 9   -427958.68448  20113960.192    20113961.1814   20113966.9214
       329.948         257.102
  -2668558.595 9  -1558739.27647  22861835.060    22861836.6584   22861842.6494
      2680.748        2088.894
   1334096.039 9   1032177.97147  22770621.102    22770622.3454   22770629.6854
     -1679.276       -1308.527
  -3240890.294 9  -2508407.87448  21024708.176    21024709.0344   21024716.1314
      3361.171        2619.094
  -2065067.008 9  -1600417.10846  23537050.966    23537051.3604   23537059.0934
      2041.988        1591.159
 97  5 12 15 44 59.9990000  0  6  2 27 26 19  7 15                  -0.000446783
  -1371663.302 9  -1059329.78948  20919734.043    20919734.7094   20919740.9884
      1311.784        1022.169
   -564583.069 9   -435428.71348  20112136.087    20112136.9604   20112142.7054
       307.922         239.939
  -2748636.484 9  -1621137.63747  22846597.037    22846598.4214   22846604.4504
      2656.541        2070.032
   1384705.201 9   1071613.62047  22780252.047    22780252.9894   22780260.3034
     -1695.733       -1321.350
  -3341429.814 9  -2586750.32848  21005576.102    21005576.9974   21005584.0924
      3340.312        2602.841
  -2125979.360 9  -1647881.23146  23525459.762    23525460.1194   23525467.7424
      2017.606        1572.161
 97  5 12 15 45 29.9990000  0  6  2 27 26 19  7 15                  -0.000468110
  -1410845.764 9  -1089861.57248  20912277.834    20912278.5454   20912284.8384
      1299.615        1012.687
   -573512.898 9   -442387.03948  20110436.747    20110437.6894   20110443.4534
       286.649         223.363
  -2827987.326 9  -1682969.46647  22831496.904    22831498.3344   22831504.3984
      2632.837        2051.561
   1435791.930 9   1111421.39147  22789973.788    22789974.5604   22789981.8794
     -1710.679       -1332.997
  -3441353.708 9  -2664613.07248  20986561.233    20986562.1244   20986569.2214
      3320.520        2587.418
  -2186167.237 9  -1694780.81746  23514005.960    23514006.6334   23514014.2594
      1994.206        1553.927
 97  5 12 15 45 59.9990000  0  6  2 27 26 19  7 15                  -0.000489294
  -1449660.810 9  -1120107.05248  20904891.639    20904892.3044   20904898.5894
      1287.012        1002.866
   -581799.568 9   -448844.20348  20108859.933    20108860.8224   20108866.5744
       264.641         206.214
  -2906627.493 9  -1744247.52247  22816532.294    22816533.6674   22816539.6654
      2608.912        2032.918
   1487313.891 9   1151568.31247  22799777.801    22799778.9354   22799786.2964
     -1725.054       -1344.198
  -3540674.139 9  -2742005.58548  20967661.068    20967662.0644   20967669.1744
      3299.834        2571.299
  -2245652.776 9  -1741133.13746  23502686.335    23502686.8894   23502694.4364
      1970.422        1535.394
 97  5 12 15 46 29.9990000  0  6  2 27 26 19  7 15                  -0.000510370
  -1488117.491 9  -1150073.29248  20897573.610    20897574.2794   20897580.5664
      1276.305         994.523
   -589438.689 9   -454796.77948  20107406.286    20107407.1764   20107412.9254
       244.104         190.211
  -2984587.496 9  -1804995.58147  22801696.984    22801698.3714   22801704.3864
      2588.094        2016.697
   1539234.421 9   1192025.82047  22809657.971    22809659.1294   22809666.5274
     -1736.764       -1353.322
  -3639407.450 9  -2818940.60648  20948872.742    20948873.7114   20948880.8154
      3281.859        2557.293
  -2304448.685 9  -1786948.08646  23491497.667    23491498.4374   23491505.8924
      1948.793        1518.540
 97  5 12 15 46 59.9990000  0  6  2 27 26 19  7 15                  -0.000531345
  -1526193.083 9  -1179742.58448  20890328.207    20890328.7694   20890335.0444
      1262.499         983.765
   -596396.343 9   -460218.34048  20106082.215    20106083.1834   20106088.9594
       220.370         171.717
  -3061866.087 9  -1865212.66547  22786991.559    22786992.8254   22786998.7954
      2564.320        1998.171
   1591570.460 9   1232807.08647  22819617.132    22819618.3614   22819625.8244
     -1751.931       -1365.141
  -3737534.477 9  -2895403.20148  20930199.765    20930200.7904   20930207.8504
      3260.485        2540.638
  -2362534.681 9  -1832209.85346  23480444.087    23480445.0144   23480452.4744
      1924.175        1499.357
 97  5 12 15 47 29.9990000  0  6  2 27 26 19  7 15                  -0.000552205
  -1563869.196 9  -1209100.59048  20883158.813    20883159.2614   20883165.5194
      1250.467         974.390
   -602658.095 9   -465097.64548  20104890.480    20104891.6494   20104897.4114
       198.243         154.475
  -3138449.485 9  -1924888.05147  22772418.139    22772419.5234   22772425.4904
      2542.382        1981.077
   1644354.507 9   1273937.45247  22829661.637    22829662.9184   22829670.3734
     -1766.010       -1376.112
  -3835032.738 9  -2971375.84548  20911646.445    20911647.4624   20911654.5044
      3240.434        2525.014
  -2419901.160 9  -1876910.96946  23469527.875    23469528.5474   23469536.0934
      1901.286        1481.522
 97  5 12 15 47 59.9990000  0  6  2 27 26 19  7 15                  -0.000572949
  -1601161.239 9  -1238159.31948  20876062.381    20876062.8794   20876069.0954
      1237.867         964.572
   -608225.147 9   -469435.62648  20103831.296    20103832.3214   20103838.0774
       174.977         136.346
  -3214347.380 9  -1984029.26947  22757975.214    22757976.6644   22757982.6404
      2519.620        1963.340
   1697592.369 9   1315421.44447  22839792.494    22839793.8334   22839801.2744
     -1781.046       -1387.828
  -3931889.317 9  -3046848.47148  20893215.219    20893216.2654   20893223.3204
      3218.784        2508.143
  -2476547.550 9  -1921050.98146  23458748.371    23458749.0074   23458756.5634
      1877.242        1462.786
 97  5 12 15 48 29.9990000  0  6  2 27 26 19  7 15                  -0.000593574
  -1638075.212 9  -1266923.45448  20869037.968    20869038.4554   20869044.6304
      1224.462         954.126
   -613095.320 9   -473230.59048  20102904.534    20102905.5874   20102911.3534
       151.127         117.761
  -3289559.173 9  -2042635.87047  22743663.097    22743664.4114   22743670.3424
      2495.848        1944.817
   1751282.089 9   1357257.53247  22850009.187    22850010.7064   22850018.0984
     -1796.722       -1400.043
  -4028095.643 9  -3121814.41648  20874907.790    20874908.8214   20874915.8904
      3196.275        2490.604
  -2532472.960 9  -1964629.19246  23448106.030    23448106.6764   23448114.2514
      1852.423        1443.446
 97  5 12 15 48 59.9990000  0  6  2 27 26 19  7 15                  -0.000614068
  -1674610.083 9  -1295392.18148  20862085.531    20862086.1444   20862092.2814
      1211.338         943.900
   -617278.515 9   -476490.24348  20102108.612    20102109.5754   20102115.3454
       127.920          99.678
  -3364071.288 9  -2100697.25247  22729483.864    22729485.2164   22729491.1624
      2471.676        1925.981
   1805424.981 9   1399446.73147  22860312.349    22860313.8004   22860321.1684
     -1812.530       -1412.361
  -4123640.405 9  -3196264.85148  20856726.186    20856727.2524   20856734.3104
      3173.738        2473.043
  -2587675.257 9  -2007643.94246  23437601.477    23437602.0084   23437609.5704
      1827.798        1424.258
 97  5 12 15 49 29.9990000  0  6  2 27 26 19  7 15                  -0.000634427
  -1710777.806 9  -1323574.82648  20855203.135    20855203.6784   20855209.8214
      1198.866         934.181
   -620798.537 9   -479233.14448  20101438.645    20101439.7694   20101445.5334
       105.598          82.284
  -3437882.698 9  -2158212.65547  22715438.101    22715439.4224   22715445.3264
      2448.187        1907.678
   1860008.855 9   1441979.55447  22870699.233    22870700.8464   22870708.2084
     -1827.314       -1423.881
  -4218546.279 9  -3270217.45248  20838666.207    20838667.2424   20838674.2884
      3152.248        2456.297
  -2642161.834 9  -2050101.00146  23427233.214    23427233.5724   23427241.0944
      1803.540        1405.356
 97  5 12 15 49 59.9990000  0  6  2 27 26 19  7 15                  -0.000654669
  -1746590.513 9  -1351480.83148  20848388.227    20848388.7554   20848394.8894
      1188.571         926.159
   -623670.508 9   -481471.06848  20100892.259    20100893.2904   20100899.0604
        85.809          66.864
  -3511011.104 9  -2215195.82647  22701522.274    22701523.5684   22701529.5044
      2427.104        1891.250
   1915007.468 9   1484835.54847  22881165.174    22881166.7964   22881174.1784
     -1839.129       -1433.088
  -4312833.050 9  -3343687.63348  20820724.015    20820725.0884   20820732.1124
      3133.601        2441.767
  -2695940.954 9  -2092006.80146  23416999.342    23416999.8374   23417007.0454
      1781.737        1388.366
 97  5 12 15 50 29.9990000  0  6  2 27 26 19  7 15                  -0.000674794
  -1782027.175 9  -1379093.81648  20841644.755    20841645.4264   20841651.5054
      1175.423         915.914
   -625892.934 9   -483202.85448  20100469.496    20100470.3914   20100476.1724
        63.920          49.808
  -3583447.871 9  -2271640.07247  22687737.981    22687739.3394   22687745.2634
      2403.465        1872.830
   1970419.945 9   1528014.04947  22891709.951    22891711.5664   22891718.9844
     -1853.643       -1444.397
  -4406510.538 9  -3416683.05248  20802897.775    20802898.8804   20802905.8824
      3113.131        2425.816
  -2749005.849 9  -2133356.05146  23406901.765    23406902.0484   23406909.1184
      1757.407        1369.408
 97  5 12 15 50 59.9990000  0  6  2 27 26 19  7 15                  -0.000694790
  -1817081.700 9  -1406409.03048  20834974.061    20834974.7794   20834980.8384
      1162.278         905.671
   -627468.493 9   -484430.58348  20100169.676    20100170.5894   20100176.4014
        41.774          32.551
  -3655181.104 9  -2327536.10047  22674087.682    22674088.9374   22674094.8854
      2379.398        1854.076
   2026271.465 9   1571534.66447  22902338.155    22902339.8294   22902347.1964
     -1869.153       -1456.483
  -4499589.285 9  -3489211.91448  20785185.481    20785186.5754   20785193.5394
      3092.769        2409.950
  -2801347.046 9  -2174141.38046  23396941.496    23396941.9554   23396948.9964
      1732.668        1350.131
 97  5 12 15 51 29.9990000  0  6  2 27 26 19  7 15                  -0.000714658
  -1851773.468 9  -1433441.58348  20828372.508    20828373.1544   20828379.1664
      1151.730         897.452
   -628413.934 9   -485167.31848  20099989.867    20099990.7214   20099996.5334
        22.311          17.385
  -3726225.437 9  -2382895.33947  22660568.412    22660569.7724   22660575.6004
      2358.048        1837.440
   2082555.910 9   1615392.60347  22913049.043    22913050.4564   22913057.8584
     -1881.961       -1466.463
  -4592082.149 9  -3561284.24848  20767584.627    20767585.7264   20767592.6774
      3074.295        2395.555
  -2852974.719 9  -2214370.72646  23387116.993    23387117.5094   23387124.6454
      1710.310        1332.709
 97  5 12 15 51 59.9990000  0  6  2 27 26 19  7 15                  -0.000734394
  -1886104.728 9  -1460193.20848  20821839.458    20821840.1184   20821846.1624
      1138.714         887.310
   -628730.573 9   -485414.06348  20099929.599    20099930.5144   20099936.3274
         0.424           0.330
  -3796573.970 9  -2437712.38247  22647181.706    22647182.9214   22647188.7974
      2333.480        1818.296
   2139267.765 9   1659583.59747  22923841.173    22923842.4134   22923849.8534
     -1897.247       -1478.374
  -4683966.452 9  -3632882.37648  20750099.661    20750100.7334   20750107.6534
      3052.922        2378.900
  -2903888.806 9  -2254044.03646  23377428.381    23377428.9444   23377435.9284
      1685.484        1313.364
 97  5 12 15 52 29.9990000  0  6  2 27 26 19  7 15                  -0.000753993
  -1920097.434 9  -1486681.03348  20815370.845    20815371.5434   20815377.5604
      1126.234         877.585
   -628442.843 9   -485189.88848  20099984.348    20099985.2824   20099991.1014
       -21.024         -16.382
  -3866230.081 9  -2491989.87147  22633926.490    22633927.7004   22633933.5994
      2308.957        1799.187
   2196401.465 9   1704103.29947  22934713.333    22934714.6854   22934722.0874
     -1912.869       -1490.547
  -4775253.252 9  -3704014.91948  20732728.413    20732729.4344   20732736.3504
      3031.619        2362.301
  -2954102.387 9  -2293171.49346  23367872.971    23367873.6244   23367880.5094
      1660.816        1294.142
 97  5 12 15 52 59.9990000  0  6  2 27 26 19  7 15                  -0.000773437
  -1953741.002 9  -1512896.79948  20808968.626    20808969.3904   20808975.4304
      1116.077         869.670
   -627524.997 9   -484474.70648  20100159.149    20100159.9634   20100165.8084
       -40.894         -31.865
  -3935171.834 9  -2545710.73547  22620807.331    22620808.6124   22620814.5494
      2286.632        1781.791
   2253980.868 9   1748970.29747  22945670.383    22945671.7824   22945679.2054
     -1926.239       -1500.965
  -4865917.009 9  -3774661.97448  20715475.755    20715476.7044   20715483.6084
      3011.936        2346.963
  -3003595.774 9  -2331737.76646  23358454.843    23358455.3924   23358462.1424
      1638.117        1276.455
 97  5 12 15 53 29.9990000  0  6  2 27 26 19  7 15                  -0.000792748
  -1987056.765 9  -1538857.13348  20802628.932    20802629.6354   20802635.6294
      1105.004         861.042
   -625987.806 9   -483276.91948  20100451.616    20100452.4984   20100458.3564
       -61.709         -48.085
  -4003423.197 9  -2598893.61847  22607819.530    22607820.8024   22607826.7114
      2263.607        1763.850
   2311972.012 9   1794158.13146  22956705.889    22956707.1704   22956714.6044
     -1939.751       -1511.494
  -4955961.790 9  -3844826.70648  20698340.823    20698341.7564   20698348.6634
      2991.064        2330.699
  -3052384.393 9  -2369754.87146  23349170.846    23349171.3554   23349178.0474
      1614.532        1258.077
 97  5 12 15 53 59.9990000  0  6  2 27 26 19  7 15                  -0.000811927
  -2020017.370 9  -1564540.72548  20796356.778    20796357.4314   20796363.4244
      1093.282         851.908
   -623800.044 9   -481572.19248  20100867.877    20100868.8534   20100874.7004
       -83.300         -64.909
  -4070971.378 9  -2651528.57547  22594965.535    22594966.8754   22594972.7394
      2240.764        1746.050
   2370386.953 9   1839676.19646  22967821.960    22967823.2664   22967830.6574
     -1953.662       -1522.334
  -5045369.121 9  -3914494.73048  20681327.100    20681328.0584   20681334.9764
      2970.404        2314.601
  -3100447.016 9  -2407206.25246  23340025.168    23340025.5804   23340032.1204
      1590.603        1239.431
 97  5 12 15 54 29.9990000  0  6  2 27 26 19  7 15                  -0.000830989
  -2052602.164 9  -1589931.46948  20790156.123    20790156.7464   20790162.7224
      1079.411         841.099
   -620934.206 9   -479339.10248  20101413.347    20101414.2024   20101420.0934
      -107.432         -83.713
  -4137824.152 9  -2703621.67247  22582243.610    22582245.1854   22582251.0244
      2216.539        1727.173
   2429242.722 9   1885537.76947  22979021.736    22979023.1884   22979030.5704
     -1969.580       -1534.738
  -5134136.050 9  -3983663.73848  20664435.157    20664436.2734   20664443.1814
      2947.883        2297.052
  -3147769.655 9  -2444081.02146  23331019.988    23331020.5264   23331026.9484
      1564.654        1219.211
 97  5 12 15 54 59.9990000  0  6  2 27 26 19  7 15                  -0.000849972
  -2084852.388 9  -1615061.50948  20784019.267    20784019.7364   20784025.7164
      1069.171         833.120
   -617415.376 9   -476597.18248  20102083.006    20102083.8424   20102089.7154
      -128.571        -100.185
  -4204038.321 9  -2755217.13447  22569643.539    22569645.0264   22569650.9124
      2196.277        1711.385
   2488496.019 9   1931709.11246  22990297.524    22990298.7854   22990306.2354
     -1982.048       -1544.453
  -5222305.521 9  -4052367.19548  20647657.162    20647658.2104   20647665.0944
      2928.545        2281.983
  -3194389.658 9  -2480408.26846  23322148.285    23322149.0264   23322155.3214
      1541.809        1201.410
 97  5 12 15 55 29.9990000  0  6  2 27 26 19  7 15                  -0.000868870
  -2116758.002 9  -1639923.02548  20777947.816    20777948.3204   20777954.2904
      1056.807         823.486
   -613226.542 9   -473333.17748  20102880.046    20102880.9924   20102886.8764
      -151.707        -118.213
  -4269605.839 9  -2806308.72047  22557166.496    22557167.9714   22557173.8724
      2173.908        1693.954
   2548157.118 9   1978198.22946  23001650.552    23001651.9554   23001659.3934
     -1996.370       -1555.613
  -5309858.372 9  -4120590.16648  20630996.407    20630997.4584   20631004.3254
      2907.344        2265.463
  -3240287.345 9  -2516172.66046  23313414.254    23313414.9904   23313421.2314
      1517.077        1182.138
 97  5 12 15 55 59.9990000  0  6  2 27 26 19  7 15                  -0.000887683
  -2148309.029 9  -1664508.23548  20771943.920    20771944.3414   20771950.3534
      1045.544         814.710
   -608352.697 9   -469535.40448  20103807.581    20103808.5074   20103814.3554
      -174.208        -135.746
  -4334516.474 9  -2856888.44547  22544814.524    22544815.8974   22544821.7594
      2152.195        1677.035
   2608235.056 9   2025012.15346  23013083.048    23013084.4654   23013091.9114
     -2009.868       -1566.131
  -5396799.059 9  -4188336.12248  20614452.068    20614453.2034   20614460.0974
      2887.571        2250.055
  -3285460.540 9  -2551372.51447  23304818.172    23304818.8254   23304825.0244
      1493.387        1163.678
 97  5 12 15 56 29.9990000  0  6  2 27 26 19  7 15                  -0.000906398
  -2179520.947 9  -1688829.21548  20766004.478    20766004.9254   20766010.9514
      1035.165         806.622
   -602796.689 9   -465206.07248  20104865.012    20104865.8294   20104871.6434
      -196.219        -152.898
  -4398756.319 9  -2906945.48347  22532590.325    22532591.5074   22532597.4154
      2130.185        1659.884
   2668736.152 9   2072155.80646  23024596.155    23024597.4754   23024604.9724
     -2023.432       -1576.700
  -5483137.718 9  -4255612.96948  20598022.363    20598023.5014   20598030.4064
      2868.294        2235.034
  -3329911.734 9  -2586009.77046  23296359.272    23296360.0634   23296366.2444
      1469.880        1145.361
 97  5 12 15 56 59.9990000  0  6  2 27 26 19  7 15                  -0.000925005
  -2210412.541 9  -1712900.58648  20760125.958    20760126.4624   20760132.5054
      1024.759         798.514
   -596571.344 9   -460355.18248  20106049.761    20106050.5214   20106056.3224
      -218.167        -170.000
  -4462311.802 9  -2956469.24347  22520496.039    22520497.3094   22520503.1944
      2107.269        1642.028
   2729646.790 9   2119618.57446  23036186.714    23036188.4404   23036195.9244
     -2036.546       -1586.919
  -5568888.365 9  -4322431.62848  20581704.508    20581705.6564   20581712.5884
      2848.858        2219.889
  -3373646.530 9  -2620088.78847  23288037.016    23288037.6154   23288043.8214
      1446.319        1127.002
 97  5 12 15 57 29.9990000  0  6  2 27 26 19  7 15                  -0.000943484
  -2240962.941 9  -1736706.08548  20754312.286    20754312.8834   20754318.9524
      1011.764         788.388
   -589671.175 9   -454978.45248  20107362.812    20107363.6184   20107369.4264
      -241.988        -188.562
  -4525143.127 9  -3005428.74247  22508539.754    22508540.9554   22508546.8444
      2081.405        1621.874
   2790963.302 9   2167397.60346  23047854.907    23047856.6334   23047864.1474
     -2051.377       -1598.476
  -5654033.666 9  -4388778.58548  20565501.836    20565503.0054   20565509.9544
      2827.294        2203.086
  -3416653.796 9  -2653600.89347  23279853.228    23279853.6024   23279859.7724
      1420.680        1107.023
 97  5 12 15 57 59.9990000  0  6  2 27 26 19  7 15                  -0.000961839
  -2271166.774 9  -1760241.53548  20748564.613    20748565.2624   20748571.3404
      1000.544         779.645
   -582104.329 9   -449082.22648  20108802.779    20108803.6024   20108809.3834
      -263.590        -205.395
  -4587248.014 9  -3053822.16347  22496721.484    22496722.7624   22496728.5924
      2057.675        1603.383
   2852684.470 9   2215491.95046  23059600.156    23059601.8164   23059609.3924
     -2064.659       -1608.825
  -5738579.052 9  -4454658.07648  20549413.509    20549414.5284   20549421.4914
      2807.657        2187.785
  -3458937.258 9  -2686548.99046  23271807.193    23271807.2154   23271813.6384
      1396.847        1088.452
 97  5 12 15 58 29.9990000  0  6  2 27 26 19  7 15                  -0.000980074
  -2301037.088 9  -1783517.10848  20742880.540    20742881.1524   20742887.2284
       990.305         771.666
   -573902.907 9   -442691.53248  20110363.625    20110364.3334   20110370.0944
      -283.626        -221.007
  -4648647.480 9  -3101665.91047  22485037.544    22485038.8414   22485044.6694
      2035.235        1585.897
   2914797.093 9   2263891.32346  23071419.909    23071421.5214   23071429.1114
     -2076.567       -1618.104
  -5822535.859 9  -4520078.93348  20533437.009    20533438.0684   20533445.0134
      2788.908        2173.175
  -3500509.397 9  -2718942.83446  23263896.003    23263896.0844   23263902.7634
      1374.107        1070.733
 97  5 12 15 58 59.9990000  0  6  2 27 26 19  7 15                  -0.000998186
  -2330549.581 9  -1806513.85048  20737264.616    20737265.1244   20737271.2064
       976.919         761.236
   -565060.128 9   -435801.08048  20112046.292    20112047.1054   20112052.8374
      -306.144        -238.554
  -4709327.598 9  -3148949.11847  22473490.463    22473491.7384   22473497.6394
      2010.093        1566.306
   2977299.012 9   2312594.05346  23083313.824    23083315.2244   23083322.9064
     -2090.446       -1628.919
  -5905877.044 9  -4585020.08448  20517577.662    20517578.7614   20517585.7044
      2766.855        2155.991
  -3541356.632 9  -2750771.81746  23256122.790    23256122.8184   23256129.8114
      1348.794        1051.008
 97  5 12 15 59 29.9990000  0  6  2 27 26 19  7 15                  -0.001016198
  -2359714.482 9  -1829239.73848  20731714.737    20731715.2674   20731721.3224
       967.807         754.135
   -555598.782 9   -428428.62448  20113846.762    20113847.5664   20113853.3264
      -324.265        -252.674
  -4769320.484 9  -3195696.83647  22462074.306    22462075.5564   22462081.4054
      1989.938        1550.601
   3040174.575 9   2361587.93846  23095278.628    23095280.1204   23095287.8264
     -2100.908       -1637.071
  -5988609.106 9  -4649486.59648  20501834.264    20501835.3384   20501842.2784
      2749.033        2142.104
  -3581500.290 9  -2782052.57046  23248483.018    23248483.5474   23248490.6784
      1327.745        1034.606
 97  5 12 15 59 59.9980000  0  6  2 27 26 19  7 15                  -0.001034101
  -2388525.950 9  -1851690.23448  20726231.918    20726232.6224   20726238.6654
       955.222         744.329
   -545513.828 9   -420570.24148  20115765.819    20115766.6934   20115772.4714
      -345.905        -269.536
  -4828631.645 9  -3241913.32947  22450787.630    22450789.0224   22450794.9034
      1966.378        1532.243
   3103448.076 9   2410891.89146  23107319.418    23107320.7464   23107328.4384
     -2115.246       -1648.244
  -6070718.096 9  -4713467.59448  20486209.487    20486210.4944   20486217.4494
      2727.099        2125.012
  -3620929.904 9  -2812776.90546  23240979.636    23240980.3064   23240987.3584
      1303.026        1015.345
 97  5 12 16  0 29.9980000  0  6  2 27 26 19  7 15                  -0.001051893
  -2416999.817 9  -1873877.66048  20720813.545    20720814.2174   20720820.2664
       943.961         735.554
   -534815.737 9   -412234.08848  20117801.697    20117802.4974   20117808.3044
      -366.469        -285.560
  -4887262.620 9  -3287599.81847  22439630.619    22439632.0104   22439637.8004
      1943.260        1514.229
   3167111.520 9   2460499.69246  23119434.357    23119435.5694   23119443.3334
     -2128.075       -1658.240
  -6152196.758 9  -4776957.42948  20470704.488    20470705.6204   20470712.5414
      2705.684        2108.325
  -3659650.762 9  -2842948.97946  23233611.355    23233611.9544   23233618.9274
      1279.164         996.751
 97  5 12 16  0 59.9980000  0  6  2 27 26 19  7 15                  -0.001069588
  -2445155.124 9  -1895816.85948  20715455.751    20715456.4754   20715462.5044
       932.229         726.412
   -523522.814 9   -403434.43448  20119950.652    20119951.4884   20119957.3124
      -387.358        -301.837
  -4945228.830 9  -3332768.30547  22428600.001    22428601.4534   22428607.1764
      1920.328        1496.359
   3231137.454 9   2510389.93646  23131617.860    23131619.3674   23131627.1964
     -2141.229       -1668.490
  -6233046.391 9  -4839957.11348  20455319.419    20455320.4594   20455327.3604
      2683.494        2091.034
  -3697672.079 9  -2872575.94246  23226376.138    23226376.6694   23226383.7174
      1254.643         977.644
 97  5 12 16  1 29.9980000  0  6  2 27 26 19  7 15                  -0.001087195
  -2473012.675 9  -1917524.04048  20710154.561    20710155.3774   20710161.3864
       925.259         720.981
   -511648.246 9   -394181.54748  20122210.255    20122211.1484   20122217.0224
      -403.993        -314.800
  -5002557.746 9  -3377440.18847  22417690.452    22417692.0824   22417697.8944
      1901.798        1481.921
   3295515.824 9   2560554.79146  23143868.872    23143870.2204   23143878.0844
     -2150.319       -1675.573
  -6313280.873 9  -4902477.45948  20440051.307    20440052.3294   20440059.2154
      2665.864        2077.297
  -3735003.364 9  -2901665.22846  23219272.422    23219272.7274   23219279.8294
      1234.323         961.810
 97  5 12 16  1 59.9980000  0  6  2 27 26 19  7 15                  -0.001104726
  -2500602.755 9  -1939022.80448  20704904.410    20704905.1574   20704911.1774
       914.000         712.208
   -499216.312 9   -384494.35248  20124576.074    20124576.8554   20124582.7914
      -424.893        -331.085
  -5059262.780 9  -3421625.94247  22406900.077    22406901.5064   22406907.3454
      1878.528        1463.788
   3360212.429 9   2610967.69246  23156180.169    23156181.6904   23156189.4534
     -2162.876       -1685.358
  -6392918.554 9  -4964532.77148  20424896.693    20424897.7644   20424904.6564
      2643.344        2059.749
  -3771662.275 9  -2930230.59246  23212296.057    23212296.7274   23212303.8284
      1209.515         942.479
 97  5 12 16  2 29.9980000  0  6  2 27 26 19  7 15                  -0.001122165
  -2527895.586 9  -1960289.94348  20699710.811    20699711.5344   20699717.5304
       905.366         705.480
   -486194.879 9   -374347.79748  20127053.932    20127054.7764   20127060.7254
      -443.509        -345.591
  -5115309.707 9  -3465298.87647  22396234.930    22396236.2044   22396241.9884
      1857.835        1447.664
   3425243.667 9   2661641.32046  23168555.527    23168556.8444   23168564.5724
     -2172.769       -1693.067
  -6471930.527 9  -5026100.51148  20409861.158    20409862.2484   20409869.1234
      2624.183        2044.818
  -3807617.521 9  -2958247.65046  23205454.443    23205454.7274   23205461.6634
      1187.343         925.202
 97  5 12 16  2 59.9980000  0  6  2 27 26 19  7 15                  -0.001139540
  -2554922.434 9  -1981349.82948  20694567.739    20694568.5274   20694574.5394
       896.822         698.822
   -472595.242 9   -363750.70648  20129641.838    20129642.7014   20129648.6894
      -462.841        -360.655
  -5170730.461 9  -3508483.88548  22385688.543    22385689.9834   22385695.8174
      1837.207        1431.590
   3490584.390 9   2712556.10746  23180989.501    23180990.8864   23180998.5384
     -2182.813       -1700.893
  -6550368.048 9  -5087220.62948  20394934.893    20394936.1014   20394942.9084
      2605.537        2030.289
  -3842899.790 9  -2985740.32746  23198740.482    23198740.7224   23198747.5544
      1165.291         908.019
 97  5 12 16  3 29.9980000  0  6  2 27 26 19  7 15                  -0.001156857
  -2581702.746 9  -2002217.60348  20689471.646    20689472.4474   20689478.4334
       888.725         692.513
   -458417.035 9   -352702.78448  20132339.917    20132340.7534   20132346.7474
      -482.230        -375.764
  -5225527.720 9  -3551183.05947  22375261.087    22375262.4094   22375268.2294
      1816.169        1415.197
   3556220.620 9   2763701.10746  23193479.878    23193481.0554   23193488.7954
     -2192.730       -1708.621
  -6628261.769 9  -5147917.01048  20380112.211    20380113.4154   20380120.1974
      2587.550        2016.273
  -3877530.398 9  -3012725.20446  23192150.269    23192150.7114   23192157.6034
      1143.603         891.119
 97  5 12 16  3 59.9980000  0  6  2 27 26 19  7 15                  -0.001174105
  -2608226.947 9  -2022885.81348  20684424.287    20684425.0524   20684431.0254
       880.730         686.283
   -443645.517 9   -341192.53148  20135150.792    20135151.6934   20135157.7194
      -501.277        -390.605
  -5279682.854 9  -3593381.87748  22364955.845    22364957.0424   22364962.8324
      1795.455        1399.056
   3622168.591 9   2815089.09146  23206028.910    23206030.6574   23206038.2694
     -2202.612       -1716.321
  -6705607.618 9  -5208186.47448  20365393.762    20365394.9874   20365401.7324
      2570.104        2002.678
  -3911502.030 9  -3039196.61846  23185685.793    23185686.1374   23185693.1424
      1122.406         874.602
 97  5 12 16  4 29.9980000  0  6  2 27 26 19  7 15                  -0.001191296
  -2634509.141 9  -2043365.44948  20679423.138    20679423.7094   20679429.6814
       872.082         679.544
   -428290.586 9   -329227.67648  20138072.859    20138073.6884   20138079.7004
      -521.747        -406.556
  -5333215.463 9  -3635095.61748  22354768.661    22354770.1324   22354775.9684
      1774.018        1382.352
   3688421.199 9   2866714.41146  23218636.433    23218638.0934   23218645.8004
     -2213.536       -1724.833
  -6782438.996 9  -5268055.05348  20350773.292    20350774.4474   20350781.2174
      2552.568        1989.014
  -3944830.927 9  -3065167.17146  23179343.190    23179343.8594   23179350.9084
      1100.172         857.277
 97  5 12 16  4 59.9980000  0  6  2 27 26 19  7 15                  -0.001208429
  -2660549.521 9  -2063656.65348  20674467.789    20674468.4034   20674474.3694
       864.189         673.394
   -412345.540 9   -316802.98848  20141107.165    20141107.9594   20141113.9784
      -540.740        -421.356
  -5386129.023 9  -3676326.97848  22344699.624    22344701.0844   22344706.8844
      1753.958        1366.721
   3754977.972 9   2918576.75046  23231302.221    23231303.5204   23231311.2474
     -2223.048       -1732.245
  -6858764.991 9  -5327529.82848  20336248.927    20336250.0434   20336256.7964
      2536.100        1976.182
  -3977515.326 9  -3090635.53046  23173123.854    23173124.3614   23173131.3314
      1079.154         840.899
 97  5 12 16  5 29.9980000  0  6  2 27 26 19  7 15                  -0.001225545
  -2686381.648 9  -2083785.58648  20669552.093    20669552.7034   20669558.6934
       855.824         666.876
   -395872.134 9   -303966.59548  20144241.986    20144242.7674   20144248.7884
      -559.617        -436.065
  -5438477.986 9  -3717118.39448  22334737.909    22334739.4404   22334745.2464
      1733.825        1351.032
   3821785.382 9   2970634.38646  23244014.901    23244016.5694   23244024.3674
     -2232.938       -1739.952
  -6934628.179 9  -5386643.97448  20321812.620    20321813.7114   20321820.4494
      2519.095        1962.931
  -4009599.749 9  -3115636.36846  23167018.109    23167018.8674   23167025.8124
      1057.539         824.056
 97  5 12 16  5 59.9980000  0  6  2 27 26 19  7 15                  -0.001242615
  -2711961.758 9  -2103718.14148  20664684.487    20664684.9984   20664690.9854
       848.346         661.049
   -378843.990 9   -290697.93648  20147482.318    20147483.1384   20147489.1984
      -576.821        -449.471
  -5490230.635 9  -3757445.15447  22324890.113    22324891.2344   22324897.0844
      1715.156        1336.485
   3888881.552 9   3022917.04146  23256782.724    23256784.5664   23256792.3984
     -2241.185       -1746.378
  -7009980.002 9  -5445359.66148  20307473.567    20307474.7024   20307481.4154
      2503.126        1950.488
  -4041037.950 9  -3140133.66746  23161035.330    23161036.3404   23161043.3404
      1037.102         808.131
 97  5 12 16  6 29.9980000  0  6  2 27 26 19  7 15                  -0.001259674
  -2737327.461 9  -2123483.62148  20659857.432    20659858.0594   20659864.0834
       842.317         656.351
   -361303.307 9   -277029.89148  20150820.151    20150821.0144   20150827.1174
      -592.902        -462.002
  -5541432.305 9  -3797342.57348  22315146.675    22315147.9774   22315153.7674
      1698.013        1323.127
   3956216.402 9   3075385.67546  23269596.431    23269597.9934   23269605.9194
     -2248.039       -1751.719
  -7084863.173 9  -5503710.15748  20293223.763    20293224.9074   20293231.6234
      2488.518        1939.105
  -4071870.493 9  -3164159.02946  23155168.312    23155169.1184   23155176.0964
      1017.992         793.240
 97  5 12 16  6 59.9980000  0  6  2 27 26 19  7 15                  -0.001276727
  -2762477.033 9  -2143080.68448  20655071.719    20655072.2854   20655078.2924
       833.313         649.335
   -343262.089 9   -262971.81848  20154253.349    20154254.1624   20154260.2864
      -610.925        -476.045
  -5592092.141 9  -3836817.77448  22305506.580    22305507.7244   22305513.5504
      1678.155        1307.653
   4023787.941 9   3128038.77746  23282454.821    23282456.4944   23282464.4214
     -2257.717       -1759.260
  -7159264.276 9  -5561685.01648  20279065.794    20279066.8604   20279073.5704
      2470.411        1924.995
  -4102100.428 9  -3187714.83146  23149415.824    23149416.6774   23149423.4404
       996.247         776.296
 97  5 12 16  7 29.9980000  0  6  2 27 26 19  7 15                  -0.001293762
  -2787413.064 9  -2162511.36848  20650326.604    20650327.1144   20650333.1404
       828.246         645.386
   -324727.784 9   -248529.52948  20157780.296    20157781.1464   20157787.2824
      -625.757        -487.603
  -5642199.851 9  -3875862.75548  22295971.231    22295972.5294   22295978.3914
      1661.295        1294.515
   4091605.396 9   3180883.50746  23295359.965    23295361.6924   23295369.6534
     -2264.464       -1764.517
  -7233163.587 9  -5619268.87648  20265003.164    20265004.2704   20265010.9944
      2455.182        1913.129
  -4131722.830 9  -3210797.23746  23143779.161    23143779.7744   23143786.3844
       977.627         761.787
 97  5 12 16  7 59.9980000  0  6  2 27 26 19  7 15                  -0.001310780
  -2812173.150 9  -2181804.93748  20645614.812    20645615.4314   20645621.4554
       821.086         639.807
   -305722.410 9   -233720.17148  20161396.946    20161397.7784   20161403.9154
      -642.741        -500.837
  -5691772.751 9  -3914491.01048  22286537.913    22286539.1834   22286545.0054
      1642.214        1279.647
   4159654.272 9   3233908.57046  23308309.509    23308311.0634   23308319.0354
     -2273.377       -1771.463
  -7306580.715 9  -5676477.00648  20251032.360    20251033.4664   20251040.1834
      2438.116        1899.831
  -4160764.618 9  -3233427.20446  23138252.845    23138253.3194   23138259.8604
       957.151         745.832
 97  5 12 16  8 29.9980000  0  6  2 27 26 19  7 15                  -0.001327767
  -2836725.672 9  -2200936.77748  20640942.702    20640943.2674   20640949.3034
       815.715         635.622
   -286204.559 9   -218511.47648  20165111.123    20165111.9504   20165118.0784
      -658.390        -513.031
  -5740778.098 9  -3952677.00148  22277212.506    22277213.7824   22277219.6394
      1624.689        1265.991
   4227963.499 9   3287136.52746  23321308.406    23321309.9324   23321317.9614
     -2280.627       -1777.112
  -7379492.747 9  -5733291.54848  20237157.706    20237158.7764   20237165.4644
      2422.453        1887.626
  -4189195.674 9  -3255581.28346  23132842.707    23132843.0934   23132849.6814
       938.187         731.055
 97  5 12 16  8 59.9980000  0  6  2 27 26 19  7 15                  -0.001344722
  -2861096.816 9  -2219927.28148  20636305.075    20636305.5914   20636311.6284
       808.871         630.289
   -266195.095 9   -202919.70948  20168918.777    20168919.6524   20168925.7824
      -675.864        -526.647
  -5789218.116 9  -3990422.47948  22267994.532    22267995.9214   22268001.7934
      1604.346        1250.140
   4296516.091 9   3340554.04446  23334353.895    23334355.1794   23334363.1804
     -2289.714       -1784.193
  -7451900.404 9  -5789713.07848  20223378.984    20223380.0544   20223386.7374
      2404.691        1873.785
  -4217029.922 9  -3277270.32546  23127545.944    23127546.4284   23127552.9904
       917.208         714.707
 97  5 12 16  9 29.9980000  0  6  2 27 26 19  7 15                  -0.001361647
  -2885310.255 9  -2238794.89448  20631697.398    20631697.9414   20631703.9614
       804.315         626.739
   -245704.397 9   -186952.95248  20172818.086    20172818.9364   20172825.0624
      -691.199        -538.597
  -5837094.315 9  -4027728.63048  22258884.048    22258885.3754   22258891.2904
      1586.481        1236.219
   4365286.897 9   3394141.48246  23347440.452    23347441.9304   23347449.9114
     -2296.045       -1789.126
  -7523831.315 9  -5845763.11648  20209691.000    20209692.0624   20209698.7394
      2389.727        1862.125
  -4244282.836 9  -3298506.36846  23122359.464    23122360.2264   23122366.9884
       898.667         700.260
 97  5 12 16  9 59.9980000  0  6  2 27 26 19  7 15                  -0.001378534
  -2909329.775 9  -2257511.40448  20627126.677    20627127.2034   20627133.2144
       797.621         621.523
   -224702.974 9   -170588.22848  20176814.619    20176815.3804   20176821.5464
      -708.147        -551.803
  -5884383.795 9  -4064577.58748  22249885.217    22249886.5534   22249892.4654
      1566.948        1220.998
   4434292.310 9   3447911.82746  23360571.830    23360573.3024   23360581.2064
     -2303.432       -1794.882
  -7595264.789 9  -5901425.54448  20196097.632    20196098.6894   20196105.3624
      2373.248        1849.284
  -4270930.253 9  -3319270.62047  23117288.817    23117289.4634   23117296.2334
       878.527         684.566
 97  5 12 16 10 29.9980000  0  6  2 27 26 19  7 15                  -0.001395419
  -2933190.781 9  -2276104.39748  20622586.127    20622586.5994   20622592.6044
       792.938         617.874
   -203240.649 9   -153864.36248  20180898.789    20180899.5544   20180905.7404
      -722.724        -563.162
  -5931127.032 9  -4101000.88748  22240990.039    22240991.5714   22240997.5754
      1549.205        1207.173
   4503474.695 9   3501820.14946  23373736.754    23373738.3494   23373746.1754
     -2308.964       -1799.193
  -7666234.399 9  -5956726.51448  20182592.573    20182593.6054   20182600.2564
      2357.677        1837.151
  -4297014.292 9  -3339595.85646  23112325.480    23112325.8924   23112332.6444
       860.170         670.262
 97  5 12 16 10 59.9980000  0  6  2 27 26 19  7 15                  -0.001412303
  -2956912.360 9  -2294588.74848  20618072.053    20618072.5474   20618078.5514
       787.350         613.519
   -181347.095 9   -136804.47548  20185065.047    20185065.7654   20185071.9794
      -737.902        -574.989
  -5977341.066 9  -4137011.83148  22232196.313    22232197.3494   22232203.3524
      1530.902        1192.911
   4572828.850 9   3555862.33346  23386934.510    23386936.0324   23386944.0134
     -2315.569       -1804.339
  -7736737.091 9  -6011663.65648  20169176.296    20169177.3554   20169183.9924
      2341.682        1824.687
  -4322548.697 9  -3359492.79446  23107466.137    23107466.6294   23107473.5974
       841.053         655.366
 97  5 12 16 11 29.9980000  0  6  2 27 26 19  7 15                  -0.001429188
  -2980448.015 9  -2312928.22448  20613593.317    20613593.8914   20613599.9014
       782.093         609.423
   -158992.459 9   -119385.30248  20189318.965    20189319.7334   20189325.9434
      -752.050        -586.013
  -6023013.206 9  -4172600.52848  22223504.880    22223506.2274   22223512.2554
      1514.341        1180.006
   4642381.107 9   3610058.81146  23400170.225    23400171.5064   23400179.3524
     -2320.938       -1808.523
  -7806761.464 9  -6066228.07748  20155851.119    20155852.2054   20155858.7914
      2326.900        1813.169
  -4347505.684 9  -3378939.79646  23102717.174    23102717.3724   23102724.5104
       823.059         641.345
 97  5 12 16 11 59.9980000  0  6  2 27 26 19  7 15                  -0.001446092
  -3003820.356 9  -2331140.44248  20609145.684    20609146.3074   20609152.3054
       776.251         604.871
   -136196.575 9   -101622.30248  20193656.954    20193657.6674   20193663.8804
      -767.517        -598.065
  -6068174.539 9  -4207791.18648  22214911.028    22214912.2954   22214918.3724
      1496.572        1166.160
   4712110.798 8   3664393.61546  23413439.245    23413440.6564   23413448.5404
     -2327.490       -1813.629
  -7876326.207 9  -6120434.34648  20142613.421    20142614.4884   20142621.0514
      2310.910        1800.709
  -4371910.090 9  -3397956.22446  23098073.012    23098073.3204   23098080.6084
       804.017         626.507
 97  5 12 16 12 29.9980000  0  6  2 27 26 19  7 15                  -0.001463010
  -3027041.459 9  -2349234.81948  20604726.953    20604727.4604   20604733.4684
       772.176         601.696
   -112955.837 9    -83512.66348  20198079.603    20198080.2714   20198086.4804
      -781.680        -609.101
  -6112826.244 9  -4242584.73248  22206414.271    22206415.3144   22206421.4354
      1480.519        1153.651
   4782020.210 9   3718868.36046  23426742.757    23426743.9964   23426751.9204
     -2332.778       -1817.749
  -7945430.755 9  -6174282.02548  20129463.271    20129464.3404   20129470.9004
      2296.501        1789.481
  -4395760.954 9  -3416541.30047  23093534.666    23093534.8084   23093542.0724
       786.336         612.729
 97  5 12 16 12 59.9980000  0  6  2 27 26 19  7 15                  -0.001479941
  -3050112.041 9  -2367211.90248  20600336.770    20600337.2754   20600343.2854
       765.829         596.750
    -89250.424 9    -65040.93748  20202590.481    20202591.2614   20202597.5154
      -798.801        -622.442
  -6156963.104 9  -4276977.10948  22198015.662    22198016.4064   22198022.4474
      1461.701        1138.988
   4852106.389 9   3773480.86446  23440079.784    23440081.0284   23440088.9784
     -2339.647       -1823.101
  -8014091.412 9  -6227783.81148  20116397.560    20116398.6634   20116405.1934
      2280.896        1777.322
  -4419054.495 9  -3434692.09847  23089102.214    23089102.2924   23089109.7644
       766.436         597.223
 97  5 12 16 13 29.9980000  0  6  2 27 26 19  7 15                  -0.001496882
  -3073034.391 9  -2385073.48448  20595974.776    20595975.2784   20595981.3044
       761.304         593.224
    -65065.901 9    -46195.88448  20207192.585    20207193.4664   20207199.7174
      -814.732        -634.856
  -6200561.952 9  -4310950.24548  22189718.999    22189719.8884   22189725.9184
      1443.743        1124.995
   4922348.356 9   3828214.87946  23453446.565    23453447.6934   23453455.6744
     -2344.385       -1826.793
  -8082321.287 9  -6280949.92848  20103413.907    20103414.9594   20103421.4644
      2266.477        1766.086
  -4441788.559 9  -3452406.95646  23084775.587    23084776.0204   23084783.6134
       747.915         582.791
 97  5 12 16 13 59.9980000  0  6  2 27 26 19  7 15                  -0.001513823
  -3095828.992 9  -2402835.51648  20591637.139    20591637.6044   20591643.6274
       758.061         590.697
    -40393.444 9    -26970.62148  20211887.575    20211888.5264   20211894.7554
      -830.102        -646.833
  -6243619.070 9  -4344501.25248  22181525.266    22181526.4334   22181532.4304
      1426.719        1111.729
   4992740.092 9   3883065.64946  23466841.548    23466842.8194   23466850.7734
     -2348.589       -1830.069
  -8150109.100 9  -6333771.57348  20090514.391    20090515.3884   20090521.8734
      2252.572        1755.251
  -4463961.777 9  -3469684.76346  23080556.294    23080556.5174   23080564.0204
       730.046         568.867
 97  5 12 16 14 29.9980000  0  6  2 27 26 19  7 15                  -0.001530795
  -3118532.070 9  -2420526.23448  20587316.819    20587317.3874   20587323.3794
       754.127         587.631
    -15282.725 9     -7403.85948  20216666.022    20216666.9964   20216673.1904
      -845.291        -658.668
  -6286187.600 9  -4377671.54848  22173424.787    22173425.9284   22173431.9364
      1409.871        1098.601
   5063239.923 9   3938000.62346  23480256.818    23480258.5514   23480266.4414
     -2352.823       -1833.369
  -8217498.044 9  -6386282.41748  20077690.618    20077691.7254   20077698.1914
      2238.722        1744.459
  -4485610.010 9  -3486553.51946  23076436.627    23076437.0284   23076444.2884
       711.743         554.605
 97  5 12 16 14 59.9980000  0  6  2 27 26 19  7 15                  -0.001547785
  -3141111.354 9  -2438120.49348  20583020.115    20583020.7144   20583026.6934
       750.165         584.544
     10284.639 9     12518.72748  20221531.538    20221532.3594   20221538.5204
      -860.073        -670.187
  -6328248.505 9  -4410446.28848  22165420.885    22165422.0404   22165427.9584
      1393.247        1085.647
   5133871.098 9   3993037.86246  23493697.650    23493699.2714   23493707.2534
     -2357.187       -1836.769
  -8284469.987 9  -6438468.32248  20064946.264    20064947.3884   20064953.8344
      2225.049        1733.804
  -4506706.429 9  -3502992.24346  23072422.316    23072422.7344   23072429.4574
       693.599         540.467
 97  5 12 16 15 29.9980000  0  6  2 27 26 19  7 15                  -0.001564780
  -3163533.441 9  -2455592.25748  20578753.449    20578753.9964   20578759.9384
       745.413         580.841
     36321.766 9     32807.35948  20226486.290    20226487.1134   20226493.2404
      -874.756        -681.628
  -6369792.585 9  -4442818.31248  22157515.442    22157516.4454   22157522.4444
      1377.437        1073.328
   5204682.848 9   4048215.78646  23507172.504    23507174.3294   23507182.2964
     -2362.834       -1841.169
  -8350994.023 9  -6490305.21348  20052287.138    20052288.2744   20052294.7314
      2210.716        1722.636
  -4527222.878 9  -3518979.04747  23068518.065    23068518.6484   23068525.2284
       675.034         526.000
 97  5 12 16 15 59.9980000  0  6  2 27 26 19  7 15                  -0.001581818
  -3185823.459 9  -2472961.10848  20574511.778    20574512.3444   20574518.2924
       740.598         577.089
     62772.177 9     53418.03448  20231519.527    20231520.5044   20231526.6194
      -888.298        -692.180
  -6410892.159 9  -4474843.96948  22149694.278    22149695.4704   22149701.5004
      1362.363        1061.582
   5275658.948 9   4103521.76446  23520679.062    23520680.6244   23520688.6744
     -2368.800       -1845.818
  -8417102.878 9  -6541818.58248  20039707.069    20039708.1724   20039714.6074
      2196.706        1711.719
  -4547200.229 9  -3534545.80146  23064716.717    23064717.0624   23064723.8564
       656.898         511.869
 97  5 12 16 16 29.9980000  0  6  2 27 26 19  7 15                  -0.001598882
  -3207953.095 9  -2490204.99548  20570300.699    20570301.2384   20570307.1404
       734.346         572.218
     89620.783 9     74338.99048  20236628.822    20236629.6764   20236635.7834
      -902.229        -703.036
  -6451512.547 9  -4506496.23248  22141964.380    22141965.6604   22141971.6944
      1344.929        1047.997
   5346815.467 9   4158968.33146  23534219.825    23534221.3094   23534229.2844
     -2375.332       -1850.908
  -8482786.825 9  -6593000.85548  20027207.733    20027208.9144   20027215.3834
      2181.730        1700.049
  -4566627.045 9  -3549683.60547  23061019.479    23061020.0594   23061027.2074
       637.795         496.983
 97  5 12 16 16 59.9980000  0  6  2 27 26 19  7 15                  -0.001615930
  -3229884.491 9  -2507294.40448  20566127.270    20566127.8714   20566133.7534
       728.406         567.589
    116899.202 9     95594.86548  20241819.842    20241820.6344   20241826.7314
      -915.713        -713.543
  -6491582.099 9  -4537719.26248  22134339.153    22134340.7374   22134346.7724
      1326.947        1033.985
   5418183.636 8   4214579.86246  23547801.161    23547802.3824   23547810.2134
     -2381.857       -1855.992
  -8548004.830 9  -6643820.05348  20014797.199    20014798.3164   20014804.8034
      2166.679        1688.321
  -4585471.762 9  -3564367.79746  23057433.531    23057433.9994   23057441.4074
       619.090         482.408
 97  5 12 16 17 29.9980000  0  6  2 27 26 19  7 15                  -0.001632985
  -3251661.899 9  -2524263.82048  20561983.145    20561983.7914   20561989.6434
       722.417         562.922
    144560.645 9    117149.20148  20247083.595    20247084.4494   20247090.5424
      -929.460        -724.255
  -6531128.857 9  -4568534.94048  22126813.726    22126815.2734   22126821.2744
      1308.464        1019.582
   5489718.190 9   4270321.13846  23561413.509    23561414.9784   23561422.8864
     -2387.950       -1860.740
  -8612787.211 9  -6694299.80848  20002469.514    20002470.6164   20002477.1104
      2150.988        1676.095
  -4603776.391 9  -3578631.13346  23053949.868    23053950.6544   23053957.9754
       600.177         467.670
 97  5 12 16 17 59.9980000  0  6  2 27 26 19  7 15                  -0.001650033
  -3273282.013 9  -2541110.66948  20557869.024    20557869.6364   20557875.4494
       720.268         561.248
    172621.973 9    139015.14048  20252423.452    20252424.3354   20252430.4634
      -940.271        -732.679
  -6570119.882 9  -4598917.57248  22119394.511    22119395.5624   22119401.5484
      1292.152        1006.872
   5561405.065 9   4326181.06246  23575055.119    23575056.5324   23575064.4264
     -2389.889       -1862.251
  -8677106.820 9  -6744418.96048  19990229.873    19990230.9894   19990237.4934
      2138.352        1666.248
  -4621528.370 9  -3592463.82046  23050571.700    23050572.6514   23050579.5784
       584.531         455.479
 97  5 12 16 18 29.9980000  0  6  2 27 26 19  7 15                  -0.001667080
  -3294763.897 9  -2557849.80248  20553781.164    20553781.7454   20553787.5904
       712.409         555.124
    201099.872 9    161205.68548  20257842.574    20257843.5114   20257849.6664
      -958.069        -746.547
  -6608547.854 9  -4628861.46248  22112081.765    22112082.9984   22112088.9844
      1270.504         990.003
   5633211.452 9   4382134.06546  23588719.699    23588720.9134   23588728.7654
     -2396.864       -1867.686
  -8740979.816 9  -6794190.09948  19978075.307    19978076.3594   19978082.8464
      2120.189        1652.095
  -4638739.090 9  -3605874.74046  23047296.946    23047297.6944   23047304.3094
       563.273         438.914
 97  5 12 16 18 59.9980000  0  6  2 27 26 19  7 15                  -0.001684126
  -3316087.970 9  -2574465.97448  20549723.304    20549723.9214   20549729.7624
       709.137         552.574
    230055.734 9    183768.66648  20263352.721    20263353.6374   20263359.8294
      -972.501        -757.793
  -6646418.908 9  -4658371.39648  22104875.512    22104876.4264   22104882.3844
      1254.424         977.473
   5705165.416 9   4438202.05646  23602412.452    23602413.3464   23602421.2694
     -2400.144       -1870.242
  -8804372.921 9  -6843587.30048  19966011.960    19966012.9884   19966019.4804
      2105.961        1641.009
  -4655378.435 9  -3618840.45646  23044130.745    23044131.1584   23044137.9394
       545.947         425.413
 97  5 12 16 19 29.9980000  0  6  2 27 26 19  7 15                  -0.001701188
  -3337258.645 9  -2590962.61448  20545694.742    20545695.2554   20545701.0984
       704.779         549.178
    259517.659 9    206725.97648  20268959.239    20268960.0734   20268966.2754
      -989.027        -770.670
  -6683763.816 9  -4687471.33848  22097769.064    22097769.9074   22097775.9104
      1237.779         964.503
   5777273.635 9   4494390.24646  23616134.034    23616135.1224   23616142.9964
     -2404.569       -1873.690
  -8867276.252 9  -6892602.86348  19954041.934    19954042.8484   19954049.3384
      2090.071        1628.627
  -4671439.330 9  -3631355.42847  23041074.344    23041074.9044   23041081.9494
       527.309         410.890
 97  5 12 16 19 59.9980000  0  6  2 27 26 19  7 15                  -0.001718282
  -3358312.322 9  -2607368.08448  20541688.431    20541688.8734   20541694.7104
       699.437         545.016
    289462.515 9    230059.60548  20274657.532    20274658.3844   20274664.6204
     -1006.539        -784.316
  -6720619.043 9  -4716189.71848  22090755.889    22090756.6564   22090762.5304
      1220.014         950.660
   5849509.115 8   4550677.58646  23629880.209    23629881.0454   23629888.9884
     -2410.377       -1878.216
  -8929715.285 9  -6941256.62948  19942160.078    19942161.0624   19942167.5614
      2073.356        1615.602
  -4686952.824 9  -3643443.84647  23038122.368    23038122.8964   23038130.0044
       507.611         395.541
 97  5 12 16 20 29.9980000  0  6  2 27 26 19  7 15                  -0.001735405
  -3379234.876 9  -2623671.38148  20537706.923    20537707.4474   20537713.3134
       695.868         542.235
    319891.584 9    253770.53848  20280447.920    20280448.8804   20280455.0924
     -1021.399        -795.895
  -6756986.190 9  -4744527.77048  22083835.254    22083836.2334   22083842.1424
      1204.989         938.952
   5921893.635 8   4607081.02246  23643654.572    23643655.3574   23643663.2264
     -2414.829       -1881.685
  -8991688.307 9  -6989547.27448  19930367.129    19930368.0074   19930374.4924
      2058.538        1604.056
  -4701907.516 9  -3655096.86847  23035277.084    23035277.3654   23035284.6114
       489.779         381.646
 97  5 12 16 20 59.9980000  0  6  2 27 26 19  7 15                  -0.001752558
  -3400034.326 9  -2639878.74648  20533748.838    20533749.4494   20533755.3294
       690.614         538.141
    350773.106 9    277834.03148  20286324.674    20286325.4594   20286331.6864
     -1037.201        -808.209
  -6792877.161 9  -4772494.77048  22077005.072    22077006.4284   22077012.3384
      1187.660         925.449
   5994437.259 9   4663608.40746  23657459.078    23657460.0914   23657468.0094
     -2421.317       -1886.741
  -9053190.914 9  -7037471.35948  19918663.608    19918664.4984   19918670.9494
      2041.734        1590.962
  -4716305.513 9  -3666316.07046  23032537.138    23032537.5404   23032544.6744
       470.090         366.304
 97  5 12 16 21 29.9980000  0  6  2 27 26 19  7 15                  -0.001769727
  -3420698.250 9  -2655980.50748  20529816.759    20529817.2654   20529823.1494
       686.840         535.200
    382086.671 9    302234.18248  20292283.480    20292284.2434   20292290.4964
     -1050.298        -818.414
  -6828272.205 9  -4800075.35548  22070269.773    22070271.0004   22070276.8744
      1171.765         913.064
   6067144.179 8   4720263.02046  23671294.767    23671295.8834   23671303.8244
     -2425.811       -1890.242
  -9114220.025 9  -7085026.49048  19907050.086    19907051.0394   19907057.4774
      2026.884        1579.390
  -4730138.400 9  -3677094.92546  23029905.003    23029905.3124   23029912.0674
       452.057         352.252
 97  5 12 16 21 59.9980000  0  6  2 27 26 19  7 15                  -0.001786911
  -3441228.155 9  -2671977.83748  20525910.041    20525910.5724   20525916.4524
       681.804         531.276
    413792.898 9    326940.30648  20298317.029    20298317.7754   20298324.0164
     -1063.409        -828.630
  -6863165.690 9  -4827265.09248  22063629.490    22063631.0144   22063636.8654
      1154.734         899.793
   6140001.747 8   4777035.06246  23685159.263    23685160.3094   23685168.2134
     -2431.107       -1894.369
  -9174802.146 9  -7132233.31248  19895521.663    19895522.6634   19895529.0784
      2012.233        1567.974
  -4743413.765 9  -3687439.36846  23027378.762    23027378.9364   23027385.7134
       433.134         337.507
 97  5 12 16 22 29.9980000  0  6  2 27 26 19  7 15                  -0.001804094
  -3461582.958 9  -2687838.72848  20522036.676    20522037.1944   20522043.0724
       676.834         527.403
    445912.315 9    351968.39848  20304429.077    20304429.9164   20304436.1524
     -1076.319        -838.690
  -6897536.352 9  -4854047.43848  22057089.420    22057090.4964   22057096.3654
      1138.239         886.939
   6213034.127 9   4833943.32846  23699057.041    23699057.9204   23699065.8104
     -2435.900       -1898.104
  -9234932.614 9  -7179088.20048  19884079.128    19884080.2304   19884086.5984
      1998.038        1556.913
  -4756104.774 9  -3697328.45046  23024963.486    23024963.7344   23024970.5834
       414.616         323.077
 97  5 12 16 22 59.9980000  0  6  2 27 26 19  7 15                  -0.001821307
  -3481807.627 9  -2703598.21748  20518188.135    20518188.5584   20518194.4244
       671.775         523.461
    478404.556 9    377286.99648  20310612.319    20310612.9974   20310619.2264
     -1089.568        -849.014
  -6931422.502 9  -4880452.24848  22050641.116    22050642.1924   22050648.0804
      1121.147         873.621
   6286187.357 8   4890945.81746  23712977.920    23712978.5534   23712986.5074
     -2440.486       -1901.677
  -9294660.916 9  -7225629.70748  19872713.243    19872714.3204   19872720.6864
      1984.099        1546.051
  -4768261.474 9  -3706801.20946  23022650.132    23022650.2874   23022657.2054
       396.153         308.691
 97  5 12 16 23 29.9980000  0  6  2 27 26 19  7 15                  -0.001838527
  -3501867.893 9  -2719229.58748  20514370.792    20514371.2354   20514377.0914
       665.270         518.392
    511314.474 9    402931.06648  20316874.935    20316875.5664   20316881.7844
     -1104.884        -860.949
  -6964781.640 9  -4906446.40048  22044292.904    22044294.1504   22044300.0674
      1102.299         858.934
   6359484.094 8   4948060.10946  23726925.862    23726926.5314   23726934.5554
     -2446.344       -1906.242
  -9353960.365 9  -7271837.04048  19861428.946    19861430.0374   19861436.3894
      1968.744        1534.086
  -4779852.560 9  -3715833.21546  23020444.333    23020444.6404   23020451.6334
       376.086         293.054
 97  5 12 16 23 59.9980000  0  6  2 27 26 19  7 15                  -0.001855749
  -3521779.480 9  -2734745.10948  20510581.701    20510582.2264   20510588.0574
       661.237         515.250
    544648.203 9    428905.36848  20323218.090    20323218.7844   20323225.0084
     -1118.421        -871.497
  -6997614.355 9  -4932030.34448  22038045.237    22038046.3204   22038052.2334
      1085.709         846.007
   6432911.281 8   5005276.00746  23740898.910    23740899.2584   23740907.2504
     -2449.691       -1908.850
  -9412837.308 9  -7317715.15748  19850225.022    19850226.1424   19850232.4654
      1955.395        1523.684
  -4790885.386 9  -3724430.22447  23018345.083    23018345.2734   23018352.3544
       358.480         279.335
 97  5 12 16 24 29.9980000  0  6  2 27 26 19  7 15                  -0.001872955
  -3541507.197 9  -2750117.35448  20506827.807    20506828.2154   20506834.0254
       654.856         510.277
    578469.823 9    455259.85248  20329654.195    20329654.8374   20329661.0774
     -1135.683        -884.948
  -7029881.867 9  -4957173.88048  22031905.300    22031906.0514   22031911.9894
      1066.216         830.818
   6506503.775 8   5062620.69246  23754902.960    23754903.5034   23754911.6544
     -2455.590       -1913.447
  -9471233.634 9  -7363218.76348  19839112.663    19839113.6674   19839119.9854
      1938.269        1510.339
  -4801320.940 9  -3732561.82846  23016359.428    23016359.5414   23016366.6494
       337.950         263.338
 97  5 12 16 24 59.9980000  0  6  2 27 26 19  7 15                  -0.001890172
  -3561109.800 9  -2765392.11048  20503097.489    20503097.9844   20503103.7934
       649.794         506.333
    612750.131 9    481971.75048  20336177.592    20336178.1724   20336184.4304
     -1151.904        -897.588
  -7061625.338 9  -4981909.07148  22025864.647    22025865.4594   22025871.4444
      1047.953         816.587
   6580210.185 8   5120054.12646  23768929.092    23768929.5074   23768937.5674
     -2460.343       -1917.150
  -9529170.534 9  -7408364.37348  19828087.614    19828088.6204   19828094.9294
      1922.027        1497.683
  -4811201.511 9  -3740260.96846  23014479.241    23014479.3174   23014486.3264
       318.557         248.226
 97  5 12 16 25 29.9980000  0  6  2 27 26 19  7 15                  -0.001907385
  -3580549.962 9  -2780540.28648  20499398.185    20499398.6534   20499404.4874
       646.039         503.407
    647534.020 9    509076.05348  20342796.880    20342797.3474   20342803.6344
     -1167.070        -909.405
  -7092818.480 9  -5006215.43448  22019928.716    22019929.6354   22019935.6114
      1031.393         803.683
   6654062.588 8   5177601.30246  23782982.064    23782983.2424   23782991.2654
     -2463.363       -1919.504
  -9586610.951 9  -7453123.11448  19817157.080    19817158.0314   19817164.3244
      1907.223        1486.148
  -4820486.116 9  -3747495.74646  23012711.917    23012712.2424   23012719.5594
       300.250         233.961
 97  5 12 16 25 59.9980000  0  6  2 27 26 19  7 15                  -0.001924603
  -3599852.547 9  -2795581.26348  20495724.944    20495725.4934   20495731.3264
       639.769         498.521
    682796.095 9    536552.96148  20349507.097    20349507.4904   20349513.7904
     -1184.608        -923.071
  -7123491.118 9  -5030116.20548  22014091.908    22014092.8214   22014098.7994
      1012.497         788.959
   6728039.524 8   5235245.56046  23797059.969    23797060.6604   23797068.5634
     -2469.370       -1924.184
  -9643580.925 9  -7497515.27848  19806316.001    19806316.9484   19806323.2234
      1889.839        1472.602
  -4829201.048 9  -3754286.61646  23011053.116    23011053.6924   23011061.0304
       279.781         218.011
 97  5 12 16 26 29.9980000  0  6  2 27 26 19  7 15                  -0.001941853
  -3619038.365 9  -2810531.24848  20492074.134    20492074.5494   20492080.4024
       636.879         496.269
    718501.754 9    564375.53248  20356301.624    20356302.0764   20356308.3654
     -1198.023        -933.524
  -7153674.562 9  -5053635.79548  22008348.301    22008349.0394   22008355.0334
       997.308         777.123
   6802114.322 9   5292966.09646  23811155.584    23811156.4974   23811164.6714
     -2471.523       -1925.862
  -9700112.527 9  -7541565.84948  19795558.321    19795559.3154   19795565.5614
      1876.487        1462.198
  -4837382.399 9  -3760661.68847  23009496.541    23009497.0324   23009504.2194
       263.183         205.078
 97  5 12 16 26 59.9980000  0  6  2 27 26 19  7 15                  -0.001959097
  -3638051.686 9  -2825346.82548  20488456.040    20488456.4384   20488462.3124
       632.225         492.643
    754676.099 9    592563.30448  20363185.268    20363185.8314   20363192.1054
     -1211.894        -944.333
  -7183321.004 9  -5076736.94548  22002706.881    22002707.5384   22002713.5694
       980.649         764.142
   6876347.381 8   5350809.92345  23825282.149    23825282.7004   23825290.8944
     -2475.822       -1929.212
  -9756171.288 9  -7585247.97748  19784890.671    19784891.7004   19784897.9314
      1862.367        1451.195
  -4844985.178 9  -3766585.94647  23008050.077    23008050.4414   23008057.5804
       245.172         191.043
 97  5 12 16 27 29.9980000  0  6  2 27 26 19  7 15                  -0.001976326
  -3656879.765 9  -2840018.05648  20484873.228    20484873.5854   20484879.4764
       625.760         487.605
    791305.952 9    621106.01948  20370155.690    20370156.2524   20370162.5334
     -1227.222        -956.277
  -7212416.992 9  -5099409.16148  21997169.617    21997170.8064   21997176.8464
       961.724         749.395
   6950758.213 8   5408792.25846  23839441.975    23839442.6274   23839451.0364
     -2482.285       -1934.248
  -9811762.022 9  -7628565.40748  19774312.223    19774313.1304   19774319.3624
      1846.272        1438.654
  -4851998.950 9  -3772051.24146  23006715.272    23006715.7524   23006722.9404
       225.108         175.409
 97  5 12 16 27 59.9980000  0  6  2 27 26 19  7 15                  -0.001993516
  -3675503.646 9  -2854530.17248  20481329.100    20481329.6084   20481335.4774
       616.714         480.556
    828400.488 9    650010.83148  20377214.470    20377215.1224   20377221.4084
     -1244.830        -969.997
  -7240932.212 9  -5121628.82248  21991743.143    21991744.4804   21991750.5704
       940.294         732.697
   7025383.418 8   5466941.65446  23853642.708    23853643.3464   23853651.7504
     -2491.500       -1941.428
  -9866850.274 9  -7671491.29048  19763829.300    19763830.1574   19763836.3774
      1827.242        1423.825
  -4858400.833 9  -3777039.74046  23005497.151    23005497.5554   23005504.6824
       202.630         157.894
 97  5 12 16 28 29.9980000  0  6  2 27 26 19  7 15                  -0.002010684
  -3693931.058 9  -2868889.19948  20477822.572    20477822.9884   20477828.8514
       610.648         475.830
    865937.047 9    679260.07348  20384357.679    20384358.1364   20384364.4104
     -1258.885        -980.949
  -7268884.396 9  -5143409.76048  21986423.745    21986425.3374   21986431.4304
       922.033         718.467
   7100192.321 8   5525234.19845  23867878.623    23867879.1934   23867887.5484
     -2497.008       -1945.721
  -9921451.421 9  -7714037.61048  19753438.967    19753439.8704   19753446.0754
      1811.619        1411.651
  -4864207.390 9  -3781564.32546  23004392.192    23004392.5014   23004399.6204
       183.195         142.749
 97  5 12 16 28 59.9970000  0  6  2 27 26 19  7 15                  -0.002027845
  -3712186.938 9  -2883114.56248  20474348.684    20474349.0014   20474354.9034
       605.486         471.807
    903893.696 9    708836.66048  20391580.596    20391581.1044   20391587.3674
     -1272.647        -991.673
  -7296299.240 9  -5164771.99948  21981206.899    21981208.4954   21981214.5964
       904.693         704.956
   7175162.318 9   5583652.24845  23882144.339    23882145.5094   23882153.9934
     -2501.878       -1949.515
  -9975583.466 9  -7756218.40248  19743137.983    19743138.8394   19743145.0604
      1796.270        1399.691
  -4869433.990 9  -3785636.99946  23003397.585    23003397.9024   23003404.9274
       164.258         127.993
 97  5 12 16 29 29.9970000  0  6  2 27 26 19  7 15                  -0.002045015
  -3730286.467 9  -2897218.10148  20470904.432    20470904.8134   20470910.6994
       600.224         467.707
    942265.379 9    738736.65048  20398882.347    20398883.0184   20398889.2714
     -1286.450       -1002.429
  -7323195.263 9  -5185729.94748  21976088.838    21976090.3504   21976096.4824
       887.461         691.528
   7250266.539 9   5642174.92846  23896436.112    23896437.5294   23896445.9114
     -2505.926       -1952.670
 -10029252.425 9  -7798038.35148  19732925.129    19732925.9764   19732932.1914
      1780.812        1387.646
  -4874092.940 9  -3789267.33146  23002511.018    23002511.4484   23002518.2724
       145.422         113.316
 97  5 12 16 29 59.9970000  0  7  4  2 27 26 19  7 15               -0.002062151
  -1781200.41718  -1058726.82955  24481960.640    24481962.0855   24481970.6165
      4292.077        3344.476
  -3748144.784 9  -2911133.67348  20467506.157    20467506.5234   20467512.3714
       592.554         461.730
    981133.137 9    769023.18848  20406278.575    20406279.3404   20406285.5964
     -1302.562       -1014.983
  -7349495.262 9  -5206223.47448  21971084.225    21971085.6424   21971091.8174
       868.045         676.399
   7325569.019 8   5700852.12245  23910766.480    23910767.2914   23910775.6294
     -2511.866       -1957.298
 -10082382.459 9  -7839438.35548  19722814.801    19722815.6514   19722821.8774
      1763.577        1374.216
  -4878113.033 9  -3792399.87946  23001745.830    23001746.5364   23001753.3564
       124.770          97.223
 97  5 12 16 30 29.9970000  0  7  4  2 27 26 19  7 15               -0.002079274
  -1909995.584 8  -1159086.65745  24457452.168    24457453.1164   24457461.5624
      4293.191        3345.344
  -3765809.202 9  -2924898.16248  20464144.622    20464145.1444   20464150.9724
       584.149         455.181
   1020447.565 9    799657.78048  20413759.980    20413760.6694   20413766.9324
     -1319.539       -1028.212
  -7375240.339 9  -5226284.57948  21966185.451    21966186.4674   21966192.6634
       847.306         660.238
   7401017.424 8   5759643.02045  23925124.271    23925124.7054   23925133.0624
     -2519.256       -1963.057
 -10135033.696 9  -7880465.27348  19712795.585    19712796.4594   19712802.7104
      1745.458        1360.097
  -4881541.237 9  -3795071.21646  23001093.793    23001094.1384   23001101.1774
       102.673          80.005
 97  5 12 16 30 59.9970000  0  7  4  2 27 26 19  7 15               -0.002096323
  -2038828.168 8  -1259475.63945  24432936.222    24432937.0294   24432945.4734
      4296.052        3347.573
  -3783239.035 9  -2938479.85348  20460827.805    20460828.3864   20460834.2014
       578.028         450.411
   1060267.067 9    830685.94648  20421337.426    20421338.0774   20421344.3704
     -1334.804       -1040.107
  -7400379.366 9  -5245873.44648  21961401.838    21961402.6734   21961408.8734
       828.718         645.754
   7476680.810 8   5818601.46645  23939522.227    23939522.9444   23939531.4824
     -2524.605       -1967.225
 -10187154.651 9  -7921078.97548  19702877.288    19702878.1634   19702884.4414
      1729.441        1347.616
  -4884317.599 9  -3797234.61546  23000565.297    23000565.6554   23000572.7644
        82.651          64.403
 97  5 12 16 31 29.9970000  0  7  4  2 27 26 19  7 15               -0.002113368
  -2167724.067 8  -1359913.98745  24408407.762    24408409.0934   24408417.4224
      4297.003        3348.314
  -3800450.659 9  -2951891.51248  20457552.731    20457553.1504   20457558.9324
       569.428         443.710
   1100575.039 9    862094.73048  20429007.717    20429008.4534   20429014.7724
     -1352.595       -1053.970
  -7424918.900 9  -5264995.17548  21956731.870    21956732.9284   21956739.1504
       807.212         628.996
   7552535.819 8   5877709.23345  23953956.677    23953957.7534   23953966.1914
     -2532.598       -1973.453
 -10238763.585 9  -7961293.70648  19693056.403    19693057.3124   19693063.5904
      1710.965        1333.219
  -4886460.741 9  -3798904.59546  23000157.443    23000157.8084   23000164.7894
        60.120          46.847
 97  5 12 16 31 59.9970000  0  7  4  2 27 26 19  7 15               -0.002130364
  -2296722.001 8  -1460431.82845  24383860.510    24383861.6564   24383869.6494
      4300.745        3351.230
  -3817480.410 9  -2965161.45848  20454311.980    20454312.4984   20454318.2814
       563.655         439.212
   1141359.235 9    893874.59848  20436768.751    20436769.4164   20436775.7904
     -1368.401       -1066.286
  -7448880.761 9  -5283666.77148  21952171.744    21952173.2394   21952179.3994
       788.224         614.201
   7628565.515 8   5936953.04645  23968424.497    23968425.6854   23968434.3774
     -2538.017       -1977.676
 -10289879.670 9  -8001124.40048  19683329.355    19683330.2094   19683336.4894
      1694.606        1320.472
  -4887994.713 9  -3800099.88846  22999865.465    22999866.0114   22999872.9034
        40.011          31.177
 97  5 12 16 32 29.9970000  0  7  4  2 27 26 19  7 15               -0.002147324
  -2425833.339 8  -1561037.99545  24359291.268    24359292.6934   24359300.6644
      4305.626        3355.033
  -3834333.011 9  -2978293.36348  20451105.277    20451105.5634   20451111.3394
       558.715         435.362
   1182615.087 9    926021.98548  20444619.403    20444620.1544   20444626.5494
     -1383.077       -1077.722
  -7472277.884 9  -5301898.30848  21947719.411    21947720.9864   21947727.1104
       770.668         600.521
   7704759.425 8   5996324.83545  23982923.865    23982925.0684   23982933.7124
     -2542.496       -1981.166
 -10340494.456 9  -8040564.47648  19673697.707    19673698.5504   19673704.8334
      1678.669        1308.054
  -4888922.384 9  -3800822.73246  22999689.013    22999689.4894   22999696.3214
        20.772          16.186
 97  5 12 16 32 59.9970000  0  7  4  2 27 26 19  7 15               -0.002164230
  -2555012.260 8  -1661696.85545  24334709.273    24334710.6514   24334718.7844
      4305.819        3355.184
  -3850947.561 9  -2991239.76648  20447943.482    20447943.9234   20447949.7154
       548.410         427.332
   1224403.504 9    958584.36048  20452571.327    20452572.2034   20452578.6474
     -1403.150       -1093.364
  -7495073.290 9  -5319660.96548  21943381.438    21943383.1804   21943389.3314
       748.426         583.189
   7781157.865 8   6055855.99445  23997461.624    23997463.2174   23997471.9254
     -2551.132       -1987.895
 -10390548.334 9  -8079567.47648  19664172.738    19664173.6004   19664179.8914
      1657.626        1291.657
  -4889197.331 9  -3801036.98146  22999636.922    22999637.2074   22999644.0674
        -2.970          -2.314
 97  5 12 16 33 29.9970000  0  7  4  2 27 26 19  7 15               -0.002181140
  -2684329.955 8  -1762463.88045  24310101.345    24310102.2234   24310110.5664
      4313.063        3360.828
  -3867390.299 9  -3004052.30248  20444814.508    20444814.9594   20444820.7484
       545.495         425.061
   1266652.978 9    991506.00048  20460611.085    20460612.0324   20460618.5004
     -1415.768       -1103.196
  -7517339.082 9  -5337010.94648  21939144.320    21939146.1324   21939152.3184
       733.931         571.894
   7857683.132 8   6115485.95245  24012024.641    24012025.5654   24012034.1564
     -2552.673       -1989.096
 -10440096.468 9  -8118176.39248  19654744.031    19654744.8394   19654751.1464
      1643.327        1280.514
  -4888896.476 9  -3800802.54746  22999694.308    22999694.4634   22999701.4194
       -19.399         -15.116
 97  5 12 16 33 59.9970000  0  7  4  2 27 26 19  7 15               -0.002198075
  -2813785.727 8  -1863338.48845  24285466.356    24285467.7634   24285475.9594
      4317.852        3364.560
  -3883659.132 9  -3016729.32548  20441718.748    20441719.0964   20441724.8924
       539.627         420.489
   1309357.920 9   1024782.54948  20468737.565    20468738.5224   20468745.0034
     -1430.426       -1114.618
  -7539097.303 9  -5353965.41848  21935003.827    21935005.6864   21935011.8394
       717.403         559.015
   7934321.958 8   6175204.43945  24026608.473    24026609.5964   24026618.0964
     -2555.859       -1991.578
 -10489138.570 9  -8156391.00148  19645411.649    19645412.4234   19645418.7254
      1626.940        1267.745
  -4888026.216 9  -3800124.44146  22999859.798    22999860.0734   22999867.1574
       -37.973         -29.589
 97  5 12 16 34 29.9970000  0  7  4  2 27 26 19  7 15               -0.002215034
  -2943354.058 8  -1964300.81945  24260810.345    24260811.8874   24260819.9264
      4321.624        3367.499
  -3899720.762 9  -3029244.88748  20438662.249    20438662.6654   20438668.4434
       533.086         415.392
   1352523.685 9   1058418.18848  20476952.032    20476952.7404   20476959.2244
     -1445.532       -1126.389
  -7560334.969 9  -5370514.26848  21930962.866    21930964.2734   21930970.4194
       700.134         545.559
   8011089.931 8   6235023.54945  24041217.016    24041218.1794   24041226.5244
     -2560.219       -1994.976
 -10537662.947 9  -8194202.18048  19636177.769    19636178.5414   19636184.8694
      1609.927        1254.489
  -4886568.625 9  -3798988.65246  23000137.130    23000137.4534   23000144.2524
       -57.446         -44.763
 97  5 12 16 34 59.9970000  0  7  4  2 27 26 19  7 15               -0.002231999
  -3073020.379 8  -2065339.51445  24236135.853    24236137.1144   24236145.2294
      4322.971        3368.549
  -3915588.394 9  -3041609.28648  20435642.754    20435643.1454   20435648.9114
       524.971         409.068
   1396156.251 9   1092417.56348  20485255.088    20485255.7674   20485262.2734
     -1462.845       -1139.879
  -7581041.385 9  -5386649.14648  21927022.547    21927023.9314   21927030.1234
       680.421         530.198
   8087988.262 8   6294944.23045  24055850.203    24055851.3924   24055859.9574
     -2566.233       -1999.662
 -10585676.400 9  -8231615.23748  19627041.165    19627041.8714   19627048.2164
      1591.157        1239.862
  -4884521.020 9  -3797393.12046  23000526.879    23000527.1424   23000533.7694
       -78.880         -61.465
 97  5 12 16 35 29.9970000  0  7  4  2 27 26 19  7 15               -0.002248975
  -3202788.665 8  -2166457.63445  24211441.312    24211442.9574   24211451.2034
      4326.416        3371.233
  -3931275.935 9  -3053833.34848  20432657.577    20432657.9314   20432663.6704
       519.032         404.441
   1440230.771 9   1126761.31648  20493642.301    20493642.8994   20493649.4194
     -1477.257       -1151.109
  -7601222.788 9  -5402374.93048  21923181.972    21923183.5704   21923189.7644
       663.239         516.810
   8165010.281 8   6354961.24845  24070507.384    24070508.3094   24070516.8774
     -2570.272       -2002.809
 -10633192.362 9  -8268640.63848  19617999.167    19617999.9134   19618006.2424
      1575.003        1227.275
  -4881891.120 9  -3795343.86846  23001027.569    23001027.6084   23001034.3804
       -98.260         -76.566
 97  5 12 16 35 59.9970000  0  7  4  2 27 26 19  7 15               -0.002265964
  -3332674.615 8  -2267667.47045  24186725.606    24186726.3964   24186734.5814
      4330.838        3374.679
  -3946799.584 9  -3065929.70748  20429703.493    20429703.8974   20429709.6474
       514.324         400.772
   1484719.359 9   1161427.71948  20502108.151    20502108.7974   20502115.3564
     -1490.400       -1161.351
  -7620897.313 9  -5417705.74148  21919438.172    21919439.6654   21919445.8334
       646.653         503.885
   8242132.008 8   6415055.99945  24085182.895    24085184.0994   24085192.7554
     -2573.151       -2005.053
 -10680257.989 9  -8305315.13348  19609042.829    19609043.5864   19609049.9364
      1561.017        1216.377
  -4878698.809 9  -3792856.37946  23001634.882    23001635.0234   23001642.0474
      -116.326         -90.644
 97  5 12 16 36 29.9970000  0  7  4  2 27 26 19  7 15               -0.002282923
  -3462648.413 8  -2368945.72445  24161991.993    24161993.2534   24162001.3974
      4333.526        3376.774
  -3962152.654 9  -3077893.15248  20426782.099    20426782.3414   20426788.0514
       508.790         396.460
   1529642.199 9   1196432.49848  20510656.766    20510657.3714   20510663.9484
     -1505.022       -1172.744
  -7640023.974 9  -5432609.65148  21915798.788    21915800.0074   21915806.1914
       627.966         489.324
   8319395.422 8   6475261.09945  24099886.565    24099886.9874   24099895.6704
     -2578.205       -2008.991
 -10726867.184 9  -8341633.96548  19600173.418    19600174.1634   19600180.5014
      1545.757        1204.486
  -4874919.050 9  -3789911.12046  23002354.154    23002354.2534   23002361.1074
      -136.108        -106.058
 97  5 12 16 36 59.9970000  0  7  4  2 27 26 19  7 15               -0.002299841
  -3592706.725 8  -2470289.86045  24137242.238    24137243.8924   24137251.9964
      4337.716        3380.038
  -3977341.223 9  -3089728.40848  20423891.761    20423892.0674   20423897.7564
       504.413         393.049
   1575001.489 9   1231777.37848  20519288.487    20519288.9994   20519295.5624
     -1518.131       -1182.959
  -7658598.539 9  -5447083.34648  21912264.608    21912265.3604   21912271.5514
       611.168         476.235
   8396797.319 8   6535574.16245  24114615.518    24114616.2434   24114624.8424
     -2581.395       -2011.477
 -10773029.276 9  -8377604.40448  19591389.033    19591389.8074   19591396.1334
      1532.289        1193.991
  -4870555.569 9  -3786510.99846  23003184.511    23003184.6844   23003191.1294
      -154.074        -120.058
 97  5 12 16 37 29.9970000  0  7  4  2 27 26 19  7 15               -0.002316752
  -3722870.541 8  -2571716.16945  24112473.228    24112474.4704   24112482.4304
      4339.450        3381.390
  -3992377.234 9  -3101444.79148  20421030.449    20421030.8254   20421036.4914
       497.621         387.757
   1620761.969 9   1267434.86948  20527996.380    20527996.9474   20528003.5314
     -1533.207       -1194.707
  -7676655.033 9  -5461153.36548  21908828.360    21908829.3394   21908835.5294
       592.031         461.323
   8474317.147 8   6595979.12145  24129367.215    24129367.7674   24129376.4334
     -2586.995       -2015.840
 -10818770.406 9  -8413246.82248  19582684.731    19582685.5374   19582691.8814
      1516.560        1181.735
  -4865635.946 9  -3782677.52446  23004121.058    23004121.0684   23004127.3194
      -174.404        -135.899
 97  5 12 16 37 59.9970000  0  7  4  2 27 26 19  7 15               -0.002333598
  -3853071.317 8  -2673171.26945  24087696.469    24087698.1634   24087706.1304
      4340.275        3382.032
  -4007202.673 9  -3112997.08748  20418209.166    20418209.6424   20418215.3164
       490.304         382.055
   1666995.398 9   1303460.89648  20536794.331    20536794.8854   20536801.4984
     -1549.376       -1207.306
  -7694113.542 9  -5474757.40548  21905506.074    21905507.1484   21905513.3114
       571.507         445.330
   8552016.454 8   6656523.90445  24144152.974    24144153.4944   24144162.3814
     -2593.238       -2020.705
 -10864022.977 9  -8448508.54948  19574073.501    19574074.2884   19574080.5924
      1499.547        1168.478
  -4860096.930 9  -3778361.47346  23005174.910    23005174.9224   23005181.6414
      -195.356        -152.225
 97  5 12 16 38 29.9970000  0  7  4  2 27 26 19  7 15               -0.002350396
  -3983310.094 8  -2774655.96445  24062912.999    24062914.5244   24062922.5854
      4343.142        3384.266
  -4021814.579 9  -3124382.99948  20415428.603    20415429.0514   20415434.7524
       484.582         377.596
   1713698.123 9   1339852.60948  20545681.425    20545682.1394   20545688.7674
     -1563.382       -1218.220
  -7710977.076 9  -5487897.84048  21902297.142    21902298.1444   21902304.2344
       553.636         431.405
   8629885.409 8   6717200.92145  24158970.785    24158971.6764   24158980.4774
     -2597.043       -2023.670
 -10908762.524 9  -8483370.51848  19565559.891    19565560.6234   19565566.9384
      1483.762        1156.178
  -4853939.274 9  -3773563.32846  23006346.279    23006346.6734   23006353.5244
      -214.297        -166.985
 97  5 12 16 38 59.9970000  0  7  4  2 27 26 19  7 15               -0.002367191
  -4113618.345 8  -2876194.79545  24038116.072    24038117.6284   24038125.7184
      4344.455        3385.290
  -4036234.055 9  -3135618.96248  20412684.600    20412685.1154   20412690.7804
       477.084         371.754
   1760838.342 9   1376585.22648  20554651.827    20554652.6294   20554659.2784
     -1578.934       -1230.338
  -7727298.208 9  -5500615.62048  21899191.409    21899192.4044   21899198.4694
       534.809         416.734
   8707880.172 8   6777975.95745  24173812.491    24173813.6374   24173822.5794
     -2602.445       -2027.879
 -10953004.791 9  -8517844.99448  19557140.884    19557141.5494   19557147.8644
      1466.025        1142.357
  -4847201.443 9  -3768313.05346  23007628.529    23007629.0294   23007635.3914
      -234.638        -182.835
 97  5 12 16 39 29.9970000  0  7  4  2 27 26 19  7 15               -0.002384000
  -4244010.812 8  -2977799.25145  24013302.990    24013304.8514   24013312.9164
      4348.541        3388.474
  -4050473.577 9  -3146714.70048  20409975.031    20409975.4454   20409981.1074
       472.251         367.988
   1808399.262 9   1413645.65448  20563702.401    20563703.2044   20563709.8584
     -1591.753       -1240.327
  -7743097.541 9  -5512926.80648  21896185.135    21896185.9274   21896192.0134
       518.559         404.072
   8786002.896 8   6838850.69745  24188678.934    24188680.0344   24188688.8824
     -2605.552       -2030.300
 -10996755.594 9  -8551936.51748  19548815.306    19548816.0574   19548822.3344
      1450.892        1130.565
  -4839896.054 9  -3762620.53346  23009019.002    23009019.0124   23009025.2644
      -252.394        -196.671
 97  5 12 16 39 59.9970000  0  7  4  2 27 26 19  7 15               -0.002400828
  -4374500.514 8  -3079479.47945  23988472.146    23988473.2904   23988481.5434
      4349.133        3388.935
  -4064532.243 9  -3157669.50448  20407299.704    20407300.1474   20407305.8384
       463.358         361.058
   1856381.864 9   1451034.68448  20572833.231    20572834.0024   20572840.6704
     -1608.659       -1253.501
  -7758384.944 9  -5524839.07948  21893275.900    21893276.8754   21893282.9664
       499.158         388.954
   8864244.971 8   6899818.49845  24203567.398    24203569.1554   24203577.9244
     -2612.145       -2035.438
 -11040024.443 9  -8585652.48648  19540581.479    19540582.2564   19540588.5364
      1432.107        1115.928
  -4832026.127 9  -3756488.16946  23010515.943    23010516.2314   23010522.8884
      -273.857        -213.395
 97  5 12 16 40 29.9970000  0  7  4  2 27 26 19  7 15               -0.002417671
  -4505074.609 9  -3181225.47445  23963624.319    23963625.8074   23963634.0184
      4354.243        3392.917
  -4078390.607 9  -3168468.23848  20404662.593    20404662.9824   20404668.6974
       459.165         357.791
   1904801.421 9   1488764.18148  20582047.078    20582047.9134   20582054.6184
     -1620.911       -1263.048
  -7773168.653 9  -5536358.87848  21890462.648    21890463.6544   21890469.7464
       484.883         377.831
   8942627.322 8   6960895.54945  24218484.133    24218484.8604   24218493.6494
     -2614.875       -2037.565
 -11082804.863 9  -8618987.86948  19532440.499    19532441.3914   19532447.6344
      1418.600        1105.403
  -4823579.701 9  -3749906.55046  23012123.370    23012123.6614   23012130.4554
      -290.700        -226.519
 97  5 12 16 40 59.9970000  0  7  4  2 27 26 19  7 15               -0.002434528
  -4635753.356 8  -3283053.02945  23938756.409    23938758.3954   23938766.5344
      4356.981        3395.050
  -4092081.745 9  -3179136.66648  20402057.127    20402057.6194   20402063.3494
       452.944         352.943
   1953634.872 9   1526816.19248  20591339.941    20591340.6204   20591347.2894
     -1635.211       -1274.190
  -7787471.345 9  -5547503.84648  21887741.389    21887741.9734   21887748.0294
       467.923         364.615
   9021138.462 8   7022072.98045  24233424.836    24233425.2244   24233433.7914
     -2619.749       -2041.363
 -11125142.105 9  -8651977.91648  19524384.009    19524384.8604   19524391.0894
      1403.261        1093.450
  -4814581.274 9  -3742894.82046  23013835.764    23013836.0474   23013842.9104
      -309.882        -241.466
 97  5 12 16 41 29.9970000  0  7  4  2 27 26 19  7 15               -0.002451373
  -4766506.275 8  -3384938.38045  23913875.382    23913877.0284   23913885.0184
      4359.456        3396.979
  -4105579.579 9  -3189654.45948  20399488.523    20399489.0574   20399494.8084
       446.637         348.029
   2002901.681 9   1565205.90248  20600715.293    20600715.8014   20600722.4514
     -1649.488       -1285.315
  -7801254.060 9  -5558243.63648  21885118.680    21885119.2234   21885125.2834
       450.532         351.064
   9099783.315 8   7083354.67645  24248389.814    24248390.8864   24248399.4374
     -2623.417       -2044.221
 -11167018.870 9  -8684609.14048  19516415.104    19516415.9344   19516422.1644
      1388.187        1081.704
  -4805003.612 9  -3735431.67046  23015658.392    23015658.6984   23015665.0024
      -328.959        -256.332
 97  5 12 16 41 59.9970000  0  7  4  2 27 26 19  7 15               -0.002468207
  -4897340.143 8  -3486886.82245  23888978.498    23888979.9834   23888988.1834
      4362.163        3399.088
  -4118913.171 9  -3200044.27848  20396951.210    20396951.7564   20396957.5274
       441.809         344.267
   2052581.210 9   1603917.19748  20610168.950    20610169.5584   20610176.1844
     -1663.076       -1295.903
  -7814521.583 9  -5568581.97848  21882594.083    21882594.5434   21882600.5974
       433.381         337.699
   9178514.091 8   7144703.35745  24263371.514    24263372.7704   24263380.8654
     -2625.961       -2046.203
 -11208451.203 9  -8716894.06448  19508530.825    19508531.6674   19508537.8754
      1373.282        1070.090
  -4794867.281 9  -3727533.24846  23017587.210    23017587.4734   23017594.0634
      -347.265        -270.596
 97  5 12 16 42 29.9970000  0  7  4  2 27 26 19  7 15               -0.002485012
  -5028221.151 8  -3588871.99945  23864072.466    23864074.0654   23864082.4214
      4362.692        3399.500
  -4132077.354 9  -3210302.08748  20394446.204    20394446.7284   20394452.4914
       435.487         339.341
   2102691.840 9   1642964.41448  20619704.550    20619705.3364   20619711.9264
     -1677.986       -1307.522
  -7827236.093 9  -5578489.40748  21880174.589    21880174.9884   21880181.0934
       414.015         322.609
   9257361.691 8   7206142.99345  24278375.192    24278376.5814   24278385.3984
     -2630.591       -2049.811
 -11249403.526 9  -8748804.95148  19500737.944    19500738.7364   19500744.9394
      1356.524        1057.032
  -4784154.674 9  -3719185.81046  23019625.288    23019625.9434   23019632.8424
      -367.235        -286.157
 97  5 12 16 42 59.9970000  0  7  4  2 27 26 19  7 15               -0.002501788
  -5159137.297 8  -3690884.54745  23839160.591    23839161.4464   23839169.8774
      4363.183        3399.883
  -4145074.257 9  -3220429.55248  20391973.153    20391973.5294   20391979.2964
       428.979         334.269
   2153225.626 9   1682341.35448  20629320.886    20629321.6304   20629328.2224
     -1692.659       -1318.955
  -7839393.992 9  -5587963.12048  21877860.857    21877861.3924   21877867.4904
       394.975         307.773
   9336307.603 8   7267659.25045  24293398.435    24293399.4664   24293408.3884
     -2633.987       -2052.457
 -11289873.863 9  -8780340.26148  19493036.686    19493037.5134   19493043.6844
      1339.647        1043.881
  -4772869.539 9  -3710392.22246  23021772.777    23021773.4714   23021780.4524
      -386.880        -301.465
 97  5 12 16 43 29.9970000  0  7  4  2 27 26 19  7 15               -0.002518601
  -5290071.207 8  -3792910.93945  23814244.404    23814245.7404   23814253.9684
      4363.578        3400.191
  -4157871.516 9  -3230401.45348  20389538.037    20389538.3114   20389544.0994
       422.197         328.985
   2204202.017 9   1722063.18348  20639021.323    20639022.1354   20639028.7374
     -1707.644       -1330.632
  -7850989.103 9  -5596998.29648  21875654.110    21875654.9784   21875661.0604
       376.126         293.085
   9415352.490 8   7329252.62645  24308441.015    24308441.1514   24308450.4674
     -2637.779       -2055.412
 -11329835.629 9  -8811479.28448  19485432.224    19485433.0234   19485439.2154
      1322.456        1030.485
  -4760998.333 9  -3701141.95446  23024031.955    23024032.5044   23024039.4464
      -406.565        -316.804
 97  5 12 16 43 59.9970000  0  7  4  2 27 26 19  7 15               -0.002535344
  -5421032.242 8  -3894958.48245  23789323.713    23789324.7094   23789332.8814
      4368.142        3403.747
  -4170488.748 9  -3240233.07848  20387137.126    20387137.3704   20387143.1494
       419.747         327.076
   2255602.008 9   1762115.09048  20648802.430    20648803.2874   20648809.8974
     -1718.186       -1338.846
  -7862044.549 9  -5605612.95448  21873550.367    21873551.2504   21873557.3174
       362.033         282.104
   9494508.592 8   7390932.68845  24323504.415    24323504.6524   24323512.8494
     -2638.159       -2055.708
 -11369298.171 9  -8842229.30448  19477922.817    19477923.5544   19477929.7344
      1309.429        1020.334
  -4748553.286 9  -3691444.50446  23026399.896    23026400.7114   23026407.5694
      -422.103        -328.911
 97  5 12 16 44 29.9970000  0  6  4  2 27 26  7 15                  -0.002552096
  -5552039.864 8  -3997042.32045  23764393.835    23764394.8594   23764402.9574
      4366.260        3402.281
  -4182928.448 9  -3249926.35648  20384769.883    20384770.1794   20384775.9954
       410.195         319.632
   2307407.615 9   1802483.07048  20658660.803    20658661.6004   20658668.2224
     -1734.811       -1351.801
  -7872603.306 9  -5613840.57548  21871540.709    21871541.9934   21871548.0684
       342.584         266.949
 -11408289.881 9  -8872612.43148  19470502.879    19470503.6504   19470509.8314
      1290.834        1005.845
  -4735557.770 9  -3681318.13346  23028873.342    23028873.6724   23028880.5594
      -443.677        -345.722
 97  5 12 16 44 59.9970000  0  6  4  2 27 26  7 15                  -0.002568849
  -5683085.262 8  -4099155.60045  23739456.603    23739457.6484   23739465.8394
      4367.867        3403.533
  -4195166.465 9  -3259462.48048  20382441.192    20382441.3864   20382447.2174
       403.473         314.394
   2359627.315 9   1843173.71948  20668598.065    20668598.7304   20668605.3154
     -1748.718       -1362.637
  -7882666.345 9  -5621681.92848  21869625.644    21869627.0624   21869633.1284
       325.895         253.944
 -11446813.239 9  -8902630.61748  19463172.121    19463172.9194   19463179.0834
      1275.069         993.560
  -4721999.731 9  -3670753.46246  23031453.474    23031453.7784   23031460.6734
      -462.585        -360.456
 97  5 12 16 45 29.9970000  0  6  4  2 27 26  7 15                  -0.002585610
  -5814188.963 8  -4201314.28745  23714507.542    23714509.4384   23714517.5764
      4371.526        3406.384
  -4207221.737 9  -3268856.21248  20380147.249    20380147.3914   20380153.1974
       399.510         311.306
   2412252.318 9   1884180.18148  20678612.518    20678613.0324   20678619.5444
     -1760.482       -1371.804
  -7892236.063 9  -5629138.87148  21867804.397    21867806.0294   21867812.1464
       311.115         242.427
 -11484869.053 9  -8932284.48448  19455930.381    19455931.1334   19455937.2754
      1261.172         982.731
  -4707881.774 9  -3659752.41646  23034140.178    23034140.5844   23034147.1044
      -479.546        -373.672
 97  5 12 16 45 59.9970000  0  6  4  2 27 26  7 15                  -0.002602377
  -5945350.117 8  -4303517.75645  23689548.733    23689550.0294   23689558.4064
      4372.084        3406.819
  -4219105.430 9  -3278116.23148  20377885.816    20377885.9914   20377891.8394
       392.125         305.552
   2465283.636 9   1925503.26148  20688704.189    20688704.5804   20688711.0984
     -1775.660       -1383.631
  -7901311.434 9  -5636210.62248  21866077.464    21866079.0564   21866085.1724
       293.387         228.613
 -11522453.076 9  -8961570.72348  19448778.405    19448779.0904   19448785.2314
      1243.969         969.326
  -4693202.011 9  -3648313.66946  23036933.414    23036933.8314   23036940.6254
      -499.638        -389.328
 97  5 12 16 46 29.9970000  0  6  4  2 27 26  7 15                  -0.002619155
  -6076580.947 8  -4405775.50145  23664576.072    23664577.7814   23664585.9114
      4375.401        3409.403
  -4230807.404 9  -3287234.66048  20375658.850    20375659.1874   20375665.0734
       386.898         301.479
   2518730.058 9   1967149.78648  20698874.828    20698875.1844   20698881.6674
     -1788.609       -1393.721
  -7909898.133 9  -5642901.58948  21864443.381    21864445.0834   21864451.2234
       277.722         216.407
 -11559573.907 9  -8990496.04248  19441714.451    19441715.2104   19441721.3194
      1229.479         958.036
  -4677966.842 9  -3636442.09246  23039832.119    23039832.9664   23039839.6224
      -517.372        -403.147
 97  5 12 16 46 59.9970000  0  6  4  2 27 26  7 15                  -0.002635934
  -6207881.820 8  -4508087.82345  23639590.570    23639592.1144   23639600.0814
      4378.419        3411.755
  -4242330.900 9  -3296214.00848  20373466.031    20373466.3714   20373472.2254
       381.683         297.415
   2572597.473 9   2009124.37048  20709125.438    20709125.8434   20709132.3334
     -1802.100       -1404.234
  -7917979.297 9  -5649198.61148  21862905.875    21862907.3214   21862913.4334
       261.499         203.765
 -11596223.650 9  -9019054.27448  19434740.173    19434741.0074   19434747.1084
      1214.241         946.162
  -4662166.668 9  -3624130.30546  23042838.832    23042839.6064   23042846.4444
      -535.526        -417.293
 97  5 12 16 47 29.9970000  0  7  4  2 27 26  9  7 15               -0.002652709
  -6339230.570 8  -4610437.42945  23614595.544    23614597.1774   23614605.4394
      4379.755        3412.796
  -4253663.503 9  -3305044.60648  20371309.525    20371309.8484   20371315.7004
       375.429         292.542
   2626898.482 9   2051436.81548  20719458.596    20719459.0474   20719465.5134
     -1816.371       -1415.354
  -7925548.705 9  -5655096.87748  21861465.718    21861466.9514   21861473.0274
       244.691         190.668
   -350510.74019   -243965.37756  23797957.713    23797956.9555   23797965.3035
      4213.172        3282.991
 -11632389.406 9  -9047235.36748  19427858.078    19427858.8694   19427864.9504
      1198.621         933.990
  -4645796.434 9  -3611374.26946  23045954.219    23045954.8424   23045961.8014
      -554.157        -431.811
 97  5 12 16 47 59.9970000  0  7  4  2 27 26  9  7 15               -0.002669482
  -6470641.945 8  -4712835.86145  23589588.774    23589590.3354   23589598.6184
      4380.362        3413.269
  -4264826.973 9  -3313743.41948  20369185.182    20369185.5194   20369191.3734
       368.246         286.945
   2681604.205 9   2094064.62048  20729868.812    20729869.2494   20729875.7234
     -1831.242       -1426.942
  -7932628.976 9  -5660614.00448  21860118.242    21860119.6324   21860125.7624
       226.719         176.664
   -476880.850 9   -342435.58156  23773907.455    23773909.9765   23773917.0215
      4210.853        3281.184
 -11668120.683 9  -9075077.90748  19421058.762    19421059.4464   19421065.5254
      1182.904         921.743
  -4628895.525 9  -3598204.76146  23049170.155    23049170.8094   23049177.9304
      -573.120        -446.587
 97  5 12 16 48 29.9970000  0  7  4  2 27 26  9  7 15               -0.002686214
  -6602087.371 8  -4815260.81045  23564575.491    23564576.9944   23564585.2694
      4381.192        3413.916
  -4275799.981 9  -3322293.81648  20367097.002    20367097.4144   20367103.3054
       362.070         282.132
   2736729.825 9   2137019.61948  20740358.885    20740359.3234   20740365.8064
     -1845.060       -1437.709
  -7939178.143 9  -5665717.28148  21858872.452    21858873.3874   21858879.5364
       208.598         162.544
   -603196.750 9   -440863.52846  23749871.782    23749872.9394   23749879.9154
      4208.848        3279.622
 -11703408.611 9  -9102574.98148  19414343.637    19414344.3714   19414350.4394
      1168.226         910.306
  -4611446.782 9  -3584608.36546  23052490.495    23052491.1464   23052498.1664
      -591.525        -460.929
 97  5 12 16 48 59.9970000  0  7  4  2 27 26  9  7 15               -0.002702919
  -6733546.195 8  -4917696.19645  23539559.626    23539561.1644   23539569.3254
      4382.807        3415.174
  -4286588.844 9  -3330700.72548  20365044.046    20365044.4034   20365050.2744
       357.228         278.359
   2792272.195 9   2180299.35748  20750928.179    20750928.7214   20750935.2064
     -1857.599       -1447.480
  -7945175.426 9  -5670390.51448  21857731.076    21857732.1744   21857738.3144
       191.404         149.146
   -729442.846 9   -539237.04946  23725848.306    23725848.7714   23725856.0964
      4207.612        3278.659
 -11738245.134 9  -9129720.31748  19407714.440    19407715.2094   19407721.2474
      1154.270         899.431
  -4593440.356 9  -3570577.37646  23055917.435    23055917.7274   23055924.6164
      -608.829        -474.412
 97  5 12 16 49 29.9970000  0  7  4  2 27 26  9  7 15               -0.002719614
  -6865030.387 8  -5020151.33445  23514538.912    23514540.6504   23514548.7054
      4383.132        3415.428
  -4297213.033 9  -3338979.31448  20363022.406    20363022.6844   20363028.5884
       351.323         273.758
   2848201.866 9   2223880.88848  20761571.110    20761571.8074   20761578.3064
     -1870.796       -1457.763
  -7950638.685 9  -5674647.63048  21856691.396    21856692.5704   21856698.7414
       173.088         134.874
   -855627.584 9   -637562.76946  23701836.859    23701836.6814   23701843.7794
      4204.931        3276.570
 -11772645.514 9  -9156525.80148  19401168.356    19401169.0614   19401175.0834
      1139.320         887.782
  -4574897.767 9  -3556128.62946  23059445.461    23059446.2614   23059453.2784
      -627.182        -488.713
 97  5 12 16 49 59.9970000  0  7  4  2 27 26  9  7 15               -0.002736302
  -6996542.085 8  -5122627.91345  23489513.503    23489514.6984   23489522.7674
      4384.587        3416.561
  -4307673.467 9  -3347130.30648  20361031.817    20361032.1414   20361038.0434
       346.209         269.773
   2904511.065 9   2267758.15848  20772286.300    20772287.0814   20772293.5934
     -1882.841       -1467.149
  -7955565.332 9  -5678486.61048  21855753.947    21855755.0654   21855761.2544
       155.904         121.484
   -981746.962 8   -735837.52846  23677837.556    23677836.7004   23677844.0574
      4203.198        3275.219
 -11806604.819 9  -9182987.58748  19394706.050    19394706.8144   19394712.8314
      1124.731         876.414
  -4555811.992 9  -3541256.57846  23063077.899    23063078.3804   23063085.0584
      -645.016        -502.610
 97  5 12 16 50 29.9970000  0  7  4  2 27 26  9  7 15               -0.002752986
  -7128075.185 8  -5225121.16345  23464482.664    23464484.6884   23464492.6334
      4384.850        3416.766
  -4317958.748 9  -3355144.81748  20359074.574    20359074.9324   20359080.8064
       340.138         265.043
   2961196.964 9   2311928.95648  20783073.123    20783074.0354   20783080.5904
     -1895.565       -1477.064
  -7959972.815 9  -5681921.03248  21854915.245    21854916.3884   21854922.6104
       138.796         108.153
  -1107787.711 8   -834051.13746  23653853.359    23653852.0954   23653859.2474
      4200.158        3272.850
 -11840099.236 9  -9209087.12248  19388332.292    19388333.0024   19388339.0184
      1108.795         863.996
  -4536168.662 9  -3525950.13546  23066816.264    23066816.2724   23066823.3824
      -663.932        -517.350
 97  5 12 16 50 59.9970000  0  7  4  2 27 26  9  7 15               -0.002769687
  -7259641.805 8  -5327640.52245  23439446.362    23439448.3604   23439456.4014
      4384.444        3416.450
  -4328087.910 9  -3363037.67648  20357146.950    20357147.4214   20357153.2694
       333.546         259.906
   3018236.573 9   2356375.37348  20793927.500    20793928.3294   20793934.9304
     -1908.755       -1487.341
  -7963910.861 9  -5684989.67748  21854165.664    21854167.0114   21854173.2294
       122.232          95.246
  -1233769.485 9   -932218.67446  23629879.547    23629878.4244   23629885.5904
      4197.032        3270.415
 -11873133.522 9  -9234828.11048  19382045.949    19382046.7544   19382052.7674
      1091.964         850.881
  -4515985.464 9  -3510222.98746  23070656.484    23070656.8384   23070663.9714
      -683.150        -532.325
 97  5 12 16 51 29.9970000  0  7  4  2 27 26  9  7 15               -0.002786395
  -7391217.127 8  -5430166.67345  23414408.601    23414410.1984   23414418.4724
      4386.613        3418.140
  -4338038.912 9  -3370791.70648  20355253.402    20355253.8524   20355259.6564
       329.464         256.725
   3075653.358 9   2401115.69448  20804853.569    20804854.4114   20804861.0124
     -1919.627       -1495.813
  -7967378.681 9  -5687691.90948  21853505.841    21853507.1244   21853513.3734
       108.342          84.422
  -1359678.062 9  -1030329.12546  23605919.804    23605918.8244   23605926.1424
      4196.405        3269.926
 -11905694.279 9  -9260200.11548  19375849.911    19375850.6614   19375856.6734
      1078.206         840.161
  -4495253.495 9  -3494068.18346  23074601.513    23074602.1194   23074609.0844
      -699.484        -545.052
 97  5 12 16 51 59.9970000  0  7  4  2 27 26  9  7 15               -0.002803111
  -7522796.751 8  -5532696.16845  23389369.818    23389371.4584   23389379.6924
      4386.667        3418.182
  -4347815.992 9  -3378410.22148  20353393.024    20353393.3654   20353399.1524
       323.605         252.160
   3133455.831 9   2446156.55548  20815853.124    20815853.8764   20815860.4724
     -1932.592       -1505.916
  -7970377.578 9  -5690028.73048  21852935.150    21852936.5204   21852942.7884
        92.918          72.404
  -1485521.748 9  -1128389.12546  23581972.122    23581971.4474   23581978.9554
      4194.220        3268.223
 -11937783.925 9  -9285205.02748  19369743.481    19369744.1924   19369750.2164
      1062.368         827.819
  -4473977.672 9  -3477489.65846  23078650.406    23078650.9264   23078657.9094
      -717.558        -559.136
 97  5 12 16 52 29.9970000  0  7  4  2 27 26  9  7 15               -0.002819824
  -7654360.397 8  -5635213.23745  23364334.559    23364335.8524   23364343.9304
      4385.148        3416.998
  -4357405.364 9  -3385882.46948  20351568.128    20351568.5524   20351574.3334
       316.546         246.659
   3191663.621 9   2491513.24148  20826929.787    20826930.4784   20826937.0534
     -1947.226       -1517.319
  -7972897.659 9  -5691992.44948  21852455.836    21852457.0164   21852463.2594
        75.870          59.119
  -1611278.638 8  -1226381.47345  23558041.274    23558040.7394   23558048.2374
      4190.527        3265.346
 -11969392.192 9  -9309834.83248  19363728.681    19363729.3224   19363735.3694
      1045.706         814.836
  -4452152.396 9  -3460482.96746  23082803.628    23082804.1604   23082811.2564
      -736.634        -574.000
 97  5 12 16 52 59.9970000  0  7  4  2 27 26  9  7 15               -0.002836542
  -7785926.530 8  -5737732.22245  23339298.548    23339299.6244   23339307.5854
      4384.134        3416.208
  -4366823.077 9  -3393220.95448  20349776.119    20349776.4214   20349782.2144
       309.395         241.087
   3250270.155 9   2537180.63848  20838082.326    20838082.9524   20838089.5544
     -1961.780       -1528.660
  -7974944.804 9  -5693587.66248  21852066.382    21852067.4814   21852073.6914
        58.705          45.744
  -1736978.338 8  -1324329.24446  23534120.938    23534120.9884   23534128.4394
      4187.502        3262.988
 -12000545.846 9  -9334110.38848  19357800.356    19357800.9874   19357807.0134
      1029.495         802.204
  -4429804.622 9  -3443069.17146  23087055.783    23087056.7834   23087063.7104
      -755.115        -588.401
 97  5 12 16 53 29.9970000  0  7  4  2 27 26  9  7 15               -0.002853244
  -7917476.929 8  -5840238.96045  23314264.754    23314266.4044   23314274.3174
      4384.855        3416.770
  -4376034.110 9  -3400398.39348  20348023.363    20348023.6204   20348029.4294
       303.498         236.492
   3309299.057 9   2583177.15248  20849315.035    20849315.8204   20849322.4144
     -1974.524       -1538.590
  -7976478.963 9  -5694783.13948  21851774.514    21851775.6114   21851781.7994
        42.565          33.168
  -1862590.636 8  -1422208.96846  23510217.592    23510217.6724   23510224.9894
      4185.411        3261.359
 -12031230.738 9  -9358020.68748  19351961.149    19351961.7914   19351967.8194
      1014.982         790.895
  -4406912.075 9  -3425230.82546  23091412.392    23091413.2854   23091419.9934
      -772.235        -601.741
 97  5 12 16 53 59.9970000  0  7  4  2 27 26  9  7 15               -0.002869939
  -8049028.040 8  -5942746.24745  23289231.396    23289232.9784   23289240.9134
      4384.735        3416.677
  -4385039.970 9  -3407415.95648  20346309.637    20346309.8754   20346315.6704
       296.352         230.924
   3368723.949 9   2629482.23248  20860623.274    20860624.0334   20860630.6354
     -1987.621       -1548.796
  -7977515.247 9  -5695590.65348  21851577.864    21851578.4624   21851584.6474
        26.202          20.417
  -1988115.387 8  -1520020.40846  23486331.223    23486331.1184   23486338.3434
      4182.339        3258.965
 -12061453.591 9  -9381570.95348  19346209.930    19346210.5874   19346216.5964
       999.526         778.851
  -4383481.037 9  -3406972.91146  23095871.107    23095871.9924   23095878.9734
      -790.267        -615.792
 97  5 12 16 54 29.9970000  0  7  4  2 27 26  9  7 15               -0.002886618
  -8180565.755 8  -6045243.09446  23264200.841    23264202.0894   23264210.0694
      4384.337        3416.366
  -4393815.577 9  -3414254.09948  20344639.773    20344639.9164   20344645.7514
       288.566         224.857
   3428559.231 9   2676107.10248  20872009.535    20872010.3624   20872016.9364
     -2001.572       -1559.666
  -7978047.107 9  -5696005.11347  21851476.626    21851477.2184   21851483.4394
         9.116           7.103
  -2113529.905 8  -1617745.93346  23462465.059    23462465.4894   23462472.8334
      4178.620        3256.068
 -12091204.488 9  -9404753.45848  19340548.553    19340549.1714   19340555.1974
       983.658         766.487
  -4359492.382 9  -3388280.51646  23100436.229    23100436.9744   23100444.1044
      -809.053        -630.431
 97  5 12 16 54 59.9970000  0  7  4  2 27 26  9  7 15               -0.002903303
  -8312136.814 8  -6147765.94446  23239163.918    23239164.8394   23239172.8754
      4385.731        3417.453
  -4402398.326 9  -3420941.97648  20343006.447    20343006.6504   20343012.5184
       282.476         220.111
   3488766.934 9   2723022.16148  20883466.904    20883467.5404   20883474.0894
     -2013.396       -1568.880
  -7978108.895 9  -5696053.29548  21851464.587    21851465.4604   21851471.6784
        -6.233          -4.857
  -2238868.623 9  -1715412.40046  23438613.828    23438614.1594   23438621.5474
      4175.880        3253.932
 -12120515.895 9  -9427593.51048  19334970.757    19334971.4024   19334977.4374
       969.272         755.277
  -4334979.707 9  -3369179.76846  23105101.193    23105101.7534   23105108.6024
      -826.336        -643.898
 97  5 12 16 55 29.9970000  0  7  4  2 27 26  9  7 15               -0.002919998
  -8443750.280 8  -6250321.83746  23214118.166    23214119.6354   23214127.6314
      4387.392        3418.747
  -4410808.282 9  -3427495.19448  20341406.019    20341406.2814   20341412.1664
       277.240         216.031
   3549323.345 9   2770208.94748  20894990.490    20894991.0674   20894997.6384
     -2024.871       -1577.822
  -7977712.291 9  -5695744.27947  21851540.486    21851540.9544   21851547.1414
       -21.099         -16.441
  -2364117.409 8  -1813008.87346  23414779.958    23414780.0754   23414787.4544
      4173.162        3251.814
 -12149401.607 9  -9450101.84548  19329473.895    19329474.6394   19329480.6534
       955.452         744.508
  -4309947.579 9  -3349674.26646  23109864.960    23109865.2474   23109872.1534
      -843.453        -657.236
 97  5 12 16 55 59.9970000  0  7  4  2 27 26  9  7 15               -0.002936701
  -8575393.306 8  -6352900.76546  23189066.941    23189068.7834   23189076.8164
      4389.185        3420.144
  -4419055.626 9  -3433921.70648  20339836.432    20339836.8794   20339842.7664
       273.031         212.751
   3610240.448 9   2817676.79248  20906582.791    20906583.2394   20906589.8344
     -2036.039       -1586.524
  -7976862.701 9  -5695082.29347  21851701.797    21851702.6404   21851708.8564
       -35.290         -27.499
  -2489282.544 9  -1910540.05446  23390961.697    23390961.9394   23390969.3694
      4171.575        3250.578
 -12177862.404 9  -9472279.07748  19324058.012    19324058.7094   19324064.7354
       942.334         734.286
  -4284395.573 9  -3329763.66946  23114727.312    23114727.5654   23114734.5644
      -859.685        -669.884
 97  5 12 16 56 29.9970000  0  7  4  2 27 26  9  7 15               -0.002953397
  -8707051.847 8  -6455491.80046  23164013.733    23164015.0254   23164022.9974
      4389.440        3420.343
  -4427142.021 9  -3440222.79648  20338297.812    20338298.0804   20338303.9694
       267.487         208.431
   3671540.814 9   2865443.27748  20918247.755    20918248.3464   20918254.9544
     -2049.078       -1596.684
  -7975529.713 9  -5694043.63748  21851955.381    21851956.3344   21851962.5364
       -52.066         -40.571
  -2614354.552 9  -2007998.65946  23367161.224    23367161.3514   23367168.7394
      4168.164        3247.920
 -12205887.759 9  -9494117.00348  19318724.941    19318725.6474   19318731.6954
       927.469         722.703
  -4258316.192 9  -3309442.14746  23119690.296    23119690.4394   23119697.3994
      -877.437        -683.717
 97  5 12 16 56 59.9970000  0  7  4  2 27 26  9  7 15               -0.002970069
  -8838683.046 8  -6558061.50546  23138965.070    23138966.3484   23138974.3594
      4386.893        3418.358
  -4435040.564 9  -3446377.51448  20336794.726    20336795.0534   20336800.9134
       260.128         202.697
   3733243.103 9   2913522.95348  20929989.496    20929989.8904   20929996.5564
     -2063.503       -1607.924
  -7973674.709 9  -5692598.19647  21852308.016    21852309.3534   21852315.5374
       -70.552         -54.976
  -2739303.787 9  -2105361.72546  23343384.122    23343384.4054   23343391.6564
      4162.855        3243.783
 -12233448.275 9  -9515592.71548  19313480.355    19313481.0874   19313487.0794
       910.928         709.814
  -4231684.518 9  -3288690.23946  23124758.312    23124758.3044   23124765.1684
      -896.943        -698.917
 97  5 12 16 57 29.9970000  0  7  4  2 27 26  9  7 15               -0.002986731
  -8970291.582 9  -6660613.54746  23113920.806    23113922.0434   23113930.0084
      4385.455        3417.238
  -4442783.174 9  -3452410.72548  20335321.388    20335321.7084   20335327.5354
       254.484         198.299
   3795325.206 9   2961898.57948  20941803.193    20941803.7594   20941810.3994
     -2076.852       -1618.326
  -7971330.503 9  -5690771.57147  21852754.468    21852755.4674   21852761.6284
       -87.180         -67.932
  -2864166.570 9  -2202657.39146  23319623.079    23319623.7274   23319631.0274
      4159.772        3241.381
 -12260577.883 9  -9536732.66448  19308317.799    19308318.5214   19308324.5234
       896.109         698.267
  -4204533.935 9  -3267533.94746  23129925.082    23129924.8934   23129931.5724
      -914.553        -712.639
 97  5 12 16 57 59.9970000  0  7  4  2 27 26  9  7 15               -0.003003387
  -9101869.229 8  -6763141.52046  23088882.747    23088883.5814   23088891.5144
      4384.903        3416.808
  -4450363.321 9  -3458317.33448  20333879.120    20333879.2604   20333885.0724
       249.163         194.153
   3857789.073 9   3010571.68948  20953689.523    20953690.2704   20953696.9454
     -2088.949       -1627.752
  -7968498.814 9  -5688565.08147  21853292.742    21853294.2994   21853300.5514
      -103.229         -80.438
  -2988943.010 9  -2299885.70346  23295879.251    23295879.4854   23295886.8764
      4156.948        3239.180
 -12287266.325 9  -9557528.84548  19303239.127    19303239.8864   19303245.9044
       881.500         686.883
  -4176872.081 9  -3245979.35246  23135188.847    23135188.7834   23135195.8164
      -931.220        -725.626
 97  5 12 16 58 29.9960000  0  7  4  2 27 26  9  7 15               -0.003020039
  -9233415.966 9  -6865645.38646  23063850.515    23063851.1074   23063858.9004
      4384.854        3416.769
  -4457765.436 9  -3464085.21848  20332470.430    20332470.6954   20332476.4824
       244.128         190.230
   3920617.868 9   3059529.15448  20965645.538    20965646.2104   20965652.9194
     -2099.887       -1636.275
  -7965178.783 9  -5685978.08347  21853924.909    21853926.1134   21853932.3604
      -118.067         -92.000
  -3113615.529 9  -2397033.10046  23272155.129    23272155.0494   23272162.4774
      4154.635        3237.378
 -12313506.075 9  -9577975.39848  19298245.995    19298246.6454   19298252.6494
       867.720         676.145
  -4148699.989 9  -3224027.12246  23140549.740    23140550.0074   23140556.9014
      -947.133        -738.026
 97  5 12 16 58 59.9960000  0  7  4  2 27 26  9  7 15               -0.003036672
  -9364892.909 9  -6968094.87246  23038831.398    23038831.8424   23038839.6334
      4380.578        3413.437
  -4464949.829 9  -3469683.45048  20331103.310    20331103.5654   20331109.3474
       234.955         183.082
   3983840.132 9   3108793.22048  20977676.185    20977677.0504   20977683.7724
     -2114.954       -1648.016
  -7961357.558 9  -5683000.52948  21854652.570    21854653.2774   21854659.5434
      -136.624        -106.460
  -3238153.482 9  -2494075.61546  23248456.087    23248456.4444   23248463.7634
      4147.942        3232.163
 -12339263.312 9  -9598045.97148  19293344.603    19293345.2204   19293351.2374
       849.646         662.062
  -4119984.098 9  -3201651.14346  23146014.019    23146014.4424   23146021.1734
      -967.151        -753.624
 97  5 12 16 59 29.9960000  0  7  4  2 27 26  9  7 15               -0.003053286
  -9496308.102 9  -7070496.22146  23013823.992    23013824.3464   23013832.1784
      4379.115        3412.297
  -4471917.431 9  -3475112.75848  20329777.398    20329777.7204   20329783.4524
       227.955         177.627
   4047455.554 9   3158363.64247  20989781.658    20989782.6964   20989789.4534
     -2127.375       -1657.695
  -7957045.869 9  -5679640.80447  21855472.988    21855473.7514   21855480.0184
      -152.373        -118.732
  -3362545.824 9  -2591004.66846  23224784.834    23224785.1564   23224792.5244
      4143.377        3228.605
 -12364545.277 9  -9617746.19648  19288533.647    19288534.2574   19288540.2334
       834.374         650.162
  -4090732.649 9  -3178857.81746  23151580.277    23151580.9194   23151587.6764
      -984.503        -767.145
 97  5 12 16 59 59.9960000  0  7  4  2 27 26  9  7 15               -0.003069893
  -9627686.998 8  -7172869.29346  22988822.807    22988823.6264   22988831.5494
      4377.753        3411.236
  -4478669.738 9  -3480374.29948  20328492.518    20328492.8094   20328498.5364
       220.607         171.901
   4111430.192 9   3208213.97747  21001955.963    21001956.7114   21001963.4594
     -2139.241       -1666.941
  -7952262.265 9  -5675913.34547  21856383.330    21856384.1134   21856390.3164
      -168.066        -130.960
  -3486806.349 8  -2687831.03346  23201139.143    23201139.3864   23201146.6904
      4139.222        3225.368
 -12389373.094 9  -9637092.54348  19283809.088    19283809.6614   19283815.6164
       819.224         638.356
  -4060959.074 9  -3155657.70046  23157245.962    23157246.5524   23157253.5634
     -1002.022        -780.796
 97  5 12 17  0 29.9960000  0  7  4  2 27 26  9  7 15               -0.003086486
  -9759010.167 9  -7275198.97846  22963832.455    22963833.6334   22963841.6504
      4376.280        3410.088
  -4485192.439 9  -3485456.92748  20327251.214    20327251.5794   20327257.3064
       213.604         166.445
   4175777.587 9   3258354.77747  21014200.960    21014201.6154   21014208.4054
     -2151.441       -1676.447
  -7947001.414 9  -5671814.01947  21857384.705    21857385.2744   21857391.5264
      -183.450        -142.948
  -3610936.399 9  -2784555.73546  23177517.926    23177518.1324   23177525.2104
      4135.482        3222.454
 -12413740.711 9  -9656080.28948  19279172.048    19279172.6084   19279178.5704
       804.565         626.934
  -4030651.662 9  -3132041.51846  23163013.314    23163013.9414   23163020.7024
     -1019.265        -794.232
 97  5 12 17  0 59.9960000  0  7  4  2 27 26  9  7 15               -0.003103072
  -9890296.919 8  -7377500.31646  22938849.319    22938850.5574   22938858.4734
      4375.925        3409.812
  -4491511.532 9  -3490380.90548  20326048.626    20326049.1064   20326054.8234
       207.368         161.585
   4240495.531 9   3308784.30047  21026516.426    21026517.0654   21026523.8684
     -2163.355       -1685.731
  -7941274.494 9  -5667351.52048  21858474.719    21858475.0954   21858481.3924
      -198.797        -154.907
  -3734962.283 9  -2881199.16446  23153916.695    23153916.7024   23153924.0074
      4132.736        3220.314
 -12437672.812 9  -9674728.67948  19274617.957    19274618.5074   19274624.4584
       790.757         616.174
  -3999829.641 9  -3108024.40146  23168878.585    23168879.1714   23168886.2254
     -1035.911        -807.203
 97  5 12 17  1 29.9960000  0  7  4  2 27 26  9  7 15               -0.003119655
 -10021559.585 8  -7479782.86846  22913870.108    22913872.0314   22913879.9504
      4373.556        3407.966
  -4497625.889 9  -3495145.33648  20324885.202    20324885.5794   20324891.2784
       199.107         155.148
   4305576.694 9   3359496.87447  21038900.719    21038901.5874   21038908.4504
     -2176.444       -1695.930
  -7935075.704 9  -5662521.31948  21859653.972    21859654.7034   21859660.9494
      -215.751        -168.118
  -3858903.836 9  -2977776.96446  23130331.492    23130331.3654   23130338.5314
      4128.869        3217.301
 -12461182.579 9  -9693047.97348  19270144.140    19270144.7174   19270150.6564
       775.294         604.125
  -3968494.394 9  -3083607.36846  23174841.510    23174842.1834   23174849.2784
     -1054.380        -821.595
 97  5 12 17  1 59.9960000  0  7  4  2 27 26  9  7 15               -0.003136225
 -10152763.497 9  -7582019.61246  22888903.145    22888904.7564   22888912.5974
      4372.179        3406.893
  -4503513.549 9  -3499733.12748  20323764.925    20323765.2064   20323770.9444
       192.598         150.076
   4371029.562 9   3410499.07947  21051356.163    21051356.8334   21051363.7434
     -2188.163       -1705.062
  -7928377.812 9  -5657302.21348  21860928.342    21860929.3044   21860935.5364
      -231.647        -180.504
  -3982745.623 9  -3074277.00746  23106764.943    23106765.0594   23106772.2434
      4126.070        3215.119
 -12484234.950 9  -9711010.85648  19265757.385    19265757.9824   19265763.9054
       760.503         592.600
  -3936619.615 9  -3058769.88546  23180907.399    23180907.6884   23180914.8384
     -1071.576        -834.994
 97  5 12 17  2 29.9960000  0  7  4  2 27 26  9  7 15               -0.003152796
 -10283928.874 9  -7684226.32446  22863943.068    22863944.8274   22863952.6084
      4371.608        3406.448
  -4509219.413 9  -3504179.26848  20322679.148    20322679.4274   20322685.1634
       187.202         145.872
   4436832.186 9   3461773.81647  21063877.973    21063878.6284   21063885.5634
     -2199.179       -1713.646
  -7921208.394 9  -5651715.68948  21862293.110    21862293.6334   21862299.9224
      -246.852        -192.352
  -4106503.566 9  -3170711.71246  23083214.260    23083214.6444   23083222.0334
      4123.694        3213.268
 -12506858.526 9  -9728639.61648  19261452.350    19261452.8474   19261458.7594
       747.187         582.224
  -3904236.671 9  -3033536.45146  23187069.489    23187069.8914   23187077.1804
     -1087.919        -847.729
 97  5 12 17  2 59.9960000  0  7  4  2 27 26  9  7 15               -0.003169359
 -10415050.947 9  -7786399.28146  22838992.474    22838993.0394   22839000.8794
      4370.811        3405.827
  -4514740.263 9  -3508481.23748  20321628.588    20321628.8454   20321634.5794
       181.934         141.767
   4502983.349 9   3513320.14447  21076466.166    21076466.7834   21076473.7474
     -2209.701       -1721.845
  -7913561.873 9  -5645757.37848  21863747.772    21863748.7644   21863755.0064
      -261.646        -203.880
  -4230160.584 9  -3267067.78946  23059683.012    23059683.4334   23059690.5904
      4121.075        3211.227
 -12529057.432 9  -9745937.46648  19257228.018    19257228.5104   19257234.4664
       733.857         571.837
  -3871336.257 9  -3007899.77446  23193330.437    23193330.8234   23193337.9014
     -1104.353        -860.535
 97  5 12 17  3 29.9960000  0  7  4  2 27 26  9  7 15               -0.003185930
 -10546126.535 9  -7888535.98846  22814049.745    22814050.0844   22814057.9694
      4368.407        3403.954
  -4520099.054 9  -3512656.92948  20320608.906    20320609.1084   20320614.8614
       176.261         137.346
   4569451.156 9   3565113.21047  21089114.489    21089115.2204   21089122.1904
     -2220.809       -1730.501
  -7905479.213 9  -5639459.23048  21865285.724    21865286.8404   21865293.1234
      -276.317        -215.312
  -4353723.939 9  -3363350.86246  23036168.884    23036170.1734   23036177.4834
      4117.200        3208.208
 -12550848.750 9  -9762917.71048  19253081.244    19253081.7124   19253087.6734
       719.606         560.732
  -3837942.399 9  -2981878.62746  23199685.354    23199685.3924   23199692.6064
     -1121.064        -873.556
 97  5 12 17  3 59.9960000  0  7  4  2 27 26  9  7 15               -0.003202491
 -10677131.138 9  -7990617.37746  22789120.402    22789120.6494   22789128.5364
      4364.938        3401.250
  -4525290.867 9  -3516702.50948  20319620.965    20319621.1824   20319626.9194
       169.668         132.209
   4636267.104 9   3617177.53947  21101829.526    21101829.9134   21101836.8624
     -2233.975       -1740.760
  -7896949.785 9  -5632812.95548  21866909.384    21866909.9624   21866916.2324
      -292.392        -227.838
  -4477157.560 9  -3459532.90546  23012680.206    23012681.4334   23012688.5974
      4111.406        3203.693
 -12572213.435 9  -9779565.51748  19249015.752    19249016.1684   19249022.1274
       704.576         549.020
  -3804046.298 9  -2955466.08646  23206135.809    23206135.7604   23206143.1054
     -1138.926        -887.475
 97  5 12 17  4 29.9960000  0  7  4  2 27 26  9  7 15               -0.003219034
 -10808060.557 9  -8092640.18046  22764204.855    22764205.4914   22764213.4144
      4363.553        3400.171
  -4530309.181 9  -3520612.89948  20318666.073    20318666.2284   20318671.9704
       164.664         128.310
   4703458.332 9   3669534.30647  21114615.423    21114616.0024   21114622.9484
     -2245.624       -1749.837
  -7887974.129 9  -5625818.97348  21868617.428    21868618.0034   21868624.3144
      -306.232        -238.622
  -4600446.000 9  -3555601.75146  22989219.482    22989220.3034   22989227.6094
      4107.632        3200.752
 -12593159.726 9  -9795887.29848  19245029.898    19245030.2104   19245036.1804
       691.565         538.882
  -3769646.654 9  -2928661.23746  23212681.514    23212681.7874   23212689.1704
     -1154.656        -899.732
 97  5 12 17  4 59.9960000  0  7  4  2 27 26  9  7 15               -0.003235570
 -10938928.273 9  -8194614.91746  22739301.465    22739302.0324   22739310.0374
      4361.004        3398.185
  -4535157.911 9  -3524391.14048  20317743.433    20317743.5294   20317749.2714
       158.591         123.577
   4771017.497 9   3722177.78547  21127471.270    21127472.0944   21127479.0584
     -2258.281       -1759.699
  -7878567.605 9  -5618489.24148  21870407.390    21870408.0194   21870414.3444
      -320.875        -250.032
  -4723605.109 9  -3651569.83746  22965783.066    22965783.8514   22965791.2184
      4103.026        3197.163
 -12613687.048 9  -9811882.60648  19241123.565    19241123.9794   19241129.9644
       676.928         527.476
  -3734758.298 9  -2901475.47346  23219320.668    23219320.8804   23219327.9224
     -1171.083        -912.532
 97  5 12 17  5 29.9960000  0  7  4  2 27 26  9  7 15               -0.003252102
 -11069726.485 8  -8296535.50246  22714412.014    22714412.0434   22714419.9044
      4357.326        3395.319
  -4539823.059 9  -3528026.33348  20316855.666    20316855.7884   20316861.5324
       150.798         117.505
   4838947.340 9   3775110.09247  21140398.153    21140398.7354   21140405.7124
     -2272.008       -1770.396
  -7868716.756 9  -5610813.27748  21872281.920    21872282.6054   21872288.9774
      -337.481        -262.972
  -4846628.144 9  -3747431.92846  22942372.467    22942373.2374   22942380.5454
      4096.948        3192.427
 -12633775.256 9  -9827535.75548  19237301.023    19237301.3424   19237307.2834
       660.721         514.847
  -3699386.691 9  -2873913.23446  23226051.460    23226051.8494   23226059.1154
     -1188.746        -926.296
 97  5 12 17  5 59.9960000  0  7  4  2 27 26  9  7 15               -0.003268627
 -11200463.684 9  -8398408.54346  22689533.240    22689533.5244   22689541.2594
      4357.481        3395.440
  -4544297.061 9  -3531512.58248  20316004.338    20316004.4444   20316010.1664
       146.361         114.047
   4907240.242 9   3828325.28747  21153393.827    21153394.4504   21153401.4534
     -2281.685       -1777.936
  -7858407.870 9  -5602780.40948  21874243.686    21874244.3894   21874250.7144
      -350.598        -273.193
  -4969509.258 9  -3843183.49846  22918989.126    22918989.8994   22918996.9404
      4094.180        3190.270
 -12653429.731 9  -9842850.93048  19233560.707    19233561.1564   19233567.1264
       648.497         505.322
  -3663523.837 9  -2845968.20746  23232875.907    23232876.1704   23232883.5404
     -1203.077        -937.463
 97  5 12 17  6 29.9960000  0  7  4  2 27 26  9  7 15               -0.003285150
 -11331132.171 9  -8500228.05846  22664667.990    22664668.0354   22664675.7044
      4354.366        3393.012
  -4548556.676 9  -3534831.77548  20315193.769    20315193.8764   20315199.6174
       138.191         107.681
   4975883.463 9   3881813.47647  21166456.267    21166456.8464   21166463.8584
     -2293.802       -1787.378
  -7847644.715 9  -5594393.57048  21876291.703    21876292.5834   21876298.9244
      -366.407        -285.512
  -5092239.702 9  -3938817.52946  22895634.442    22895634.9734   22895642.1114
      4088.529        3185.867
 -12672629.702 9  -9857811.94148  19229907.069    19229907.5424   19229913.5154
       632.065         492.518
  -3627159.524 9  -2817632.40346  23239795.974    23239796.1524   23239803.5364
     -1220.601        -951.118
 97  5 12 17  6 59.9960000  0  7  4  2 27 26  9  7 15               -0.003301687
 -11461735.398 9  -8601996.76146  22639814.430    22639815.0474   22639822.6164
      4351.554        3390.821
  -4552596.958 9  -3537980.06548  20314425.021    20314425.0544   20314430.7974
       130.267         101.507
   5044854.119 9   3935556.80847  21179580.913    21179581.5584   21179588.5584
     -2305.067       -1796.156
  -7836430.356 9  -5585655.14548  21878425.848    21878426.5814   21878432.9924
      -382.059        -297.708
  -5214830.857 9  -4034343.09546  22872306.043    22872306.5454   22872313.5794
      4083.308        3181.798
 -12691362.109 9  -9872408.61648  19226342.484    19226342.8894   19226348.8714
       616.009         480.007
  -3590299.340 8  -2788910.24346  23246810.091    23246810.2484   23246817.9624
     -1237.642        -964.396
 97  5 12 17  7 29.9960000  0  7  4  2 27 26  9  7 15               -0.003318244
 -11592289.671 9  -8703727.31546  22614970.302    22614971.2524   22614978.9604
      4352.168        3391.300
  -4556440.291 9  -3540974.88848  20313693.643    20313693.7004   20313699.4704
       126.276          98.397
   5114120.694 9   3989530.73247  21192761.918    21192762.5594   21192769.5964
     -2312.522       -1801.965
  -7824785.011 9  -5576580.89248  21880641.360    21880642.6064   21880649.0774
      -393.955        -306.978
  -5337299.049 9  -4129772.74446  22849001.172    22849001.5084   22849008.8404
      4081.408        3180.318
 -12709657.696 9  -9886664.92448  19222860.824    19222861.3524   19222867.3464
       604.031         470.674
  -3552960.798 9  -2759815.34846  23253915.255    23253915.4634   23253923.3874
     -1251.454        -975.159
 97  5 12 17  7 59.9960000  0  7  4  2 27 26  9  7 15               -0.003334831
 -11722809.848 9  -8805431.37346  22590132.789    22590134.1164   22590141.8404
      4348.494        3388.437
  -4560115.090 9  -3543838.38248  20312994.436    20312994.4334   20313000.2134
       118.073          92.005
   5183667.003 9   4043722.64347  21205996.222    21205996.7814   21206003.8204
     -2324.490       -1811.291
  -7812737.588 9  -5567193.31947  21882934.046    21882935.1814   21882941.6464
      -409.766        -319.298
  -5459658.397 9  -4225117.70446  22825716.479    22825717.3384   22825724.5194
      4075.250        3175.519
 -12727544.725 9  -9900602.86448  19219457.021    19219457.5154   19219463.5204
       587.822         458.043
  -3515158.251 9  -2730358.83146  23261108.882    23261109.3294   23261116.8374
     -1269.236        -989.015
 97  5 12 17  8 29.9960000  0  7  4  2 27 26  9  7 15               -0.003351416
 -11853242.509 9  -8907067.22046  22565312.857    22565313.5444   22565321.3714
      4346.149        3386.610
  -4563572.903 9  -3546532.80048  20312336.354    20312336.4274   20312342.2354
       111.677          87.021
   5253546.225 9   4098173.96147  21219293.833    21219294.3964   21219301.3914
     -2335.001       -1819.481
  -7800236.463 9  -5557452.22248  21885312.929    21885314.0444   21885320.5574
      -424.474        -330.759
  -5581861.025 9  -4320340.53146  22802461.719    22802462.9894   22802470.0914
      4070.809        3172.059
 -12744972.736 9  -9914183.13148  19216140.643    19216141.0844   19216147.0754
       573.336         446.755
  -3476853.970 8  -2700511.38046  23268397.725    23268398.1954   23268405.7894
     -1285.160       -1001.423
 97  5 12 17  8 59.9960000  0  7  4  2 27 26  9  7 15               -0.003368009
 -11983609.037 9  -9008651.54946  22540504.687    22540505.6204   22540513.3504
      4344.573        3385.381
  -4566856.213 9  -3549091.23948  20311711.416    20311711.6444   20311717.4714
       106.972          83.355
   5323728.241 9   4152861.19547  21232649.236    21232649.5944   21232656.6144
     -2344.065       -1826.544
  -7787300.209 9  -5547372.06947  21887775.000    21887775.7524   21887782.2444
      -438.148        -341.414
  -5703939.497 9  -4415466.56546  22779230.677    22779232.1594   22779239.3334
      4067.257        3169.291
 -12761995.546 9  -9927447.65948  19212901.269    19212901.7514   19212907.7514
       561.325         437.396
  -3438082.462 9  -2670299.89946  23275775.759    23275776.2354   23275783.9154
     -1299.859       -1012.877
 97  5 12 17  9 29.9960000  0  7  4  2 27 26  9  7 15               -0.003384584
 -12113879.907 9  -9110161.31446  22515715.005    22515715.9344   22515723.5244
      4339.712        3381.594
  -4569957.790 9  -3551508.06848  20311121.203    20311121.4334   20311127.2834
        99.343          77.410
   5394220.773 9   4207790.40447  21246063.510    21246063.8974   21246070.9234
     -2355.938       -1835.796
  -7773916.109 9  -5536942.93148  21890321.872    21890322.6634   21890329.1854
      -454.489        -354.147
  -5825859.060 9  -4510468.76146  22756029.936    22756031.5064   22756038.7914
      4060.356        3163.914
 -12778628.544 9  -9940408.43648  19209735.941    19209736.5514   19209742.5614
       547.099         426.311
  -3398831.251 8  -2639714.58646  23283244.934    23283245.5624   23283253.4644
     -1317.267       -1026.442
 97  5 12 17  9 59.9960000  0  7  4  2 27 26  9  7 15               -0.003401133
 -12244046.030 9  -9211589.44246  22490945.267    22490946.1884   22490953.6754
      4336.950        3379.442
  -4572869.264 9  -3553776.76648  20310567.148    20310567.4294   20310573.2914
        93.572          72.913
   5465030.814 9   4262967.01047  21259538.082    21259538.6374   21259545.6694
     -2365.799       -1843.480
  -7760083.901 9  -5526164.62148  21892953.913    21892954.8654   21892961.4304
      -468.651        -365.183
  -5947607.900 9  -4605337.96046  22732862.119    22732863.5014   22732870.6994
      4055.269        3159.950
 -12794872.357 9  -9953065.95548  19206644.941    19206645.4264   19206651.4284
       534.791         416.720
  -3359101.743 9  -2608756.57846  23290805.498    23290805.7784   23290813.6924
     -1332.385       -1038.222
 97  5 12 17 10 29.9960000  0  7  4  2 27 26  9  7 15               -0.003417653
 -12374095.360 9  -9312926.53246  22466197.733    22466198.6914   22466206.1274
      4333.103        3376.444
  -4575571.675 9  -3555882.55848  20310052.859    20310053.2014   20310059.0694
        86.690          67.551
   5536169.487 9   4318399.70947  21273075.307    21273075.8974   21273082.9524
     -2376.699       -1851.973
  -7745798.597 9  -5515033.25647  21895672.304    21895673.2764   21895679.8934
      -483.465        -376.726
  -6069177.611 9  -4700067.58646  22709728.700    22709729.5854   22709736.7224
      4049.581        3155.518
 -12810715.784 9  -9965411.48448  19203629.974    19203630.5384   19203636.5604
       521.470         406.340
  -3318889.339 9  -2577422.24046  23298457.752    23298458.0564   23298465.8124
     -1348.395       -1050.697
 97  5 12 17 10 59.9960000  0  7  4  2 27 26  9  7 15               -0.003434139
 -12504010.000 9  -9414158.65946  22441476.051    22441476.6484   22441484.1824
      4328.319        3372.716
  -4578050.150 9  -3557813.85648  20309581.138    20309581.5744   20309587.4614
        79.080          61.621
   5607650.764 9   4374099.37247  21286677.764    21286678.3484   21286685.4264
     -2388.319       -1861.028
  -7731058.536 9  -5503547.53748  21898477.357    21898478.2044   21898484.8244
      -498.727        -388.618
  -6190560.653 9  -4794651.68446  22686630.255    22686630.9484   22686638.2764
      4043.039        3150.420
 -12826146.395 9  -9977435.34148  19200693.788    19200694.2354   19200700.2284
       507.617         395.546
  -3278179.102 9  -2545700.08146  23306204.170    23306204.8584   23306212.9454
     -1365.107       -1063.720
 97  5 12 17 11 29.9960000  0  7  4  2 27 26  9  7 15               -0.003450600
 -12633802.380 9  -9515295.50146  22416776.989    22416777.9464   22416785.5604
      4325.208        3370.292
  -4580318.480 9  -3559581.40048  20309149.509    20309149.9624   20309155.8394
        72.885          56.794
   5679470.386 9   4430062.69647  21300344.483    21300345.1894   21300352.3034
     -2399.095       -1869.425
  -7715882.651 9  -5491722.21448  21901365.444    21901366.1634   21901372.7754
      -512.205        -399.121
  -6311764.727 9  -4889096.39146  22663565.990    22663566.6794   22663573.7484
      4038.167        3146.624
 -12841166.745 9  -9989139.51248  19197835.610    19197835.9534   19197841.9454
       494.287         385.159
  -3236986.629 9  -2513602.08346  23314042.700    23314043.6744   23314051.6214
     -1380.349       -1075.597
 97  5 12 17 11 59.9960000  0  7  4  2 27 26  9  7 15               -0.003467054
 -12763476.201 9  -9616339.94246  22392100.400    22392101.8404   22392109.4234
      4320.592        3366.695
  -4582381.126 9  -3561188.67048  20308757.060    20308757.4664   20308763.3644
        65.378          50.944
   5751640.794 9   4486299.35047  21314078.102    21314078.7834   21314085.9004
     -2411.384       -1879.001
  -7700277.914 9  -5479562.72947  21904335.042    21904335.6764   21904342.3084
      -527.174        -410.785
  -6432807.952 9  -4983415.76546  22640532.480    22640533.0584   22640540.0244
      4032.305        3142.056
 -12855750.081 9 -10000503.15148  19195060.545    19195060.8634   19195066.8484
       478.850         373.130
  -3195312.268 8  -2481128.55545  23321973.198    23321973.9064   23321981.6014
     -1397.026       -1088.592
 97  5 12 17 12 29.9960000  0  7  4  2 27 26  9  7 15               -0.003483506
 -12893025.089 9  -9717287.03346  22367447.736    22367449.4194   22367457.0254
      4317.208        3364.058
  -4584228.513 9  -3562628.20948  20308405.405    20308405.9164   20308411.8444
        59.101          46.053
   5824166.084 9   4542812.52247  21327879.277    21327879.9254   21327887.0214
     -2422.356       -1887.550
  -7684248.763 9  -5467072.51947  21907384.945    21907385.9164   21907392.6034
      -540.377        -421.073
  -6553696.379 9  -5077614.45946  22617528.387    22617528.6754   22617535.7674
      4028.043        3138.735
 -12869885.132 9 -10011517.47848  19192370.780    19192371.0634   19192377.0304
       464.753         362.145
  -3153156.246 9  -2448279.73546  23329995.542    23329996.2354   23330003.7994
     -1412.170       -1100.392
 97  5 12 17 12 59.9960000  0  7  4  2 27 26  9  7 15               -0.003499877
 -13022465.008 9  -9818149.19946  22342816.396    22342817.7604   22342825.2994
      4312.848        3360.661
  -4585888.977 9  -3563922.09348  20308089.454    20308089.9354   20308095.8864
        52.356          40.797
   5897019.975 9   4599581.74847  21341743.293    21341743.6094   21341750.6894
     -2433.760       -1896.436
  -7667817.282 9  -5454268.80947  21910511.874    21910512.7654   21910519.4644
      -554.270        -431.899
  -6674445.822 9  -5171704.87446  22594550.174    22594550.7864   22594557.8674
      4022.625        3134.513
 -12883602.361 9 -10022206.22948  19189760.295    19189760.7764   19189766.7274
       450.533         351.065
  -3110542.482 9  -2415074.31046  23338104.689    23338105.4554   23338113.2274
     -1427.851       -1112.611
 97  5 12 17 13 29.9960000  0  7  4  2 27 26  9  7 15               -0.003516328
 -13151771.503 9  -9918907.41246  22318210.104    22318211.4724   22318219.0504
      4307.389        3356.407
  -4587340.310 9  -3565053.01648  20307813.251    20307813.7554   20307819.6984
        44.173          34.421
   5970218.268 9   4656619.33947  21355672.151    21355672.8334   21355679.8974
     -2446.328       -1906.230
  -7650975.569 9  -5441145.43447  21913716.924    21913717.6634   21913724.3274
      -568.757        -443.187
  -6795030.994 9  -5265667.33846  22571603.884    22571604.3264   22571611.2514
      4016.288        3129.575
 -12896882.389 9 -10032554.30048  19187233.345    19187233.7154   19187239.6414
       434.763         338.776
  -3067456.779 9  -2381501.05045  23346303.340    23346304.3994   23346311.8574
     -1444.635       -1125.690
 97  5 12 17 13 59.9960000  0  7  4  2 27 26  9  7 15               -0.003532775
 -13280934.561 9 -10019553.87146  22293631.176    22293632.5094   22293640.1004
      4303.332        3353.246
  -4588563.917 9  -3566006.49048  20307580.633    20307580.8964   20307586.8664
        37.172          28.965
   6043767.566 9   4713930.44747  21369667.936    21369668.8734   21369675.8694
     -2456.973       -1914.524
  -7633717.495 9  -5427697.61147  21917001.235    21917001.7764   21917008.4834
      -581.972        -453.485
  -6915448.326 9  -5359498.94547  22548688.988    22548689.5794   22548696.5074
      4011.267        3125.663
 -12909717.293 9 -10042555.51848  19184790.895    19184791.3924   19184797.2664
       420.848         327.934
  -3023892.933 9  -2347555.18646  23354593.578    23354594.4124   23354601.7294
     -1459.741       -1137.461
 97  5 12 17 14 29.9960000  0  7  4  2 27 26  9  7 15               -0.003549221
 -13409981.357 9 -10120109.72046  22269074.437    22269075.6444   22269083.1574
      4298.407        3349.408
  -4589584.481 9  -3566801.74948  20307386.249    20307386.6974   20307392.6974
        29.702          23.144
   6117626.902 9   4771483.13447  21383723.359    21383723.8984   21383730.8964
     -2468.157       -1923.239
  -7616067.652 9  -5413944.51448  21920360.107    21920360.4654   21920367.1844
      -596.195        -464.567
  -7035712.651 9  -5453211.39347  22525803.581    22525803.9894   22525810.8554
      4004.912        3120.711
 -12922151.509 9 -10052244.51648  19182424.876    19182425.2714   19182431.1124
       406.749         316.947
  -2979885.524 9  -2313263.77446  23362968.130    23362968.8144   23362976.3894
     -1475.499       -1149.739
 97  5 12 17 14 59.9960000  0  7  4  2 27 26  9  7 15               -0.003565652
 -13538890.385 9 -10220558.23346  22244543.650    22244545.0384   22244552.5314
      4295.946        3347.490
  -4590396.539 9  -3567434.53748  20307231.761    20307232.1934   20307238.2364
        24.774          19.304
   6191798.215 9   4829278.91347  21397837.898    21397838.2304   21397845.2664
     -2476.241       -1929.538
  -7597991.032 9  -5399858.87247  21923799.872    21923800.3194   21923807.0914
      -608.517        -474.169
  -7155794.558 9  -5546781.64946  22502952.654    22502953.1714   22502960.0864
      4000.918        3117.598
 -12934176.988 9 -10061615.01948  19180136.497    19180136.9084   19180142.7314
       395.133         307.896
  -2935413.751 8  -2278610.49645  23371430.497    23371431.2964   23371439.1134
     -1488.887       -1160.172
 97  5 12 17 15 29.9960000  0  7  4  2 27 26  9  7 15               -0.003582092
 -13667681.463 9 -10320914.81046  22220035.729    22220036.8754   22220044.3614
      4290.614        3343.336
  -4591007.647 9  -3567910.73448  20307115.512    20307115.9294   20307122.0214
        16.579          12.919
   6266260.863 9   4887301.70947  21412007.450    21412007.9974   21412015.0464
     -2487.398       -1938.232
  -7579492.393 9  -5385444.38247  21927319.772    21927320.5334   21927327.2864
      -624.431        -486.570
  -7275706.828 9  -5640219.74147  22480133.924    22480134.5924   22480141.5584
      3993.632        3111.921
 -12945789.626 9 -10070663.82648  19177926.670    19177927.1034   19177932.9164
       379.576         295.774
  -2890488.531 9  -2243603.83045  23379979.322    23379980.3954   23379987.7084
     -1505.603       -1173.197
 97  5 12 17 15 59.9960000  0  7  4  2 27 26  9  7 15               -0.003598545
 -13796364.676 9 -10421187.34346  22195547.766    22195549.2524   22195556.6604
      4287.964        3341.271
  -4591429.035 9  -3568239.10948  20307035.399    20307035.7564   20307041.8814
        11.167           8.702
   6340999.552 9   4945539.60047  21426230.128    21426230.3744   21426237.3694
     -2495.450       -1944.506
  -7560554.632 9  -5370687.73047  21930923.661    21930924.2624   21930931.0604
      -638.358        -497.422
  -7395435.819 9  -5733515.05147  22457350.113    22457350.9374   22457357.8354
      3987.937        3107.483
 -12956988.073 9 -10079389.89348  19175795.669    19175796.0854   19175801.8894
       366.598         285.661
  -2845109.764 8  -2208243.72946  23388615.204    23388615.8354   23388623.1604
     -1520.008       -1184.422
 97  5 12 17 16 29.9960000  0  7  4  2 27 26  9  7 15               -0.003615024
 -13924966.458 9 -10521396.41446  22171075.658    22171076.9904   22171084.5024
      4284.956        3338.927
  -4591680.741 9  -3568435.24948  20306987.414    20306987.8694   20306994.0094
         5.164           4.024
   6415981.865 9   5003967.34747  21440498.381    21440499.0724   21440506.0434
     -2503.928       -1951.113
  -7541193.787 9  -5355601.38247  21934607.854    21934608.5624   21934615.3944
      -652.685        -508.586
  -7514981.893 9  -5826667.82146  22434601.381    22434602.0904   22434608.7954
      3981.438        3102.419
 -12967790.267 9 -10087807.18248  19173739.990    19173740.5014   19173746.3054
       353.065         275.115
  -2799294.516 8  -2172543.74246  23397333.367    23397333.8694   23397342.0734
     -1534.842       -1195.981
 97  5 12 17 16 59.9960000  0  7  4  2 27 26  9  7 15               -0.003631537
 -14053499.914 9 -10621552.26146  22146616.386    22146617.8014   22146625.2634
      4281.673        3336.369
  -4591763.378 9  -3568499.66248  20306971.523    20306972.1914   20306978.3064
        -2.017          -1.572
   6491206.520 9   5062583.93647  21454813.233    21454813.9144   21454820.8674
     -2513.492       -1958.565
  -7521427.745 9  -5340199.30647  21938369.240    21938369.9034   21938376.7224
      -667.002        -519.742
  -7634354.627 9  -5919685.52047  22411885.475    22411886.2794   22411892.9514
      3974.505        3097.017
 -12978197.898 9 -10095917.03348  19171759.418    19171760.0134   19171765.8174
       338.432         263.713
  -2753048.389 8  -2136507.76645  23406133.892    23406134.5724   23406142.0544
     -1550.384       -1208.091
 97  5 12 17 17 29.9960000  0  7  4  2 27 26  9  7 15               -0.003648053
 -14181926.996 9 -10721625.25546  22122177.633    22122178.8814   22122186.2674
      4279.257        3334.486
  -4591621.576 9  -3568389.18148  20306998.630    20306999.1784   20307005.2844
        -8.069          -6.288
   6566735.093 9   5121437.34647  21469186.204    21469186.5464   21469193.5464
     -2522.449       -1965.545
  -7501239.825 9  -5324468.49247  21942210.849    21942211.5634   21942218.4004
      -679.460        -529.449
  -7753506.599 9  -6012531.14547  22389211.674    22389212.3184   22389219.0094
      3968.264        3092.154
 -12988161.807 9 -10103681.12548  19169863.504    19169863.9634   19169869.7654
       325.303         253.483
  -2706334.851 8  -2100107.57445  23415023.446    23415023.9754   23415031.3984
     -1564.489       -1219.082
 97  5 12 17 17 59.9960000  0  7  4  2 27 26  9  7 15               -0.003664555
 -14310233.549 9 -10821604.36246  22097761.824    22097762.9354   22097770.2114
      4274.273        3330.602
  -4591258.814 9  -3568106.51948  20307067.725    20307068.2324   20307074.3154
       -16.288         -12.692
   6642577.548 9   5180535.32447  21483618.539    21483618.8934   21483625.8964
     -2533.780       -1974.374
  -7480643.538 9  -5308419.46347  21946130.218    21946130.9384   21946137.7584
      -693.565        -540.440
  -7872441.531 9  -6105207.70047  22366579.494    22366579.7894   22366586.3394
      3960.771        3086.315
 -12997706.216 9 -10111118.32848  19168047.217    19168047.7204   19168053.5044
       311.092         242.409
  -2659161.619 8  -2063349.38146  23423999.850    23424000.5764   23424008.4424
     -1580.413       -1231.491
 97  5 12 17 18 29.9960000  0  7  4  2 27 26  9  7 15               -0.003681042
 -14438407.073 9 -10921479.80246  22073371.179    22073372.2434   22073379.5364
      4269.320        3326.743
  -4590676.305 9  -3567652.63048  20307178.646    20307179.0884   20307185.1984
       -23.593         -18.384
   6718735.863 9   5239879.41647  21498111.014    21498111.3754   21498118.3594
     -2544.575       -1982.786
  -7459666.236 9  -5292073.53547  21950122.136    21950122.8944   21950129.6634
      -706.030        -550.153
  -7991197.079 9  -6197744.45147  22343981.330    22343981.3704   22343987.9054
      3955.190        3081.966
 -13006861.702 9 -10118252.47548  19166304.983    19166305.4974   19166311.2734
       298.258         232.409
  -2611546.729 9  -2026246.89646  23433060.838    23433061.6134   23433069.2854
     -1595.063       -1242.906
 97  5 12 17 18 59.9960000  0  7  4  2 27 26  9  7 15               -0.003697516
 -14566424.015 9 -11021233.26347  22049010.072    22049011.4224   22049018.7044
      4264.319        3322.846
  -4589888.987 9  -3567039.16048  20307328.510    20307328.9424   20307335.0464
       -29.699         -23.142
   6795210.285 9   5299469.82947  21512663.431    21512663.9964   21512671.0224
     -2554.471       -1990.497
  -7438319.573 9  -5275439.80447  21954184.479    21954185.0594   21954191.8854
      -717.948        -559.440
  -8109793.997 9  -6290157.63647  22321413.081    22321413.1964   22321419.5394
      3950.348        3078.193
 -13015644.928 9 -10125096.55948  19164633.575    19164634.1144   19164639.8974
       286.550         223.286
  -2563502.054 8  -1988809.48145  23442203.678    23442204.4674   23442211.9704
     -1608.754       -1253.575
 97  5 12 17 19 29.9960000  0  7  4  2 27 26  9  7 15               -0.003713954
 -14694237.386 9 -11120828.07546  22024688.126    22024689.3044   22024696.6484
      4257.309        3317.384
  -4588883.085 9  -3566255.35648  20307520.062    20307520.3974   20307526.4724
       -36.481         -28.427
   6872014.379 9   5359317.12847  21527278.719    21527279.3644   21527286.4254
     -2564.868       -1998.598
  -7416571.487 9  -5258493.27747  21958323.018    21958323.5744   21958330.4414
      -731.265        -569.817
  -8228202.419 9  -6382423.88747  22298880.643    22298880.7114   22298887.1094
      3944.292        3073.474
 -13024047.314 9 -10131643.87348  19163034.740    19163035.1794   19163040.9524
       274.378         213.801
  -2515010.942 8  -1951024.31746  23451430.895    23451431.6854   23451439.4644
     -1623.312       -1264.918
 97  5 12 17 19 59.9960000  0  7  4  2 27 26  9  7 15               -0.003730375
 -14821852.951 9 -11220268.76047  22000403.493    22000404.8404   22000412.1474
      4250.290        3311.914
  -4587691.916 9  -3565327.19348  20307746.712    20307747.0984   20307753.1604
       -43.188         -33.653
   6949105.377 9   5419388.00447  21541948.337    21541949.3474   21541956.3894
     -2574.593       -2006.176
  -7394430.453 9  -5241240.54847  21962536.236    21962536.9234   21962543.7514
      -744.857        -580.408
  -8346444.591 9  -6474560.61447  22276379.697    22276379.9554   22276386.2844
      3938.190        3068.719
 -13032098.462 9 -10137917.49948  19161502.679    19161503.0854   19161508.8874
       262.109         204.241
  -2466095.825 8  -1912908.66046  23460739.578    23460740.1104   23460747.7184
     -1637.898       -1276.284
 97  5 12 17 20 29.9960000  0  7  4  2 27 26  9  7 15               -0.003746777
 -14949272.764 9 -11319556.87947  21976156.484    21976157.5944   21976164.9764
      4244.290        3307.239
  -4586304.233 9  -3564245.90048  20308010.907    20308011.2094   20308017.2594
       -49.475         -38.552
   7026469.527 9   5479671.74247  21556670.403    21556671.3114   21556678.3234
     -2583.316       -2012.974
  -7371896.991 9  -5223682.05047  21966824.103    21966824.8914   21966831.7854
      -757.569        -590.313
  -8464495.055 9  -6566547.96947  22253915.264    22253915.6994   22253922.0674
      3931.498        3063.505
 -13039780.080 9 -10143903.17948  19160040.943    19160041.3584   19160047.1564
       249.681         194.557
  -2416753.921 8  -1874460.45545  23470129.262    23470129.6464   23470137.1664
     -1651.813       -1287.127
 97  5 12 17 20 59.9960000  0  7  4  2 27 26  9  7 15               -0.003763149
 -15076494.792 9 -11418690.89847  21951946.587    21951948.0424   21951955.3824
      4238.186        3302.483
  -4584695.162 9  -3562992.10048  20308317.068    20308317.4144   20308323.4524
       -56.950         -44.377
   7104124.674 9   5540182.20347  21571447.659    21571448.6354   21571455.6514
     -2592.911       -2020.450
  -7348951.809 9  -5205802.71347  21971190.424    21971191.2434   21971198.1374
      -771.112        -600.866
  -8582300.252 9  -6658344.16847  22231497.515    22231497.9844   22231504.3464
      3923.072        3056.939
 -13047055.875 9 -10149572.62848  19158656.408    19158656.8204   19158662.5874
       236.196         184.049
  -2366962.351 8  -1835661.87146  23479604.233    23479604.4834   23479612.2734
     -1666.776       -1298.786
 97  5 12 17 21 29.9960000  0  7  4  2 27 26  9  7 15               -0.003779501
 -15203549.069 9 -11517694.20147  21927769.042    21927770.4744   21927777.6894
      4232.671        3298.185
  -4582870.486 9  -3561570.29948  20308664.325    20308664.6774   20308670.6784
       -64.034         -49.897
   7182052.571 9   5600905.18947  21586277.073    21586277.8584   21586284.8504
     -2601.713       -2027.309
  -7325621.016 9  -5187622.91847  21975629.926    21975630.9564   21975637.9134
      -783.678        -610.658
  -8699869.971 9  -6749956.94347  22209125.136    22209125.3254   22209131.5584
      3915.499        3051.038
 -13053934.876 9 -10154932.89948  19157347.411    19157347.7504   19157353.5344
       222.976         173.748
  -2316737.812 9  -1796525.94846  23489161.678    23489162.0394   23489169.7424
     -1680.934       -1309.819
 97  5 12 17 21 59.9960000  0  7  4  2 27 26  9  7 15               -0.003795850
 -15330445.464 9 -11616574.46847  21903621.627    21903622.9014   21903630.0594
      4228.275        3294.760
  -4580834.020 9  -3559983.46248  20309051.810    20309052.2334   20309058.2314
       -70.609         -55.020
   7260241.985 9   5661831.95347  21601155.879    21601156.8474   21601163.8744
     -2609.781       -2033.596
  -7301918.759 9  -5169153.66147  21980140.544    21980141.4024   21980148.3044
      -795.159        -619.604
  -8817212.320 9  -6841392.50147  22186795.450    22186795.7764   22186802.0964
      3908.675        3045.721
 -13060415.329 9 -10159982.61248  19156114.227    19156114.5544   19156120.3584
       210.331         163.894
  -2266087.720 8  -1757058.39745  23498800.182    23498800.4624   23498808.1544
     -1694.385       -1320.300
 97  5 12 17 22 29.9960000  0  7  4  2 27 26  9  7 15               -0.003812211
 -15457206.711 9 -11715349.42447  21879499.708    21879501.0294   21879508.1644
      4223.835        3291.300
  -4578593.661 9  -3558237.74848  20309478.128    20309478.5734   20309484.5844
       -77.114         -60.089
   7338677.693 9   5722950.61147  21616082.230    21616082.6534   21616089.7504
     -2618.009       -2040.007
  -7277871.494 9  -5150415.54447  21984716.696    21984717.5094   21984724.3264
      -806.618        -628.534
  -8934354.733 9  -6932672.24247  22164503.540    22164504.1994   22164510.5584
      3902.450        3040.870
 -13066514.224 9 -10164735.00048  19154953.705    19154953.9924   19154959.7944
       197.756         154.096
  -2215037.307 9  -1717278.82946  23508514.658    23508514.9594   23508522.3884
     -1707.536       -1330.548
 97  5 12 17 22 59.9960000  0  7  4  2 27 26  9  7 15               -0.003828582
 -15583795.464 9 -11813989.95947  21855410.654    21855411.9034   21855419.0994
      4216.281        3285.414
  -4576138.641 9  -3556324.76248  20309945.311    20309945.7714   20309951.7894
       -85.613         -66.711
   7417391.581 9   5784286.05146  21631060.648    21631061.4694   21631068.5444
     -2628.510       -2048.190
  -7253450.861 9  -5131386.52647  21989363.887    21989364.6094   21989371.5114
      -820.567        -639.403
  -9051294.316 9  -7023794.02347  22142250.368    22142251.4484   22142257.6244
      3894.547        3034.712
 -13072210.629 9 -10169173.75948  19153869.746    19153869.9864   19153875.8074
       182.949         142.558
  -2163564.462 8  -1677170.18446  23518309.770    23518309.9534   23518317.7424
     -1723.032       -1342.622
 97  5 12 17 23 29.9960000  0  7  4  2 27 26  9  7 15               -0.003844974
 -15710202.830 9 -11912489.13847  21831355.740    21831357.3284   21831364.5954
      4210.045        3280.555
  -4573478.530 9  -3554251.97048  20310451.630    20310452.0104   20310458.0294
       -92.635         -72.183
   7496363.967 9   5845822.92946  21646088.730    21646089.4224   21646096.5054
     -2637.176       -2054.942
  -7228656.014 9  -5112065.91347  21994082.180    21994082.9654   21994089.7684
      -833.264        -649.297
  -9168054.151 9  -7114775.64847  22120031.940    22120032.6684   22120038.9364
      3888.400        3029.922
 -13077516.166 9 -10173307.95048  19152860.112    19152860.3684   19152866.2164
       169.921         132.406
  -2111684.337 8  -1636744.25946  23528181.857    23528182.4794   23528190.3974
     -1736.531       -1353.141
 97  5 12 17 23 59.9960000  0  7  4  2 27 26  9  7 15               -0.003861378
 -15836427.050 9 -12010845.62947  21807336.227    21807337.6464   21807344.8754
      4204.795        3276.464
  -4570593.099 9  -3552003.61048  20311000.798    20311001.1304   20311007.1294
       -99.933         -77.870
   7575604.987 9   5907569.12746  21661167.636    21661168.5434   21661175.5944
     -2645.761       -2061.632
  -7203468.442 9  -5092439.28747  21998875.268    21998876.0454   21998882.8764
      -845.973        -659.200
  -9284616.963 9  -7205603.75547  22097851.076    22097851.4274   22097857.8074
      3882.343        3025.202
 -13082422.368 9 -10177130.97348  19151926.323    19151926.7274   19151932.6184
       157.197         122.491
  -2059386.274 8  -1595992.42745  23538134.188    23538134.6534   23538141.9634
     -1750.021       -1363.653
 97  5 12 17 24 29.9960000  0  7  4  2 27 26  9  7 15               -0.003877808
 -15962511.444 9 -12109093.14347  21783343.329    21783344.5974   21783351.7234
      4200.983        3273.493
  -4567501.980 9  -3549594.96748  20311588.955    20311589.3854   20311595.3684
      -105.890         -82.512
   7655094.547 9   5969508.99046  21676294.396    21676294.9924   21676301.9874
     -2653.452       -2067.625
  -7177913.990 9  -5072526.77647  22003737.992    22003738.8724   22003745.7234
      -857.441        -668.136
  -9401016.352 9  -7296304.58847  22075700.954    22075701.4864   22075707.6884
      3877.588        3021.497
 -13086965.378 9 -10180670.98348  19151061.805    19151062.1784   19151068.0764
       145.828         113.632
  -2006702.130 8  -1554939.91745  23548159.620    23548160.1984   23548167.7834
     -1762.148       -1373.102
 97  5 12 17 24 59.9960000  0  7  4  2 27 26  9  7 15               -0.003894271
 -16088476.692 9 -12207247.83647  21759372.890    21759374.1594   21759381.2794
      4195.860        3269.501
  -4564236.842 9  -3547050.72648  20312210.453    20312210.7194   20312216.7514
      -112.770         -87.873
   7734810.264 9   6031625.05846  21691463.599    21691464.3824   21691471.5004
     -2661.721       -2074.068
  -7152020.411 9  -5052350.02147  22008665.169    22008666.2054   22008673.1514
      -869.591        -677.603
  -9517265.663 9  -7386888.42447  22053579.365    22053579.8694   22053586.1244
      3871.388        3016.666
 -13091178.944 9 -10183954.29148  19150259.897    19150260.3394   19150266.2894
       134.148         104.531
  -1953655.819 9  -1513605.24246  23558254.282    23558254.6184   23558262.4094
     -1775.172       -1383.251
 97  5 12 17 25 29.9960000  0  7  4  2 27 26  9  7 15               -0.003910714
 -16214255.642 9 -12305257.38747  21735437.800    21735439.1254   21735446.2154
      4190.417        3265.260
  -4560729.923 9  -3544318.08448  20312877.935    20312878.0774   20312884.0834
      -119.968         -93.482
   7814812.092 9   6093964.06546  21706687.976    21706688.2464   21706695.4124
     -2670.677       -2081.047
  -7125734.427 9  -5031867.48447  22013667.296    22013668.3244   22013675.2574
      -881.530        -686.906
  -9633283.123 9  -7477291.58247  22031501.412    22031502.4014   22031508.8044
      3864.070        3010.964
 -13095002.564 9 -10186933.73848  19149532.124    19149532.7174   19149538.7174
       121.876          94.968
  -1900181.537 8  -1471936.96345  23568430.419    23568430.6064   23568438.2634
     -1788.783       -1393.857
 97  5 12 17 25 59.9960000  0  7  4  2 27 26  9  7 15               -0.003927146
 -16339865.895 9 -12403135.47547  21711535.342    21711536.2574   21711543.2934
      4184.215        3260.427
  -4557013.180 9  -3541421.94348  20313585.247    20313585.3234   20313591.3584
      -126.847         -98.842
   7895080.374 9   6156510.71946  21721962.675    21721962.8494   21721970.0794
     -2679.634       -2088.026
  -7099101.020 9  -5011114.22447  22018735.645    22018736.5314   22018743.4404
      -893.111        -695.931
  -9749082.125 9  -7567524.56047  22009465.779    22009466.6194   22009472.9424
      3856.722        3005.238
 -13098464.755 9 -10189631.56148  19148873.407    19148873.8644   19148879.9144
       109.774          85.538
  -1846303.163 8  -1429953.83345  23578682.665    23578682.6624   23578690.6134
     -1802.271       -1404.367
 97  5 12 17 26 29.9960000  0  7  4  2 27 26  9  7 15               -0.003943593
 -16465302.220 9 -12500878.01347  21687665.346    21687666.4854   21687673.5714
      4176.713        3254.582
  -4553133.257 9  -3538398.64648  20314323.390    20314323.6604   20314329.6974
      -133.204        -103.795
   7975577.739 9   6219235.87046  21737280.434    21737281.0344   21737288.2114
     -2688.255       -2094.744
  -7072164.804 9  -4990125.01047  22023861.506    22023862.3294   22023869.2464
      -903.960        -704.384
  -9864688.350 9  -7657607.31447  21987466.863    21987467.5114   21987473.7794
      3848.720        2999.003
 -13101597.421 9 -10192072.60948  19148277.464    19148277.7534   19148283.8184
        97.499          75.973
  -1792057.337 9  -1387684.42446  23589005.411    23589005.7424   23589013.4574
     -1815.599       -1414.752
 97  5 12 17 26 59.9960000  0  7  4  2 27 26  9  7 15               -0.003960006
 -16590473.672 9 -12598414.16247  21663846.198    21663847.1334   21663854.1984
      4170.110        3249.436
  -4549024.360 9  -3535196.93048  20315105.350    20315105.5924   20315111.6324
      -138.861        -108.203
   8056360.563 9   6282183.48546  21752652.944    21752653.5064   21752660.6904
     -2695.255       -2100.199
  -7044875.696 9  -4968860.82147  22029054.541    22029055.2594   22029062.2854
      -913.325        -711.682
  -9980006.822 9  -7747465.81547  21965522.298    21965523.0704   21965529.3834
      3841.125        2993.084
 -13104322.150 9 -10194195.78148  19147758.958    19147759.2694   19147765.3394
        85.973          66.992
  -1737373.168 8  -1345073.46945  23599411.740    23599411.8834   23599419.7274
     -1828.011       -1424.424
 97  5 12 17 27 29.9960000  0  8  4  2 27 26  9  7 24 15            -0.003976430
 -16715447.761 9 -12695796.53447  21640064.245    21640065.3094   21640072.3774
      4162.579        3243.568
  -4544728.501 9  -3531849.52848  20315922.826    20315923.0974   20315929.1174
      -146.552        -114.196
   8137359.009 9   6345299.10046  21768066.297    21768066.9854   21768074.1854
     -2703.601       -2106.702
  -7017300.108 9  -4947373.38347  22034301.953    22034302.7634   22034309.7264
      -924.027        -720.021
 -10095092.619 9  -7837143.03947  21943622.327    21943622.9744   21943629.1624
      3832.380        2986.270
 -13106684.164 9 -10196036.31848  19147309.564    19147309.8244   19147315.8564
        72.648          56.609
   -835486.97519   -630854.36056  23810316.354    23810315.3165   23810325.3005
      4449.318        3467.001
  -1682313.095 8  -1302169.57145  23609888.848    23609889.1184   23609896.9514
     -1841.522       -1434.952
 97  5 12 17 27 59.9960000  0  8  4  2 27 26  9  7 24 15            -0.003992850
 -16840213.453 9 -12793016.52447  21616322.043    21616323.1784   21616330.2234
      4155.348        3237.934
  -4540209.965 9  -3528328.61248  20316782.739    20316782.9694   20316788.9944
      -154.485        -120.378
   8218586.037 9   6408592.83046  21783523.232    21783524.0384   21783531.2584
     -2711.401       -2112.780
  -6989408.024 9  -4925639.33947  22039609.555    22039610.4814   22039617.4774
      -935.338        -728.835
 -10209932.070 9  -7926628.28947  21921769.491    21921769.7554   21921775.9824
      3823.725        2979.526
 -13108669.443 9 -10197583.29548  19146931.800    19146932.0414   19146938.0864
        59.847          46.634
   -968985.760 8   -734879.32345  23784911.890    23784911.4324   23784921.3444
      4450.689        3468.069
  -1626866.800 8  -1258964.59946  23620440.199    23620440.4154   23620447.8794
     -1854.702       -1445.222
 97  5 12 17 28 29.9960000  0  8  4  2 27 26  9  7 24 15            -0.004009251
 -16964757.089 9 -12890063.47347  21592622.166    21592623.2904   21592630.2984
      4148.487        3232.587
  -4535438.470 9  -3524610.58448  20317691.013    20317691.0014   20317696.9914
      -162.804        -126.860
   8300060.217 9   6472079.13946  21799027.026    21799028.1454   21799035.3764
     -2719.606       -2119.173
  -6961157.688 9  -4903626.10947  22044985.539    22044986.4164   22044993.3964
      -947.338        -738.185
 -10324493.382 9  -8015896.83147  21899968.909    21899969.4874   21899975.7264
      3814.433        2972.285
 -13110254.435 9 -10198818.36448  19146630.227    19146630.4214   19146636.4374
        46.537          36.263
  -1102518.999 8   -838931.07945  23759501.096    23759500.7734   23759510.6684
      4452.287        3469.314
  -1571009.768 8  -1215439.78245  23631069.713    23631069.5534   23631077.5254
     -1868.221       -1455.757
 97  5 12 17 28 59.9950000  0  8  4  2 27 26  9  7 24 15            -0.004025661
 -17089146.708 9 -12986990.39447  21568951.539    21568952.7094   21568959.7014
      4142.344        3227.801
  -4530463.763 9  -3520734.20448  20318637.724    20318637.6734   20318643.6634
      -170.801        -133.092
   8381740.271 9   6535725.87346  21814570.232    21814571.4154   21814578.6084
     -2727.969       -2125.690
  -6932585.099 9  -4881361.76347  22050422.755    22050423.6324   22050430.5844
      -959.654        -747.782
 -10438824.502 9  -8104985.99147  21878212.380    21878212.9724   21878219.1454
      3806.080        2965.777
 -13111489.703 9 -10199780.91048  19146395.253    19146395.3914   19146401.3714
        33.808          26.344
  -1236144.667 9   -943054.91946  23734072.334    23734072.7274   23734082.5984
      4454.321        3470.899
  -1514793.113 9  -1171634.68745  23641767.221    23641767.4344   23641774.9384
     -1881.602       -1466.183
 97  5 12 17 29 29.9950000  0  8  4  2 27 26  9  7 24 15            -0.004042061
 -17213355.715 9 -13083776.61247  21545315.203    21545316.5614   21545323.4764
      4137.021        3223.653
  -4525261.304 9  -3516680.36548  20319627.796    20319627.6804   20319633.6684
      -176.990        -137.914
   8463676.109 9   6599571.89946  21830162.979    21830163.3464   21830170.5064
     -2735.504       -2131.562
  -6903633.930 9  -4858802.44447  22055932.133    22055932.8944   22055939.8824
      -971.553        -757.054
 -10552923.412 9  -8193894.18847  21856500.116    21856500.6714   21856506.8754
      3799.342        2960.526
 -13112361.186 9 -10200459.99648  19146229.518    19146229.5864   19146235.5594
        23.288          18.146
  -1369845.934 8  -1047237.64345  23708630.041    23708630.1284   23708639.9304
      4457.980        3473.751
  -1458184.342 8  -1127523.90845  23652539.565    23652539.8694   23652547.2004
     -1893.493       -1475.449
 97  5 12 17 29 59.9950000  0  8  4  2 27 26  9  7 24 15            -0.004058443
 -17337367.518 9 -13180409.14847  21521716.546    21521717.9284   21521724.7844
      4132.116        3219.831
  -4519856.541 9  -3512468.87948  20320656.172    20320656.1734   20320662.1624
      -181.508        -141.435
   8545869.274 9   6663618.46346  21845803.660    21845804.2364   21845811.4094
     -2742.232       -2136.804
  -6874287.586 9  -4835935.19147  22061516.430    22061517.3324   22061524.3704
      -982.918        -765.910
 -10666786.724 9  -8282618.84447  21834832.593    21834833.1264   21834839.3284
      3793.325        2955.838
 -13112898.269 9 -10200878.50748  19146127.329    19146127.4044   19146133.3434
        14.287          11.133
  -1503631.657 8  -1151486.19445  23683170.688    23683171.5974   23683181.2004
      4462.797        3477.504
  -1401189.306 8  -1083112.27945  23663385.628    23663385.5584   23663393.1584
     -1904.397       -1483.946
 97  5 12 17 30 29.9950000  0  8  4  2 27 26  9  7 24 15            -0.004074819
 -17461188.558 9 -13276893.04547  21498154.257    21498155.5724   21498162.3964
      4124.868        3214.183
  -4514285.029 9  -3508127.45948  20321716.373    20321716.4294   20321722.4334
      -187.731        -146.284
   8628306.539 9   6727855.24246  21861491.008    21861491.6274   21861498.7964
     -2751.266       -2143.844
  -6844575.253 9  -4812782.76147  22067170.544    22067171.3994   22067178.4844
      -995.544        -775.749
 -10780440.808 9  -8371180.44947  21813204.826    21813205.4154   21813211.6324
      3785.953        2950.093
 -13113128.807 9 -10201058.15148  19146083.359    19146083.5574   19146089.4814
         3.394           2.645
  -1637525.390 8  -1255818.91045  23657691.527    23657692.2574   23657702.0364
      4465.550        3479.649
  -1343831.434 8  -1038417.88545  23674300.471    23674300.5474   23674308.2384
     -1917.132       -1493.869
 97  5 12 17 30 59.9950000  0  8  4  2 27 26  9  7 24 15            -0.004091181
 -17584786.429 9 -13373203.03947  21474634.325    21474635.6364   21474642.4464
      4115.552        3206.924
  -4508522.463 9  -3503637.16548  20322812.902    20322813.0164   20322819.0154
      -196.018        -152.741
   8711009.636 9   6792299.16846  21877228.793    21877229.5884   21877236.8114
     -2761.527       -2151.839
  -6814497.438 9  -4789345.52647  22072894.045    22072895.0834   22072902.1874
     -1008.957        -786.200
 -10893880.877 9  -8459575.27947  21791618.132    21791618.5284   21791624.7464
      3777.162        2943.243
 -13113039.038 9 -10200988.20248  19146100.359    19146100.6694   19146106.5574
        -8.853          -6.898
  -1771495.584 8  -1360211.20545  23632197.561    23632198.6374   23632208.2584
      4466.183        3480.143
  -1286096.839 8   -993429.91545  23685286.977    23685286.9794   23685294.8924
     -1931.430       -1505.010
 97  5 12 17 31 29.9950000  0  7  4  2 27 26  9  7 24               -0.004107517
 -17708139.562 9 -13469322.32747  21451161.215    21451162.2884   21451169.1444
      4106.892        3200.176
  -4502547.291 9  -3498981.20448  20323949.922    20323950.0704   20323956.0854
      -203.455        -158.536
   8793965.443 9   6856940.01146  21893015.013    21893015.6334   21893022.8894
     -2770.107       -2158.525
  -6784063.475 9  -4765630.77747  22078685.466    22078686.4624   22078693.5254
     -1021.011        -795.593
 -11007086.861 9  -8547787.70047  21770075.606    21770076.0924   21770082.3104
      3768.593        2936.566
 -13112622.509 9 -10200663.63948  19146179.532    19146179.9274   19146185.7914
       -20.301         -15.819
  -1905523.593 8  -1464648.54545  23606693.170    23606693.9344   23606703.3864
      4467.641        3481.279
 97  5 12 17 31 59.9950000  0  7  4  2 27 26  9  7 24               -0.004123840
 -17831242.719 9 -13565246.82647  21427735.372    21427736.5364   21427743.3614
      4100.719        3195.365
  -4496354.995 9  -3494156.06748  20325128.061    20325128.4614   20325134.4834
      -208.755        -162.666
   8877166.897 9   6921772.27146  21908847.589    21908848.3244   21908855.6884
     -2775.921       -2163.055
  -6753292.651 9  -4741653.54147  22084541.080    22084541.9854   22084549.1024
     -1029.483        -802.195
 -11120040.900 9  -8635803.80947  21748580.819    21748581.6004   21748587.8024
      3762.402        2931.742
 -13111857.518 9 -10200067.54848  19146325.157    19146325.5064   19146331.3514
       -30.278         -23.593
  -2039603.846 8  -1569126.57345  23581178.946    23581179.3124   23581188.6564
      4471.617        3484.377
 97  5 12 17 32 29.9950000  0  7  4  2 27 26  9  7 24               -0.004140178
 -17954110.275 9 -13660987.73347  21404354.475    21404355.6114   21404362.3874
      4090.923        3187.732
  -4489945.709 9  -3489161.83548  20326347.685    20326348.1414   20326354.1654
      -218.085        -169.936
   8960593.869 9   6986780.25046  21924724.160    21924724.0164   21924731.3544
     -2785.406       -2170.446
  -6722227.632 9  -4717447.06047  22090452.492    22090453.4824   22090460.5944
     -1041.133        -811.272
 -11232747.982 9  -8723627.48947  21727133.373    21727134.1044   21727140.3244
      3751.736        2923.431
 -13110717.095 9 -10199178.90948  19146542.140    19146542.5234   19146548.3784
       -45.383         -35.363
  -2173739.874 8  -1673648.07345  23555652.673    23555654.0334   23555663.3934
      4471.083        3483.961
 97  5 12 17 32 59.9950000  0  7  4  2 27 26  9  7 24               -0.004156543
 -18076739.817 9 -13756543.16447  21381018.948    21381019.9784   21381026.6984
      4082.877        3181.463
  -4483309.171 9  -3483990.52248  20327610.533    20327611.0364   20327617.0624
      -225.812        -175.957
   9044239.911 9   7051958.93446  21940641.158    21940641.3724   21940648.7044
     -2792.458       -2175.941
  -6690870.287 9  -4693012.83647  22096419.620    22096420.6634   22096427.8064
     -1050.955        -818.926
 -11345178.563 9  -8811235.69247  21705738.460    21705739.2234   21705745.5514
      3742.091        2915.915
 -13109173.473 9 -10197976.09148  19146835.934    19146836.2794   19146842.1234
       -59.048         -46.011
  -2307920.752 8  -1778204.57445  23530118.608    23530120.1364   23530129.5464
      4472.853        3485.340
 97  5 12 17 33 29.9950000  0  7  4  2 27 26  9  7 24               -0.004172928
 -18199114.962 9 -13851900.36247  21357731.501    21357732.7204   21357739.4564
      4075.329        3175.581
  -4476433.289 9  -3478632.70948  20328919.016    20328919.4924   20328925.5124
      -232.678        -181.308
   9128106.826 9   7117309.70046  21956600.080    21956600.7164   21956608.1174
     -2798.928       -2180.983
  -6659199.694 9  -4668334.48247  22102446.407    22102447.4424   22102454.4764
     -1060.655        -826.484
 -11457311.543 9  -8898612.02347  21684399.908    21684401.0224   21684407.3274
      3733.366        2909.116
 -13107210.295 9 -10196446.34948  19147209.500    19147209.8604   19147215.7074
       -71.886         -56.015
  -2442149.610 8  -1882798.38045  23504576.243    23504577.2534   23504586.5034
      4475.544        3487.437
 97  5 12 17 33 59.9950000  0  7  4  2 27 26  9  7 24               -0.004189347
 -18321267.812 9 -13947084.35247  21334486.589    21334487.7474   21334494.4984
      4067.994        3169.865
  -4469339.157 9  -3473104.83148  20330269.067    20330269.4744   20330275.4844
      -240.505        -187.406
   9212170.106 9   7182813.47346  21972597.246    21972597.4854   21972604.8574
     -2805.380       -2186.010
  -6627233.578 9  -4643425.84947  22108529.415    22108530.4194   22108537.4264
     -1070.599        -834.233
 -11569187.182 9  -8985787.79847  21663110.686    21663111.7164   21663118.1144
      3724.902        2902.521
 -13104863.837 9 -10194617.94448  19147656.022    19147656.3974   19147662.2344
       -84.567         -65.896
  -2576460.929 8  -1987456.47545  23479017.893    23479018.5744   23479027.8294
      4478.195        3489.503
 97  5 12 17 34 29.9950000  0  7  4  2 27 26  9  7 24               -0.004205790
 -18443205.311 9 -14042100.54147  21311282.340    21311283.7544   21311290.5504
      4060.575        3164.084
  -4462015.881 9  -3467398.40148  20331662.721    20331663.0684   20331669.1204
      -248.257        -193.447
   9296417.813 9   7248460.97346  21988629.526    21988629.3754   21988636.7494
     -2811.693       -2190.930
  -6594977.247 9  -4618291.08447  22114667.610    22114668.5874   22114675.6734
     -1080.465        -841.921
 -11680819.754 9  -9072774.18347  21641867.580    21641868.6804   21641875.0604
      3716.867        2896.260
 -13102162.707 9 -10192513.17648  19148170.179    19148170.3914   19148176.2554
       -95.704         -74.575
  -2710854.874 8  -2092178.92645  23453443.240    23453444.1354   23453453.4854
      4480.728        3491.476
 97  5 12 17 34 59.9950000  0  7  4  2 27 26  9  7 24               -0.004222206
 -18564888.062 9 -14136918.22847  21288126.832    21288128.3044   21288135.0914
      4052.804        3158.029
  -4454425.951 9  -3461484.19548  20333107.014    20333107.3614   20333113.4644
      -256.500        -199.870
   9380881.270 9   7314276.56946  22004701.580    22004702.2404   22004709.6214
     -2818.062       -2195.892
  -6562386.190 9  -4592895.46847  22120869.672    22120870.5014   22120877.5554
     -1091.030        -850.153
 -11792196.092 9  -9159560.93247  21620673.838    21620674.4954   21620680.7964
      3709.393        2890.436
 -13099123.068 9 -10190144.63648  19148748.492    19148748.8064   19148754.6724
      -105.559         -82.254
  -2845300.564 8  -2196941.74145  23427858.982    23427859.8834   23427869.1344
      4483.411        3493.567
 97  5 12 17 35 29.9950000  0  7  4  2 27 26  9  7 24               -0.004238564
 -18686292.804 9 -14231519.27547  21265024.210    21265025.7444   21265032.5044
      4043.282        3150.609
  -4446543.831 9  -3455342.30048  20334606.914    20334607.2724   20334613.4094
      -266.451        -207.624
   9465586.956 9   7380280.94046  22020820.790    22020821.2594   22020828.6824
     -2826.704       -2202.626
  -6529434.389 9  -4567218.76247  22127140.095    22127141.0274   22127148.0674
     -1103.276        -859.696
 -11903307.821 9  -9246141.47447  21599529.766    21599530.6194   21599536.8974
      3700.370        2883.405
 -13095751.972 9 -10187517.81548  19149390.053    19149390.3144   19149396.1804
      -116.841         -91.045
  -2979773.654 8  -2301725.91445  23402269.541    23402270.3544   23402279.8754
      4483.626        3493.735
 97  5 12 17 35 59.9950000  0  7  4  2 27 26  9  7 24               -0.004254882
 -18807454.243 9 -14325930.73647  21241968.025    21241969.4594   21241976.1874
      4034.014        3143.388
  -4438408.779 9  -3449003.31548  20336154.876    20336155.3124   20336161.4844
      -275.718        -214.845
   9550513.705 9   7446457.54646  22036981.866    22036982.3814   22036989.8204
     -2835.085       -2209.157
  -6496157.102 9  -4541288.43847  22133472.327    22133473.3754   22133480.6254
     -1115.018        -868.845
 -12014177.418 9  -9332533.32947  21578431.973    21578432.7934   21578439.0394
      3690.851        2875.988
 -13092078.100 9 -10184655.05848  19150089.265    19150089.4534   19150095.3114
      -128.052         -99.781
  -3114288.927 8  -2406542.96545  23376672.170    23376672.8754   23376682.4534
      4483.749        3493.830
 97  5 12 17 36 29.9950000  0  7  4  2 27 26  9  7 24               -0.004271180
 -18928393.100 9 -14420168.72847  21218954.180    21218955.4624   21218962.2184
      4027.505        3138.316
  -4430069.402 9  -3442505.12748  20337741.691    20337742.2444   20337748.4414
      -281.131        -219.063
   9635639.092 9   7512788.94546  22053180.478    22053181.2624   22053188.5784
     -2840.866       -2213.662
  -6462588.817 9  -4515131.35947  22139860.277    22139861.3004   22139868.4504
     -1123.888        -875.757
 -12124810.721 9  -9418741.06247  21557379.261    21557379.9334   21557386.1904
      3683.440        2870.213
 -13088122.626 9 -10181572.88348  19150841.863    19150842.1344   19150847.9804
      -136.819        -106.612
  -3248858.973 8  -2511402.68345  23351063.749    23351064.9884   23351074.6204
      4486.442        3495.929
 97  5 12 17 36 59.9950000  0  7  4  2 27 26  9  7 24               -0.004287454
 -19049082.338 9 -14514212.24347  21195987.823    21195988.9884   21195995.7584
      4018.700        3131.455
  -4421524.188 9  -3435846.54148  20339367.762    20339368.3404   20339374.5724
      -288.318        -224.663
   9720990.931 9   7579296.81846  22069422.883    22069423.2264   22069430.5704
     -2848.878       -2219.905
  -6428699.155 9  -4488723.85147  22146309.339    22146310.3634   22146317.4514
     -1134.960        -884.384
 -12235150.883 9  -9504720.40147  21536382.420    21536382.9684   21536389.1484
      3672.667        2861.818
 -13083835.308 9 -10178232.12448  19151657.672    19151658.0274   19151663.8384
      -148.881        -116.011
  -3383459.553 8  -2616286.20445  23325450.032    23325451.2564   23325460.8954
      4486.935        3496.313
 97  5 12 17 37 29.9950000  0  7  4  2 27 26  9  7 24               -0.004303740
 -19169532.982 9 -14608069.83847  21173067.016    21173067.9324   21173074.7134
      4010.882        3125.363
  -4412801.435 9  -3429049.60748  20341027.539    20341028.2104   20341034.5094
      -293.477        -228.683
   9806549.416 9   7645965.69146  22085704.437    22085704.5604   22085711.9004
     -2855.208       -2224.837
  -6394520.711 9  -4462091.31547  22152813.477    22152814.3094   22152821.4264
     -1143.886        -891.340
 -12345185.161 9  -9590461.37347  21515443.562    21515444.0914   21515450.2504
      3662.654        2854.016
 -13079195.810 9 -10174616.93948  19152540.494    19152540.8954   19152546.7194
      -160.734        -125.247
  -3518096.787 8  -2721198.26245  23299828.943    23299830.5384   23299840.2354
      4488.478        3497.515
 97  5 12 17 37 59.9950000  0  7  4  2 27 26  9  7 24               -0.004320053
 -19289716.479 9 -14701719.25547  21150196.772    21150197.7514   21150204.5434
      4001.745        3118.243
  -4403900.107 9  -3422113.53248  20342721.475    20342722.0754   20342728.4104
      -299.516        -233.389
   9892317.649 9   7712798.00746  22102025.385    22102025.7404   22102033.1344
     -2861.998       -2230.128
  -6360043.954 9  -4435226.35447  22159374.233    22159375.0424   22159382.1404
     -1153.942        -899.176
 -12454886.833 9  -9675943.17147  21494568.176    21494568.5114   21494574.6424
      3651.290        2845.161
 -13074169.761 9 -10170700.54548  19153496.867    19153497.3114   19153503.1364
      -173.758        -135.396
  -3652748.093 8  -2826121.29245  23274206.394    23274207.3104   23274216.7464
      4488.636        3497.638
 97  5 12 17 38 29.9950000  0  7  4  2 27 26  9  7 24               -0.004336415
 -19409636.981 9 -14795163.75747  21127376.706    21127377.6154   21127384.4414
      3992.623        3111.135
  -4394834.357 9  -3415049.33148  20344446.816    20344447.2514   20344453.5994
      -305.218        -237.832
   9978262.970 9   7779768.31546  22118379.728    22118380.6434   22118388.0294
     -2867.907       -2234.733
  -6325292.759 9  -4408147.50447  22165987.233    22165988.0394   22165995.0764
     -1162.940        -906.187
 -12564274.258 9  -9761180.09147  21473752.363    21473752.7904   21473758.9464
      3641.063        2837.192
 -13068771.350 9 -10166494.00048  19154524.113    19154524.5964   19154530.4314
      -186.335        -145.196
  -3787425.225 8  -2931064.43645  23248579.259    23248579.1804   23248588.4604
      4489.477        3498.294
 97  5 12 17 38 59.9950000  0  7  4  2 27 26  9  7 24               -0.004352843
 -19529298.472 9 -14888406.44447  21104605.341    21104606.6964   21104613.5574
      3984.763        3105.010
  -4385605.393 9  -3407857.94848  20346203.142    20346203.4994   20346209.8394
      -310.122        -241.654
  10064355.793 9   7846853.52046  22134763.453    22134763.5974   22134771.1394
     -2871.625       -2237.630
  -6290301.777 9  -4380881.82847  22172645.774    22172646.5934   22172653.6974
     -1169.695        -911.451
 -12673394.377 9  -9846208.75047  21452987.430    21452987.8934   21452994.0444
      3633.877        2831.592
 -13063029.576 9 -10162019.89848  19155616.913    19155617.2094   19155623.0624
      -196.218        -152.897
  -3922147.149 8  -3036042.49145  23222942.655    23222942.3764   23222951.6884
      4491.782        3500.090
 97  5 12 17 39 29.9950000  0  7  4  2 27 26  9  7 24               -0.004369319
 -19648656.788 9 -14981412.88447  21081892.235    21081893.4724   21081900.3694
      3973.302        3096.079
  -4376160.701 9  -3400498.46548  20348000.597    20348000.8064   20348007.1174
      -318.700        -248.338
  10150622.929 9   7914074.56146  22151179.419    22151179.6814   22151187.3344
     -2878.591       -2243.058
  -6255041.936 9  -4353406.63547  22179355.523    22179356.3544   22179363.3624
     -1180.220        -919.652
 -12782253.600 9  -9931034.09347  21432272.232    21432272.6664   21432278.8234
      3624.376        2824.189
 -13056940.561 9 -10157275.22348  19156775.750    19156775.9144   19156781.7814
      -208.688        -162.614
  -4056878.697 8  -3141028.03345  23197304.039    23197303.7274   23197312.9834
      4491.090        3499.551
 97  5 12 17 39 59.9950000  0  7  4  2 27 26  9  7 24               -0.004385785
 -19767699.821 9 -15074173.64547  21059238.992    21059240.3424   21059247.2264
      3963.789        3088.667
  -4366472.913 9  -3392949.56848  20349844.287    20349844.3554   20349850.6754
      -326.369        -254.314
  10237070.235 9   7981436.02446  22167629.334    22167630.1324   22167637.8364
     -2883.842       -2247.150
  -6219486.345 9  -4325701.01447  22186121.336    22186122.3904   22186129.4024
     -1189.279        -926.711
 -12890863.587 9 -10015665.23547  21411604.250    21411604.8254   21411611.0144
      3617.060        2818.488
 -13050520.481 9 -10152272.57648  19157997.380    19157997.5864   19158003.4774
      -218.543        -170.293
  -4191617.786 8  -3246019.45345  23171663.776    23171663.7614   23171672.9624
      4492.199        3500.415
 97  5 12 17 40 29.9950000  0  7  4  2 27 26  9  7 24               -0.004402284
 -19886452.652 9 -15166708.26347  21036641.143    21036642.4184   21036649.2454
      3954.374        3081.330
  -4356542.406 9  -3385211.52448  20351734.158    20351734.0854   20351740.4224
      -334.350        -260.532
  10323689.854 9   8048931.76046  22184112.529    22184113.3724   22184121.1304
     -2889.569       -2251.612
  -6183663.133 9  -4297786.83647  22192938.481    22192939.3094   22192946.2774
     -1197.713        -933.283
 -12999255.273 9 -10100126.26847  21390977.971    21390978.5924   21390984.7694
      3610.188        2813.133
 -13043806.480 9 -10147040.89748  19159274.983    19159275.2264   19159281.1134
      -227.841        -177.538
  -4326391.679 8  -3351037.97045  23146016.975    23146017.0644   23146026.1514
      4493.776        3501.644
 97  5 12 17 40 59.9950000  0  7  4  2 27 26  9  7 24               -0.004418772
 -20004896.019 9 -15259001.76147  21014102.058    21014103.3784   21014110.2074
      3943.256        3072.667
  -4346343.423 9  -3377264.28848  20353674.936    20353674.9044   20353681.2484
      -344.090        -268.122
  10410517.446 9   8116589.54446  22200635.060    22200636.1694   22200644.0284
     -2897.699       -2257.947
  -6147545.054 9  -4269642.91047  22199811.566    22199812.3574   22199819.3474
     -1208.898        -941.998
 -13107398.705 9 -10184393.84947  21370398.936    21370399.5034   21370405.7744
      3600.355        2805.471
 -13036785.848 9 -10141570.28348  19160610.810    19160611.2304   19160617.1124
      -239.039        -186.264
  -4461180.615 8  -3456068.21745  23120366.335    23120367.5484   23120376.7904
      4493.388        3501.341
 97  5 12 17 41 29.9950000  0  7  4  2 27 26  9  7 24               -0.004435253
 -20123066.209 9 -15351082.37447  20991615.164    20991616.2794   20991623.1344
      3934.745        3066.035
  -4335916.546 9  -3369139.46848  20355659.000    20355659.0834   20355665.4634
      -351.101        -273.585
  10497543.592 9   8184402.04246  22217196.151    22217196.8054   22217204.6474
     -2904.058       -2262.902
  -6111135.296 9  -4241271.70547  22206740.110    22206740.9094   22206747.9244
     -1218.369        -949.378
 -13215276.726 9 -10268454.63447  21349870.575    21349871.0244   21349877.2734
      3591.185        2798.326
 -13029471.432 9 -10135870.74148  19162002.608    19162003.0814   19162008.9944
      -248.688        -193.783
  -4596019.177 8  -3561137.11545  23094707.223    23094708.6194   23094717.7194
      4495.625        3503.084
 97  5 12 17 41 59.9950000  0  7  4  2 27 26  9  7 24               -0.004451710
 -20240967.385 9 -15442953.37047  20969179.198    20969180.3844   20969187.2494
      3924.888        3058.354
  -4325264.794 9  -3360839.42248  20357685.921    20357686.0464   20357692.4644
      -359.313        -279.984
  10584778.332 9   8252377.07346  22233796.113    22233797.0934   22233804.8864
     -2911.947       -2269.050
  -6074434.078 9  -4212673.38247  22213724.297    22213724.9394   22213731.9124
     -1228.508        -957.279
 -13322845.424 9 -10352274.38947  21329400.964    21329401.4054   21329407.6574
      3579.572        2789.277
 -13021847.884 9 -10129930.32748  19163453.446    19163453.8174   19163459.6944
      -260.017        -202.611
  -4730900.425 8  -3666239.29145  23069040.450    23069041.5364   23069050.5944
      4495.939        3503.329
 97  5 12 17 42 29.9950000  0  7  4  2 27 26  9  7 24               -0.004468147
 -20358606.034 9 -15534619.80447  20946793.442    20946794.4904   20946801.3064
      3916.061        3051.476
  -4314413.262 9  -3352383.70648  20359750.880    20359751.0234   20359757.5064
      -365.680        -284.945
  10672211.398 9   8320506.64446  22250434.065    22250435.0484   22250442.9254
     -2918.301       -2274.001
  -6037472.793 9  -4183872.39147  22220757.589    22220758.4794   22220765.3614
     -1237.078        -963.957
 -13430095.536 9 -10435845.87447  21308991.868    21308992.3684   21308998.6164
      3568.886        2780.950
 -13013924.779 9 -10123756.48648  19164961.137    19164961.5604   19164967.4084
      -269.857        -210.278
  -4865826.703 8  -3771376.55845  23043365.074    23043365.7754   23043374.7854
      4497.396        3504.464
 97  5 12 17 42 59.9950000  0  7  4  2 27 26  9  7 24               -0.004484569
 -20475985.403 9 -15626084.18447  20924456.769    20924457.8844   20924464.6504
      3910.226        3046.929
  -4303370.263 9  -3343778.80148  20361852.299    20361852.4454   20361858.9104
      -369.534        -287.949
  10759820.134 9   8388773.11446  22267105.221    22267106.5444   22267114.3594
     -2921.166       -2276.233
  -6000247.736 9  -4154865.88747  22227841.321    22227842.2234   22227849.1444
     -1243.406        -968.888
 -13537021.637 9 -10519164.89447  21288644.388    21288644.9964   21288651.2384
      3560.685        2774.560
 -13005706.755 9 -10117352.84948  19166525.078    19166525.4174   19166531.2724
      -276.886        -215.755
  -5000798.211 8  -3876549.06645  23017681.915    23017681.5554   23017690.5404
      4501.759        3507.864
 97  5 12 17 43 29.9950000  0  7  4  2 27 26  9  7 24               -0.004500983
 -20593114.964 9 -15717353.93247  20902167.706    20902168.8244   20902175.5804
      3900.147        3039.075
  -4292132.192 9  -3335021.88448  20363990.768    20363991.0094   20363997.4744
      -378.077        -294.605
  10847574.163 9   8457152.78446  22283804.469    22283805.6974   22283813.4064
     -2927.255       -2280.978
  -5962779.052 9  -4125669.51147  22234971.325    22234972.3594   22234979.2344
     -1252.663        -976.101
 -13643641.321 9 -10602245.14747  21268355.257    21268355.9094   21268362.1494
      3549.212        2765.620
 -12997211.334 9 -10110733.04548  19168141.666    19168142.0164   19168147.8784
      -287.666        -224.155
  -5135833.050 8  -3981770.94145  22991985.372    22991985.2184   22991994.1144
      4501.855        3507.939
 97  5 12 17 43 59.9950000  0  7  4  2 27 26  9  7 24               -0.004517368
 -20709937.753 9 -15808384.62547  20879937.028    20879938.1054   20879944.9064
      3888.142        3029.721
  -4280633.454 9  -3326061.85448  20366178.873    20366179.1984   20366185.6244
      -388.343        -302.605
  10935494.956 9   8525662.40246  22300535.800    22300536.5334   22300544.2094
     -2934.120       -2286.327
  -5925044.986 9  -4096266.38947  22242151.946    22242152.9454   22242159.8314
     -1262.732        -983.947
 -13749931.986 9 -10685069.02147  21248128.858    21248129.4314   21248135.7404
      3536.976        2756.085
 -12988398.443 9 -10103865.86748  19169818.902    19169819.0524   19169824.9144
      -299.782        -233.596
  -5270854.583 8  -4086982.43445  22966291.191    22966291.3414   22966300.3114
      4499.575        3506.162
 97  5 12 17 44 29.9950000  0  7  4  2 27 26  9  7 24               -0.004533741
 -20826464.254 9 -15899184.45147  20857762.619    20857763.8084   20857770.5844
      3880.232        3023.557
  -4268888.696 9  -3316910.11848  20368413.875    20368414.1954   20368420.6044
      -394.808        -307.643
  11023557.461 9   8594282.44346  22317293.148    22317294.3114   22317301.9984
     -2937.015       -2288.583
  -5887065.028 9  -4066671.66147  22249379.466    22249380.3174   22249387.2104
     -1269.402        -989.144
 -13855917.627 9 -10767655.22347  21227960.545    21227960.9994   21227967.2574
      3528.466        2749.454
 -12979284.978 9 -10096764.47748  19171553.092    19171553.2414   19171559.1254
      -308.064        -240.050
  -5405874.492 8  -4192192.68345  22940597.544    22940597.7554   22940606.9194
      4501.311        3507.515
 97  5 12 17 44 59.9950000  0  7  4  2 27 26  9  7 24               -0.004550090
 -20942703.477 9 -15989760.43047  20835643.006    20835644.1834   20835650.9824
      3868.661        3014.541
  -4256885.018 9  -3307556.62648  20370698.166    20370698.4454   20370704.8464
      -405.581        -316.037
  11111768.977 9   8663018.60646  22334079.355    22334080.4954   22334088.1574
     -2944.116       -2294.116
  -5848830.898 9  -4036878.86947  22256655.182    22256656.0154   22256662.9664
     -1279.782        -997.233
 -13961577.232 9 -10849987.36747  21207854.115    21207854.6134   21207860.8474
      3515.165        2739.090
 -12969854.841 9 -10089416.32848  19173347.591    19173347.7764   19173353.6474
      -320.877        -250.034
  -5540881.917 8  -4297393.21345  22914906.370    22914906.6924   22914915.7084
      4498.738        3505.510
 97  5 12 17 45 29.9950000  0  7  4  2 27 26  9  7 24               -0.004566406
 -21058647.629 9 -16080106.50447  20813579.490    20813580.7174   20813587.5384
      3858.655        3006.744
  -4244622.937 9  -3298001.78448  20373031.659    20373031.8724   20373038.2724
      -413.999        -322.597
  11200141.446 9   8731880.17446  22350896.498    22350897.3094   22350904.9714
     -2949.757       -2298.512
  -5810353.453 9  -4006896.49347  22263976.977    22263977.9964   22263984.9484
     -1287.728       -1003.424
 -14066888.511 9 -10932048.08947  21187813.999    21187814.5534   21187820.7824
      3503.286        2729.833
 -12960091.527 9 -10081808.56148  19175205.575    19175205.6774   19175211.5744
      -332.184        -258.845
  -5675854.753 8  -4402566.80345  22889222.197    22889222.2144   22889231.2884
      4496.868        3504.053
 97  5 12 17 45 59.9950000  0  7  4  2 27 26  9  7 24               -0.004582710
 -21174318.646 9 -16170239.73547  20791567.948    20791569.2414   20791576.0314
      3852.244        3001.749
  -4232146.177 9  -3288279.65748  20375405.873    20375406.1404   20375412.5574
      -418.324        -325.967
  11288661.544 9   8800856.77746  22367741.434    22367742.2284   22367749.8484
     -2952.162       -2300.386
  -5771654.980 9  -3976741.89147  22271341.062    22271342.0944   22271349.0234
     -1292.740       -1007.330
 -14171865.239 9 -11013848.11447  21167837.632    21167838.1004   21167844.3524
      3494.703        2723.145
 -12950018.000 9 -10073959.07548  19177122.592    19177122.6444   19177128.5504
      -339.858        -264.824
  -5810801.341 8  -4507719.93745  22863542.097    22863542.7624   22863551.6944
      4498.954        3505.678
 97  5 12 17 46 29.9950000  0  7  4  2 27 26  9  7 24               -0.004598996
 -21289713.216 9 -16260157.54847  20769609.209    20769610.3604   20769617.1144
      3841.135        2993.092
  -4219452.960 9  -3278388.86348  20377821.483    20377821.6194   20377828.0354
      -427.420        -333.055
  11377344.360 9   8869960.18546  22384617.031    22384618.0394   22384625.7474
     -2959.412       -2306.035
  -5732717.006 9  -3946400.64347  22278750.762    22278751.7954   22278758.6904
     -1302.678       -1015.074
 -14276502.677 9 -11095383.75347  21147925.617    21147926.2214   21147932.4644
      3481.819        2713.106
 -12939632.815 9 -10065866.73448  19179098.844    19179098.9024   19179104.8184
      -351.969        -274.262
  -5945737.232 8  -4612864.72545  22837864.240    22837865.3044   22837874.2294
      4496.972        3504.134
 97  5 12 17 46 59.9950000  0  7  4  2 27 26  9  7 24               -0.004615281
 -21404827.942 9 -16349857.30947  20747703.584    20747704.7144   20747711.4394
      3832.444        2986.320
  -4206547.762 9  -3268332.88448  20380277.388    20380277.4384   20380283.8214
      -433.335        -337.664
  11466177.458 9   8939180.69346  22401521.670    22401522.5894   22401530.1994
     -2963.190       -2308.979
  -5693541.918 9  -3915874.64347  22286205.671    22286206.6174   22286213.5754
     -1309.608       -1020.474
 -14380831.344 9 -11176678.79847  21128072.417    21128073.1424   21128079.4044
      3473.162        2706.360
 -12928949.901 9 -10057542.39648  19181131.786    19181131.8034   19181137.7074
      -360.662        -281.035
  -6080671.570 8  -4718008.31545  22812187.277    22812188.1364   22812197.0894
      4498.210        3505.099
 97  5 12 17 47 29.9950000  0  7  4  2 27 26  9  7 24               -0.004631600
 -21519625.564 9 -16439309.99147  20725858.414    20725859.4284   20725866.1124
      3820.090        2976.694
  -4193432.128 9  -3258112.93048  20382773.156    20382773.2744   20382779.6364
      -441.721        -344.198
  11555160.532 9   9008518.06846  22418454.149    22418455.4454   22418463.1394
     -2969.582       -2313.960
  -5654116.916 9  -3885153.89447  22293708.129    22293708.9914   22293715.9764
     -1319.447       -1028.140
 -14484880.931 9 -11257756.38947  21108272.407    21108273.1864   21108279.3854
      3462.843        2698.319
 -12917975.417 9 -10048990.85948  19183220.103    19183220.1564   19183226.0614
      -371.534        -289.507
  -6215610.990 8  -4823155.88445  22786509.085    22786510.0234   22786518.7334
      4497.155        3504.277
 97  5 12 17 47 59.9950000  0  7  4  2 27 26  9  7 24               -0.004647930
 -21634046.774 9 -16528469.36847  20704084.775    20704085.7894   20704092.4644
      3808.613        2967.750
  -4180055.589 9  -3247689.68448  20385318.642    20385318.8024   20385325.1454
      -449.475        -350.240
  11644332.587 9   9078002.71646  22435423.212    22435424.3964   22435432.1334
     -2974.496       -2317.789
  -5614387.759 9  -3854196.14647  22301268.288    22301269.2114   22301276.2274
     -1328.419       -1035.132
 -14588623.807 9 -11338594.97747  21088530.903    21088531.5914   21088537.7774
      3453.889        2691.342
 -12906680.685 9 -10040189.77948  19185369.353    19185369.4634   19185375.3414
      -380.913        -296.815
  -6350530.986 8  -4928288.29545  22760834.211    22760835.5014   22760844.2404
      4497.918        3504.871
 97  5 12 17 48 29.9950000  0  7  4  2 27 26  9  7 24               -0.004664308
 -21748132.552 9 -16617367.36747  20682374.966    20682376.0004   20682382.6474
      3796.868        2958.598
  -4166465.483 9  -3237100.01848  20387904.785    20387904.9354   20387911.2744
      -456.621        -355.809
  11733633.747 9   9147587.96246  22452417.246    22452417.8694   22452425.6774
     -2979.060       -2321.345
  -5574415.690 9  -3823049.09547  22308874.627    22308875.5844   22308882.7274
     -1336.522       -1041.446
 -14692105.324 9 -11419229.89248  21068839.147    21068839.7194   21068845.9564
      3444.477        2684.008
 -12895115.904 9 -10031178.27148  19187570.037    19187570.2224   19187576.0834
      -390.344        -304.164
  -6485484.579 8  -5033446.89345  22735154.262    22735154.5234   22735163.4084
      4498.532        3505.350
 97  5 12 17 48 59.9950000  0  7  4  2 27 26  9  7 24               -0.004680740
 -21861876.047 9 -16705998.63047  20660730.285    20660731.2994   20660737.9394
      3786.321        2950.380
  -4152676.672 9  -3226355.52148  20390528.670    20390528.8944   20390535.2294
      -462.493        -360.384
  11823056.910 9   9217268.28346  22469434.471    22469434.5214   22469442.4254
     -2982.370       -2323.925
  -5534221.119 9  -3791728.68047  22316523.521    22316524.3224   22316531.5344
     -1342.821       -1046.354
 -14795299.100 9 -11499640.59848  21049201.877    21049202.5874   21049208.8394
      3435.069        2676.677
 -12883278.093 9 -10021954.01348  19189822.763    19189822.9384   19189828.7944
      -398.803        -310.756
  -6620464.742 8  -5138626.17245  22709468.784    22709468.6114   22709477.4564
      4500.064        3506.543
 97  5 12 17 49 29.9950000  0  7  4  2 27 26  9  7 24               -0.004697201
 -21975283.091 9 -16794367.72047  20639149.537    20639150.6494   20639157.2344
      3774.331        2941.037
  -4138685.886 9  -3215453.63348  20393191.120    20393191.2904   20393197.6144
      -470.239        -366.420
  11912611.186 9   9287050.77946  22486476.040    22486476.1534   22486484.1314
     -2987.752       -2328.118
  -5493824.196 9  -3760250.58347  22324210.687    22324211.6194   22324218.8084
     -1350.153       -1052.067
 -14898168.317 9 -11579798.41748  21029626.526    21029627.2004   21029633.3984
      3422.847        2667.154
 -12871156.677 9 -10012508.75848  19192129.298    19192129.6014   19192135.4704
      -409.220        -318.873
  -6755453.024 8  -5243811.79345  22683780.867    22683781.1424   22683789.9784
      4498.992        3505.708
 97  5 12 17 49 59.9950000  0  7  4  2 27 26  9  7 24               -0.004713675
 -22088369.639 9 -16882487.09647  20617629.877    20617630.9984   20617637.5644
      3763.907        2932.915
  -4124493.816 9  -3204394.90048  20395891.774    20395891.9654   20395898.2834
      -476.682        -371.441
  12002291.266 9   9356931.30246  22503540.821    22503541.7694   22503549.8814
     -2991.788       -2331.263
  -5453244.787 9  -3728630.30747  22331932.417    22331933.6694   22331940.8114
     -1355.924       -1056.564
 -15000690.155 9 -11659685.55048  21010117.436    21010117.9414   21010124.1234
      3411.202        2658.079
 -12858748.771 9 -10002840.27348  19194490.552    19194490.7744   19194496.6444
      -418.943        -326.449
  -6890424.671 8  -5348984.44245  22658096.655    22658096.7694   22658105.6634
      4497.998        3504.934
 97  5 12 17 50 29.9950000  0  7  4  2 27 26  9  7 24               -0.004730141
 -22201103.902 9 -16970331.95647  20596177.118    20596178.3834   20596184.9154
      3751.212        2923.022
  -4110069.901 9  -3193155.50548  20398636.607    20398636.7734   20398643.1384
      -485.490        -378.304
  12092134.678 9   9426939.10046  22520636.879    22520638.4854   22520646.5704
     -2998.348       -2336.375
  -5412451.340 9  -3696843.21547  22339695.564    22339696.4564   22339703.5314
     -1364.228       -1063.035
 -15102823.976 9 -11739270.32048  20990682.160    20990682.5334   20990688.7094
      3397.295        2647.243
 -12846002.981 9  -9992908.49248  19196915.822    19196916.1874   19196922.0724
      -431.307        -336.083
  -7025316.232 8  -5454094.70645  22632427.111    22632427.7334   22632436.5604
      4494.254        3502.016
 97  5 12 17 50 59.9950000  0  7  4  2 27 26  9  7 24               -0.004746600
 -22313505.488 9 -17057917.55947  20574787.991    20574789.0524   20574795.6214
      3740.242        2914.474
  -4095414.470 9  -3181735.71748  20401425.557    20401425.6344   20401432.0134
      -493.475        -384.526
  12182135.039 8   9497069.16146  22537763.916    22537765.1684   22537773.1874
     -3003.650       -2340.506
  -5371443.333 9  -3664888.96547  22347499.412    22347500.1354   22347507.1774
     -1371.600       -1068.779
 -15204593.457 9 -11818571.18748  20971316.108    20971316.3814   20971322.5624
      3385.477        2638.034
 -12832930.315 9  -9982722.01448  19199403.664    19199403.8404   19199409.7494
      -442.129        -344.516
  -7160133.911 8  -5559147.40445  22606772.035    22606772.8244   22606781.6144
      4491.533        3499.896
 97  5 12 17 51 29.9950000  0  7  4  2 27 26  9  7 24               -0.004763052
 -22425572.509 9 -17145242.46747  20553462.111    20553463.3614   20553469.9624
      3732.281        2908.271
  -4080516.165 9  -3170126.68048  20404260.598    20404260.7054   20404267.0744
      -498.257        -388.252
  12272291.789 9   9567321.11146  22554920.721    22554921.3644   22554929.5234
     -3005.190       -2341.706
  -5330205.133 9  -3632755.32047  22355346.772    22355347.5434   22355354.5814
     -1376.216       -1072.376
 -15306019.128 9 -11897604.17048  20952015.441    20952015.7044   20952021.8684
      3377.741        2632.006
 -12819534.527 9  -9972283.75248  19201952.821    19201952.9974   19201958.8954
      -449.361        -350.151
  -7294864.803 9  -5664132.47746  22581133.427    22581134.4464   22581143.2364
      4491.985        3500.248
 97  5 12 17 51 59.9950000  0  7  4  2 27 26  9  7 24               -0.004779516
 -22537319.216 9 -17232317.77347  20532197.404    20532198.6404   20532205.2414
      3719.115        2898.012
  -4065389.815 9  -3158339.93448  20407138.896    20407139.1714   20407145.5444
      -508.521        -396.250
  12362571.175 9   9637668.62546  22572100.275    22572100.9684   22572109.2074
     -3011.813       -2346.867
  -5288740.733 9  -3600445.41447  22363237.021    22363237.9824   22363245.0194
     -1386.440       -1080.343
 -15407134.546 9 -11976395.39048  20932773.666    20932774.0224   20932780.2654
      3364.901        2622.001
 -12805847.446 9  -9961618.50148  19204557.383    19204557.5304   19204563.4634
      -461.375        -359.513
  -7429537.357 8  -5769072.11646  22555506.677    22555507.2174   22555515.7624
      4487.819        3497.002
 97  5 12 17 52 29.9950000  0  7  4  2 27 26  9  7 24               -0.004795959
 -22648720.242 9 -17319123.73947  20510998.370    20510999.7074   20511006.2534
      3706.614        2888.271
  -4049999.501 9  -3146347.50548  20410067.571    20410067.8344   20410074.2124
      -518.477        -404.008
  12452994.560 9   9708128.32846  22589307.686    22589308.0654   22589316.1924
     -3017.356       -2351.186
  -5247020.513 9  -3567936.20647  22371176.020    22371177.0834   22371184.1684
     -1395.700       -1087.558
 -15507916.239 9 -12054926.55948  20913595.437    20913595.8584   20913602.1664
      3352.736        2612.522
 -12791865.963 9  -9950723.85148  19207218.024    19207218.1164   19207224.0944
      -471.653        -367.522
  -7564149.200 9  -5873964.41546  22529890.942    22529891.3474   22529899.8984
      4485.280        3495.023
 97  5 12 17 52 59.9950000  0  7  4  2 27 26  9  7 24               -0.004812365
 -22759765.695 9 -17405652.63547  20489867.094    20489868.4354   20489874.9524
      3694.652        2878.950
  -4034332.175 9  -3134139.22848  20413048.933    20413049.2274   20413055.6484
      -527.544        -411.073
  12543557.154 9   9778696.47846  22606540.524    22606541.5964   22606549.7214
     -3021.675       -2354.552
  -5205050.424 9  -3535232.27447  22379162.846    22379163.7274   22379170.8694
     -1403.715       -1093.804
 -15608345.138 9 -12133182.82148  20894484.253    20894484.7904   20894491.1924
      3340.901        2603.299
 -12777603.214 9  -9939610.03148  19209931.919    19209932.1904   19209938.1834
      -480.742        -374.604
  -7698712.107 9  -5978818.58946  22504284.613    22504284.7784   22504293.4604
      4483.806        3493.875
 97  5 12 17 53 29.9950000  0  7  4  2 27 26  9  7 24               -0.004828741
 -22870441.677 9 -17491893.64147  20468806.111    20468807.4394   20468813.9684
      3683.672        2870.394
  -4018393.117 9  -3121719.21248  20416082.050    20416082.3384   20416088.7704
      -535.072        -416.939
  12634243.945 9   9849361.37646  22623797.841    22623798.8364   22623807.0994
     -3024.173       -2356.498
  -5162847.777 9  -3502347.11247  22387193.538    22387194.6034   22387201.8234
     -1409.754       -1098.510
 -15708416.059 9 -12211160.14948  20875441.393    20875441.8824   20875448.3344
      3330.381        2595.102
 -12763071.122 9  -9928286.33648  19212697.318    19212697.5924   19212703.5824
      -488.067        -380.312
  -7833235.874 9  -6083642.27046  22478684.666    22478685.7844   22478694.4544
      4484.454        3494.380
 97  5 12 17 53 59.9950000  0  7  4  2 27 26  9  7 24               -0.004845105
 -22980747.823 9 -17577846.44447  20447815.473    20447816.7984   20447823.3794
      3671.681        2861.050
  -4002201.329 9  -3109102.25848  20419163.230    20419163.5304   20419169.9884
      -542.599        -422.804
  12725045.642 9   9920115.83746  22641076.674    22641077.9114   22641086.1274
     -3027.694       -2359.242
  -5120439.510 9  -3469301.74947  22395263.739    22395264.6974   22395271.8194
     -1415.709       -1103.150
 -15808127.971 9 -12288857.72648  20856466.707    20856467.2484   20856473.6824
      3318.782        2586.064
 -12748283.993 9  -9916763.90748  19215510.996    19215511.5074   19215517.5034
      -496.081        -386.557
  -7967751.298 9  -6188459.44446  22453086.800    22453088.3854   22453097.0224
      4484.802        3494.651
 97  5 12 17 54 29.9950000  0  7  4  2 27 26  9  7 24               -0.004861472
 -23090661.310 9 -17663493.28647  20426899.597    20426900.9264   20426907.5034
      3656.231        2849.011
  -3985764.883 9  -3096294.66748  20422291.045    20422291.2894   20422297.7434
      -552.847        -430.790
  12815976.157 9   9990970.68446  22658380.467    22658381.5354   22658389.6604
     -3034.070       -2364.210
  -5077834.734 9  -3436103.28647  22403371.167    22403372.1214   22403379.2364
     -1424.243       -1109.800
 -15907466.426 9 -12366264.29848  20837563.110    20837563.7864   20837570.1774
      3304.152        2574.664
 -12733226.057 9  -9905030.46048  19218376.488    19218376.9394   19218382.9234
      -507.652        -395.573
  -8102250.577 9  -6293264.03946  22427492.485    22427493.9264   22427502.7104
      4481.733        3492.259
 97  5 12 17 54 59.9950000  0  7  4  2 27 26  9  7 24               -0.004877857
 -23200156.663 9 -17748814.31548  20406063.290    20406064.5974   20406071.2064
      3642.795        2838.542
  -3969075.728 9  -3083290.15348  20425466.885    20425467.1044   20425473.6124
      -560.439        -436.706
  12907048.263 8  10061935.83646  22675711.337    22675712.1094   22675720.1754
     -3038.053       -2367.314
  -5035021.183 9  -3402742.13147  22411518.326    22411519.2624   22411526.4504
     -1430.617       -1114.766
 -16006416.305 9 -12443368.08148  20818733.527    20818734.2964   20818740.6614
      3291.985        2565.183
 -12717858.144 9  -9893055.47148  19221300.777    19221301.3344   19221307.2954
      -517.435        -403.196
  -8236695.033 9  -6398025.89746  22401908.362    22401909.8484   22401918.7404
      4480.154        3491.029
 97  5 12 17 55 29.9950000  0  7  4  2 27 26  9  7 24               -0.004894272
 -23309243.073 9 -17833816.69448  20385304.831    20385306.1354   20385312.7174
      3629.812        2828.425
  -3952149.782 9  -3070101.12848  20428687.724    20428688.0074   20428694.5654
      -567.877        -442.502
  12998253.170 8  10133004.44546  22693067.488    22693067.7704   22693075.9984
     -3042.131       -2370.492
  -4992009.308 9  -3369226.41547  22419703.224    22419704.1914   22419711.4724
     -1436.679       -1119.490
 -16104997.132 9 -12520184.28748  20799974.216    20799974.9884   20799981.3794
      3280.108        2555.928
 -12702191.388 9  -9880847.61748  19224282.019    19224282.5724   19224288.5404
      -526.792        -410.487
  -8371080.247 9  -6502741.61946  22376335.848    22376337.1004   22376346.0134
      4478.687        3489.886
 97  5 12 17 55 59.9950000  0  7  4  2 27 26  9  7 24               -0.004910707
 -23417939.926 9 -17918515.50347  20364620.578    20364621.7754   20364628.3774
      3617.272        2818.654
  -3934995.613 9  -3056734.26948  20431952.051    20431952.3384   20431958.9304
      -575.388        -448.354
  13089585.355 8  10204172.21746  22710447.580    22710447.8634   22710456.0884
     -3046.161       -2373.632
  -4948811.989 9  -3335566.21147  22427923.406    22427924.3644   22427931.7124
     -1442.711       -1124.190
 -16203211.554 9 -12596714.99548  20781284.576    20781285.4134   20781291.7684
      3268.026        2546.514
 -12686246.742 9  -9868423.23148  19227316.163    19227316.7284   19227322.6624
      -535.682        -417.415
  -8505408.134 9  -6607412.65246  22350774.052    22350775.3044   22350784.1064
      4476.648        3488.297
 97  5 12 17 56 29.9950000  0  7  4  2 27 26  9  7 24               -0.004927114
 -23526251.375 9 -18002913.99948  20344009.454    20344010.7674   20344017.3694
      3604.591        2808.772
  -3917574.780 9  -3043159.61748  20435267.093    20435267.4184   20435274.0214
      -585.125        -455.942
  13181054.383 8  10275446.64646  22727853.419    22727853.8424   22727862.1274
     -3050.721       -2377.185
  -4905402.586 9  -3301740.73547  22436183.815    22436184.8694   22436192.2674
     -1450.185       -1130.014
 -16301037.336 9 -12672942.85748  20762669.047    20762669.7594   20762676.1134
      3254.682        2536.116
 -12670012.659 9  -9855773.30648  19230405.418    19230405.9814   19230411.9014
      -545.593        -425.137
  -8639637.428 9  -6712006.86046  22325230.570    22325232.2104   22325241.0344
      4472.779        3485.282
 97  5 12 17 56 59.9950000  0  7  4  2 27 26  9  7 24               -0.004943471
 -23634221.970 9 -18087046.89148  20323463.235    20323464.6184   20323471.2214
      3592.188        2799.108
  -3899889.458 9  -3029378.87048  20438632.550    20438632.8034   20438639.4574
      -595.081        -463.699
  13272628.925 8  10346803.33046  22745280.658    22745279.9054   22745288.3604
     -3055.423       -2380.849
  -4861800.472 9  -3267765.10147  22444481.020    22444482.0844   22444489.5634
     -1457.732       -1135.895
 -16398489.295 9 -12748879.43148  20744124.300    20744125.2234   20744131.6294
      3240.912        2525.386
 -12653518.878 9  -9842921.02348  19233544.143    19233544.6414   19233550.5634
      -555.009        -432.475
  -8773780.773 9  -6816534.09746  22299703.400    22299705.5144   22299714.2994
      4468.834        3482.208
 97  5 12 17 57 29.9950000  0  7  4  2 27 26  9  7 24               -0.004959755
 -23741851.224 9 -18170913.80648  20302982.200    20302983.4324   20302990.0364
      3581.527        2790.800
  -3881928.655 9  -3015383.46048  20442050.448    20442050.6454   20442057.2944
      -603.674        -470.395
  13364319.310 8  10418250.26346  22762728.270    22762728.0344   22762736.5404
     -3058.756       -2383.446
  -4817998.119 9  -3233633.42847  22452816.629    22452817.4374   22452824.9434
     -1463.843       -1140.657
 -16495548.015 9 -12824509.58248  20725654.878    20725655.5414   20725661.9554
      3228.211        2515.489
 -12636775.408 9  -9829874.17748  19236730.493    19236730.8644   19236736.7334
      -562.756        -438.511
  -8907838.114 9  -6920994.32746  22274192.863    22274195.2794   22274204.1064
      4466.746        3480.581
 97  5 12 17 57 59.9950000  0  7  4  2 27 26  9  7 24               -0.004975959
 -23849129.006 9 -18254506.86548  20282568.006    20282569.1304   20282575.6914
      3570.129        2781.919
  -3863688.504 9  -3001170.38448  20445521.488    20445521.6554   20445528.3344
      -612.285        -477.105
  13456134.186 8  10489794.17545  22780200.115    22780200.0454   22780208.3754
     -3062.153       -2386.093
  -4773985.276 9  -3199337.74347  22461192.305    22461192.8464   22461200.3704
     -1470.303       -1145.691
 -16592194.355 9 -12899818.41748  20707263.628    20707264.3424   20707270.7124
      3214.895        2505.113
 -12619764.873 9  -9816619.23048  19239967.555    19239967.9114   19239973.7774
      -571.489        -445.316
  -9041797.093 9  -7025377.90646  22248701.488    22248703.7884   22248712.5194
      4463.591        3478.123
 97  5 12 17 58 29.9950000  0  7  4  2 27 26  9  7 24               -0.004992117
 -23956053.319 9 -18337824.49748  20262221.019    20262222.1134   20262228.6404
      3556.814        2771.543
  -3845186.897 9  -2986753.56548  20449042.277    20449042.4104   20449049.1054
      -621.949        -484.636
  13548047.592 8  10561414.88045  22797690.675    22797690.6854   22797698.8954
     -3066.473       -2389.459
  -4729778.904 9  -3164891.23447  22469604.546    22469605.0894   22469612.5634
     -1477.773       -1151.511
 -16688435.452 9 -12974811.46148  20688949.437    20688950.2804   20688956.6324
      3200.198        2493.661
 -12602475.755 9  -9803147.20248  19243257.689    19243257.9514   19243263.7924
      -582.098        -453.583
  -9175653.028 9  -7129681.19846  22223229.532    22223231.8964   22223240.6264
      4458.951        3474.507
 97  5 12 17 58 59.9950000  0  7  4  2 27 26  9  7 24               -0.005008255
 -24062560.312 9 -18420816.93548  20241953.396    20241954.5194   20241961.0074
      3544.194        2761.710
  -3826420.411 9  -2972130.35648  20452613.335    20452613.5524   20452620.2604
      -628.363        -489.634
  13640087.533 8  10633134.16445  22815205.254    22815205.4184   22815213.7604
     -3068.861       -2391.320
  -4685350.009 9  -3130271.34747  22478058.742    22478059.6254   22478067.0884
     -1483.412       -1155.905
 -16784245.260 9 -13049468.43848  20670717.537    20670718.2854   20670724.5884
      3187.997        2484.153
 -12584875.216 9  -9789432.51448  19246606.846    19246607.2584   19246613.0824
      -590.522        -460.147
  -9309377.409 9  -7233881.98446  22197782.698    22197785.0664   22197793.6654
      4456.619        3472.690
 97  5 12 17 59 29.9940000  0  7  4  2 27 26  9  7 24               -0.005024429
 -24168638.282 9 -18503475.07448  20221767.420    20221768.5464   20221775.0454
      3528.421        2749.419
  -3807433.355 9  -2957335.26848  20456226.503    20456226.6924   20456233.4164
      -636.926        -496.306
  13732229.305 8  10704932.77945  22832739.234    22832739.5314   22832748.0664
     -3073.443       -2394.891
  -4640719.372 9  -3095494.25047  22486551.656    22486552.5384   22486559.9574
     -1491.288       -1162.043
 -16879658.413 9 -13123816.33248  20652561.136    20652561.7954   20652568.0474
      3173.717        2473.026
 -12566983.751 9  -9775491.12548  19250011.586    19250011.9174   19250017.7274
      -601.680        -468.841
  -9442989.411 9  -7337995.19346  22172356.792    22172359.5344   22172368.2064
      4451.807        3468.941
 97  5 12 17 59 59.9940000  0  7  4  2 27 26  9  7 24               -0.005040661
 -24274269.218 9 -18585784.86948  20201666.441    20201667.6194   20201674.1464
      3513.085        2737.469
  -3788218.544 9  -2942362.71748  20459882.974    20459883.1384   20459889.8784
      -644.800        -502.442
  13824473.978 8  10776811.59445  22850292.127    22850293.2184   22850301.8134
     -3076.812       -2397.516
  -4595890.645 9  -3060562.79847  22495082.362    22495083.2114   22495090.6004
     -1497.894       -1167.190
 -16974681.137 9 -13197860.00048  20634479.107    20634479.5894   20634485.8214
      3160.548        2462.765
 -12548790.690 9  -9761314.73048  19253473.596    19253473.9354   19253479.7234
      -611.856        -476.771
  -9576496.511 9  -7442026.67346  22146951.344    22146954.0174   22146962.5514
      4447.913        3465.906
 97  5 12 18  0 29.9940000  0  8  4  2 27 26  5  9  7 24            -0.005056953
 -24379462.003 9 -18667753.25048  20181648.933    20181650.0944   20181656.5764
      3498.336        2725.976
  -3768776.883 9  -2927213.39448  20463582.505    20463582.7654   20463589.5124
      -652.678        -508.580
  13916802.775 8  10848755.99645  22867861.909    22867863.0284   22867871.6694
     -3080.109       -2400.085
  -4550874.270 9  -3025485.13847  22503648.664    22503649.5444   22503657.0344
     -1504.604       -1172.419
   -326063.80819   -227126.24156  23287949.598    23287949.9515   23287959.8045
      3630.840        2829.226
 -17069333.581 9 -13271615.13348  20616467.383    20616467.8104   20616474.0304
      3148.226        2453.163
 -12530311.447 9  -9746915.33148  19256990.162    19256990.4104   19256996.2104
      -621.433        -484.234
  -9709907.611 9  -7545983.35446  22121563.603    22121566.6404   22121575.1514
      4444.622        3463.342
 97  5 12 18  0 59.9940000  0  8  4  2 27 26  5  9  7 24            -0.005073293
 -24484232.641 9 -18749392.68148  20161711.623    20161712.8994   20161719.4034
      3485.012        2715.594
  -3749114.845 9  -2911892.34648  20467323.905    20467324.3464   20467331.1064
      -659.852        -514.170
  14009219.922 8  10920769.21145  22885449.244    22885449.4434   22885458.1294
     -3082.708       -2402.110
  -4505672.385 9  -2990262.93647  22512250.335    22512251.2304   22512258.7524
     -1510.186       -1176.768
   -435027.330 9   -312032.79056  23267211.332    23267215.0164   23267224.3395
      3631.920        2830.068
 -17163638.623 9 -13345099.56048  20598521.794    20598522.0954   20598528.3074
      3137.235        2444.599
 -12511564.496 9  -9732307.32748  19260557.551    19260557.8364   19260563.6314
      -629.783        -490.740
  -9843244.747 9  -7649882.40146  22096191.203    22096193.3574   22096201.8794
      4442.787        3461.912
 97  5 12 18  1 29.9940000  0  8  4  2 27 26  5  9  7 24            -0.005089658
 -24588605.665 9 -18830722.28848  20141850.212    20141851.3404   20141857.8544
      3472.097        2705.530
  -3729212.788 9  -2896384.27448  20471111.158    20471111.6074   20471118.3734
      -668.298        -520.752
  14101725.221 8  10992851.13645  22903053.165    22903052.7294   22903061.4564
     -3085.542       -2404.318
  -4460309.609 9  -2954915.32847  22520882.561    22520883.4974   22520891.0584
     -1515.209       -1180.682
   -544012.900 8   -396956.48245  23246473.020    23246475.7705   23246484.7734
      3632.411        2830.450
 -17257606.909 9 -13418321.59448  20580640.222    20580640.5214   20580646.7094
      3125.829        2435.711
 -12492567.938 9  -9717504.82948  19264172.456    19264172.7564   19264178.5314
      -637.817        -497.000
  -9976522.578 9  -7753735.22946  22070829.927    22070831.3564   22070839.8874
      4440.897        3460.439
 97  5 12 18  1 59.9940000  0  8  4  2 27 26  5  9  7 24            -0.005106029
 -24692536.570 9 -18911707.38148  20122072.780    20122073.8884   20122080.4274
      3458.211        2694.710
  -3708982.956 9  -2880620.79848  20474961.011    20474961.2324   20474968.0374
      -678.638        -528.809
  14194381.147 8  11065050.44645  22920684.857    22920684.7164   22920693.4164
     -3090.078       -2407.853
  -4414728.656 9  -2919397.73047  22529556.300    22529557.3314   22529564.8404
     -1521.993       -1185.968
   -652942.084 9   -481836.27445  23225745.347    23225747.4094   23225756.1864
      3631.293        2829.579
 -17351158.663 9 -13491219.04948  20562837.807    20562838.2384   20562844.4434
      3112.509        2425.332
 -12473266.897 9  -9702465.06648  19267845.248    19267845.6114   19267851.3694
      -647.407        -504.473
 -10109672.447 9  -7857488.33246  22045492.773    22045493.7474   22045502.3084
      4436.993        3457.397
 97  5 12 18  2 29.9940000  0  8  4  2 27 26  5  9  7 24            -0.005122296
 -24796082.805 9 -18992392.73448  20102368.536    20102369.6854   20102376.2224
      3443.862        2683.529
  -3688477.250 9  -2864642.35648  20478862.908    20478863.3604   20478870.1714
      -689.201        -537.040
  14287148.587 8  11137336.66745  22938338.333    22938337.8544   22938346.7524
     -3095.336       -2411.950
  -4368975.599 9  -2883746.01647  22538262.899    22538263.8564   22538271.3464
     -1528.882       -1191.337
   -761879.379 9   -566722.45346  23205015.913    23205017.2274   23205026.2024
      3630.477        2828.943
 -17444338.932 9 -13563827.03648  20545106.421    20545106.6344   20545112.8684
      3098.405        2414.341
 -12453704.151 9  -9687221.37948  19271568.076    19271568.2874   19271574.0584
      -657.495        -512.334
 -10242731.964 9  -7961171.05346  22020172.436    22020173.3754   22020181.8594
      4432.625        3453.994
 97  5 12 18  2 59.9940000  0  8  4  2 27 26  5  9  7 24            -0.005138489
 -24899189.420 9 -19072735.51948  20082748.141    20082749.1444   20082755.6974
      3430.345        2672.996
  -3667650.493 9  -2848413.74348  20482826.124    20482826.6034   20482833.4024
      -698.743        -544.475
  14380074.349 8  11209746.27045  22956021.674    22956021.0434   22956029.9074
     -3099.223       -2414.979
  -4323027.323 9  -2847942.19447  22547006.796    22547007.5524   22547015.0514
     -1533.727       -1195.112
   -870802.775 8   -651597.69246  23184288.571    23184289.7554   23184298.5924
      3631.547        2829.777
 -17537077.397 9 -13636090.76448  20527458.736    20527459.0844   20527465.2914
      3084.555        2403.549
 -12433844.729 9  -9671746.52148  19275347.212    19275347.4424   19275353.2054
      -665.892        -518.877
 -10375659.490 9  -8064750.91046  21994876.688    21994878.1374   21994886.6094
      4429.380        3451.465
 97  5 12 18  3 29.9940000  0  8  4  2 27 26  5  9  7 24            -0.005154637
 -25001893.438 9 -19152764.59348  20063204.134    20063205.1934   20063211.7294
      3418.060        2663.423
  -3646552.350 9  -2831973.66148  20486840.990    20486841.4734   20486848.2784
      -706.189        -550.277
  14473098.550 8  11282232.53745  22973724.161    22973723.1324   22973731.8884
     -3100.904       -2416.289
  -4276947.946 9  -2812036.23146  22555775.186    22555776.1534   22555783.6824
     -1536.905       -1197.588
   -979766.179 9   -736504.09046  23163553.718    23163554.6974   23163563.5134
      3634.077        2831.748
 -17629400.194 9 -13708030.60148  20509890.127    20509890.6114   20509896.8164
      3071.545        2393.412
 -12413747.211 9  -9656086.12748  19279171.622    19279171.8744   19279177.6304
      -672.716        -524.194
 -10508490.841 9  -8168255.83246  21969599.830    21969601.1964   21969609.5754
      4427.070        3449.665
 97  5 12 18  3 59.9940000  0  8  4  2 27 26  5  9  7 24            -0.005170780
 -25104204.129 9 -19232487.17948  20043735.028    20043736.0404   20043742.5934
      3404.061        2652.515
  -3625223.655 9  -2815353.92948  20490899.805    20490900.1894   20490907.0284
      -714.113        -556.452
  14566194.577 8  11354774.79845  22991438.879    22991438.8694   22991447.4594
     -3103.999       -2418.700
  -4230745.203 9  -2776034.13047  22564567.308    22564568.2004   22564575.7974
     -1541.621       -1201.263
  -1088783.249 9   -821452.41746  23142808.366    23142809.3734   23142818.1854
      3635.287        2832.691
 -17721300.642 9 -13779641.32248  20492402.058    20492402.5564   20492408.7404
      3056.829        2381.945
 -12393412.323 9  -9640240.77148  19283041.155    19283041.4704   19283047.2424
      -681.414        -530.972
 -10641222.180 9  -8271682.84246  21944342.388    21944343.3034   21944351.5774
      4423.000        3446.494
 97  5 12 18  4 29.9940000  0  8  4  2 27 26  5  9  7 24            -0.005187061
 -25206158.395 9 -19311932.02848  20024333.525    20024334.7594   20024341.3214
      3390.885        2642.248
  -3603734.109 9  -2798608.85448  20494989.017    20494989.5204   20494996.3874
      -720.620        -561.522
  14659304.527 8  11427327.92145  23009157.120    23009157.0654   23009165.6694
     -3105.418       -2419.806
  -4184487.995 9  -2739989.57947  22573369.874    22573370.7504   22573378.3014
     -1544.243       -1203.306
  -1197905.049 9   -906482.28446  23122043.104    23122044.1024   23122052.7624
      3637.350        2834.299
 -17812836.723 9 -13850968.12548  20474983.244    20474983.8104   20474990.0064
      3043.544        2371.593
 -12372895.498 9  -9624253.64548  19286945.389    19286945.7434   19286951.5074
      -688.369        -536.391
 -10773904.578 9  -8375071.68446  21919093.951    21919094.6504   21919102.9684
      4420.238        3444.341
 97  5 12 18  4 59.9940000  0  8  4  2 27 26  5  9  7 24            -0.005203286
 -25307632.555 9 -19391002.77348  20005023.695    20005024.8454   20005031.4314
      3373.349        2628.584
  -3581969.446 9  -2781649.40448  20499130.738    20499131.2274   20499138.1084
      -731.079        -569.672
  14752529.588 8  11499970.73945  23026897.597    23026897.2434   23026905.9374
     -3110.286       -2423.599
  -4138068.494 9  -2703818.56746  22582203.233    22582204.1094   22582211.6224
     -1551.191       -1208.720
  -1306998.931 9   -991490.39046  23101283.345    23101284.2344   23101292.8504
      3634.703        2832.236
 -17903900.324 9 -13921926.76148  20457654.542    20457654.9474   20457661.1584
      3026.753        2358.509
 -12352093.573 9  -9608044.36448  19290903.988    19290904.2364   19290910.0194
      -699.213        -544.841
 -10906417.670 9  -8478328.60546  21893877.106    21893878.2034   21893886.4964
      4413.048        3438.739
 97  5 12 18  5 29.9940000  0  8  4  2 27 26  5  9  7 24            -0.005219504
 -25408638.672 9 -19469708.80148  19985802.958    19985803.9944   19985810.6064
      3360.000        2618.182
  -3559946.063 9  -2764488.36248  20503321.848    20503322.1524   20503329.0464
      -737.654        -574.795
  14845839.679 8  11572679.82045  23044653.571    23044653.6434   23044662.2704
     -3110.755       -2423.965
  -4091490.486 9  -2667524.03746  22591066.557    22591067.6224   22591075.1874
     -1554.457       -1211.265
  -1416065.482 9  -1076477.25646  23080528.637    23080529.4654   23080538.1614
      3636.032        2833.272
 -17994522.760 9 -13992541.63548  20440409.506    20440410.0724   20440416.2744
      3014.424        2348.902
 -12331017.237 9  -9591621.25348  19294914.684    19294914.9564   19294920.7244
      -706.410        -550.449
 -11038764.635 9  -8581456.08446  21868692.198    21868693.3524   21868701.6854
      4409.662        3436.100
 97  5 12 18  5 59.9940000  0  8  4  2 27 26  5  9  7 24            -0.005235731
 -25509219.710 9 -19548083.60248  19966662.852    19966664.0394   19966670.6474
      3345.211        2606.658
  -3537689.522 9  -2747145.63248  20507557.166    20507557.4354   20507564.3584
      -746.425        -581.630
  14939188.304 8  11645418.91445  23062416.823    23062417.3474   23062426.2274
     -3112.526       -2425.345
  -4044793.133 9  -2631136.51647  22599952.561    22599953.8314   22599961.4134
     -1558.830       -1214.673
  -1525146.531 9  -1161475.34446  23059771.300    23059771.9374   23059780.5704
      3635.952        2833.209
 -18084756.955 9 -14062853.98548  20423238.587    20423239.0804   20423245.2684
      3001.133        2338.545
 -12309697.135 9  -9575008.20048  19298971.706    19298971.9844   19298977.7784
      -714.990        -557.135
 -11170994.289 9  -8684492.14646  21843529.703    21843530.8224   21843539.1964
      4405.271        3432.679
 97  5 12 18  6 29.9940000  0  8  4  2 27 26  5  9  7 24            -0.005251936
 -25609376.098 9 -19626127.51348  19947603.671    19947604.8754   19947611.5124
      3331.193        2595.735
  -3515172.036 9  -2729599.57548  20511842.363    20511842.4224   20511849.3344
      -755.411        -588.632
  15032568.433 8  11718182.58445  23080186.651    23080187.0134   23080195.8464
     -3113.476       -2426.085
  -3997974.785 9  -2594654.71447  22608862.014    22608863.1014   22608870.6984
     -1563.241       -1218.110
  -1634234.609 9  -1246478.95146  23039012.398    23039012.9584   23039021.6994
      3635.977        2833.229
 -18174610.615 9 -14132869.81448  20406139.960    20406140.4834   20406146.6244
      2988.215        2328.479
 -12288140.985 9  -9558211.21248  19303073.645    19303073.9864   19303079.7964
      -722.792        -563.215
 -11303107.248 9  -8787437.27246  21818389.370    21818390.5014   21818398.9484
      4401.436        3429.690
 97  5 12 18  6 59.9940000  0  8  4  2 27 26  5  9  7 24            -0.005268108
 -25709109.551 9 -19703841.85748  19928625.017    19928626.2074   19928632.8574
      3319.005        2586.238
  -3492383.255 9  -2711842.10948  20516178.672    20516178.9764   20516185.9234
      -762.516        -594.168
  15125969.912 8  11790962.87245  23097960.822    23097960.9024   23097969.6644
     -3112.139       -2425.043
  -3951009.623 9  -2558058.51547  22617799.501    22617800.2734   22617807.8444
     -1566.597       -1220.725
  -1743326.830 9  -1331485.82646  23018253.069    23018253.4124   23018261.9814
      3638.211        2834.970
 -18264065.725 9 -14202575.07248  20389117.242    20389117.7384   20389123.8474
      2976.577        2319.411
 -12266354.060 9  -9541234.40248  19307219.593    19307219.9264   19307225.7464
      -728.539        -567.693
 -11435105.301 9  -8890292.85146  21793271.379    21793272.0184   21793280.6464
      4399.611        3428.268
 97  5 12 18  7 29.9940000  0  8  4  2 27 26  5  9  7 24            -0.005284230
 -25808403.809 9 -19781213.97748  19909730.036    19909731.1454   19909737.7564
      3302.250        2573.182
  -3469295.064 9  -2693851.34548  20520572.131    20520572.5434   20520579.4504
      -774.792        -603.734
  15219421.727 8  11863782.32845  23115744.137    23115744.2834   23115753.2554
     -3116.392       -2428.357
  -3903855.189 9  -2521314.81647  22626772.591    22626773.4614   22626781.0374
     -1575.232       -1227.454
  -1852410.398 9  -1416485.88346  22997495.067    22997495.4184   22997504.0984
      3635.898        2833.167
 -18353075.067 9 -14271932.99248  20372179.132    20372179.8574   20372185.8904
      2959.058        2305.759
 -12244306.546 9  -9524054.53248  19311415.179    19311415.4364   19311421.3034
      -739.550        -576.273
 -11566965.232 9  -8993040.81246  21768178.984    21768179.8594   21768188.5254
      4392.673        3422.862
 97  5 12 18  7 59.9940000  0  8  4  2 27 26  5  9  7 24            -0.005300329
 -25907283.907 9 -19858263.36748  19890913.640    19890914.9044   19890921.4874
      3288.212        2562.243
  -3445942.319 9  -2675654.42448  20525016.132    20525016.4954   20525023.3524
      -783.423        -610.459
  15312914.275 8  11936633.59645  23133535.325    23133535.3334   23133544.0944
     -3118.112       -2429.698
  -3856535.695 9  -2484442.49647  22635777.465    22635778.1194   22635785.6754
     -1580.837       -1231.821
  -1961519.013 9  -1501505.52846  22976732.320    22976732.7234   22976741.4234
      3636.477        2833.618
 -18441642.568 9 -14340946.61748  20355325.375    20355326.0514   20355332.0554
      2943.925        2293.968
 -12222023.456 9  -9506691.09248  19315655.581    19315655.7844   19315661.6704
      -747.440        -582.421
 -11698706.657 9  -9095696.41846  21743109.316    21743110.2784   21743119.0064
      4388.326        3419.475
 97  5 12 18  8 29.9940000  0  8  4  2 27 26  5  9  7 24            -0.005316431
 -26005761.424 9 -19934999.06548  19872174.226    19872175.2364   19872181.7994
      3276.886        2553.418
  -3422361.859 9  -2657280.07648  20529503.381    20529503.7544   20529510.6084
      -788.415        -614.349
  15406445.892 8  12009515.24745  23151334.107    23151333.9124   23151342.8814
     -3117.324       -2429.084
  -3809072.470 9  -2447458.18946  22644809.263    22644810.1244   22644817.6634
     -1583.152       -1233.625
  -2070663.485 9  -1586553.09646  22955962.807    22955963.1454   22955971.7314
      3640.019        2836.378
 -18529778.585 9 -14409624.03448  20338553.670    20338554.3164   20338560.3064
      2931.900        2284.597
 -12199525.825 9  -9489160.48448  19319936.516    19319936.8994   19319942.8024
      -752.435        -586.313
 -11830337.974 9  -9198266.23446  21718060.783    21718061.6614   21718070.3844
      4387.038        3418.471
 97  5 12 18  8 59.9940000  0  8  4  2 27 26  5  9  7 24            -0.005332584
 -26103845.241 9 -20011427.97948  19853509.561    19853510.5024   19853517.0384
      3261.604        2541.510
  -3398596.862 9  -2638761.93048  20534025.864    20534026.1284   20534032.9784
      -796.532        -620.674
  15500012.395 8  12082424.07545  23169138.785    23169138.9864   23169147.9914
     -3120.869       -2431.846
  -3761503.480 9  -2410391.45346  22653861.142    22653862.1804   22653869.7504
     -1588.362       -1237.685
  -2179884.756 9  -1671660.47346  22935178.679    22935179.0414   22935187.6574
      3640.850        2837.026
 -18617513.792 9 -14477989.10648  20321858.161    20321858.8144   20321864.8384
      2916.659        2272.721
 -12176824.312 9  -9471471.00648  19324256.519    19324256.8414   19324262.7694
      -761.626        -593.475
 -11961881.770 9  -9300767.85146  21693028.918    21693029.7384   21693038.3094
      4381.856        3414.433
 97  5 12 18  9 29.9940000  0  8  4  2 27 26  5  9  7 24            -0.005348788
 -26201535.33219 -20087551.09158  19834919.514    19834920.7095   19834926.9185
      3246.415        2529.674
  -3374643.355 9  -2620096.10758  20538584.160    20538584.4224   20538591.4265
      -804.996        -627.270
  15593632.14418  12155374.43255  23186953.972    23186954.1265   23186963.3335
     -3124.760       -2434.878
  -3713859.09819  -2373265.97656  22662927.536    22662928.6165   22662936.0295
     -1592.204       -1240.678
  -2289190.15619  -1756833.40356  22914378.416    22914378.7725   22914387.0415
      3641.528        2837.554
 -18704853.51219 -14546045.02158  20305237.860    20305238.5925   20305244.9295
      2901.628        2261.009
 -12153904.30819  -9453611.27358  19328618.023    19328618.3255   19328624.4045
      -770.705        -600.549
 -12093320.60619  -9403187.45256  21668016.780    21668017.8335   21668026.1565
      4376.191        3410.019
 97  5 12 18  9 59.9940000  0  8  4  2 27 26  5  9  7 24            -0.005364996
 -26298742.916 9 -20163297.22848  19816421.554    19816422.7134   19816428.9864
      3232.488        2518.822
  -3350418.718 9  -2601219.79748  20543194.042    20543194.2454   20543201.2384
      -811.736        -632.522
  15687372.861 8  12228419.00245  23204792.583    23204792.5374   23204801.8084
     -3126.127       -2435.943
  -3666098.691 9  -2336050.10047  22672015.924    22672017.1604   22672024.6654
     -1593.407       -1241.616
  -2398496.576 9  -1842007.19046  22893577.874    22893578.3924   22893586.7834
      3643.860        2839.371
 -18791738.561 9 -14613747.65048  20288704.259    20288704.9104   20288711.1714
      2889.105        2251.251
 -12130703.885 9  -9435533.03248  19333032.860    19333033.2384   19333039.2944
      -777.618        -605.936
 -12224582.913 9  -9505469.72046  21643038.304    21643039.3934   21643047.7054
      4372.848        3407.414
 97  5 12 18 10 29.9940000  0  8  4  2 27 26  5  9  7 24            -0.005381225
 -26395508.287 9 -20238698.78248  19798007.689    19798008.8794   19798015.1584
      3218.095        2507.606
  -3325957.793 9  -2582159.36048  20547848.702    20547849.0464   20547856.0414
      -819.357        -638.460
  15781179.172 8  12301514.69445  23222643.541    23222643.1954   23222652.2564
     -3127.633       -2437.117
  -3618279.246 9  -2298788.21946  22681115.869    22681116.8764   22681124.4624
     -1595.012       -1242.866
  -2507843.386 9  -1927212.40746  22872770.041    22872770.5054   22872778.7314
      3645.771        2840.861
 -18878226.786 9 -14681141.06448  20272246.029    20272246.7064   20272252.9004
      2876.285        2241.261
 -12107269.464 9  -9417272.45648  19337492.379    19337492.6604   19337498.7134
      -784.889        -611.602
 -12355718.331 9  -9607653.12246  21618083.812    21618085.0884   21618093.3494
      4369.071        3404.471
 97  5 12 18 10 59.9940000  0  8  4  2 27 26  5  9  7 24            -0.005397466
 -26491809.235 9 -20313738.45148  19779682.218    19779683.3944   19779689.6834
      3202.711        2495.619
  -3301236.729 9  -2562896.22448  20552552.933    20552553.3514   20552560.2964
      -828.102        -645.274
  15875047.235 8  12374658.52345  23240505.261    23240505.7774   23240514.8384
     -3129.356       -2438.459
  -3570373.806 9  -2261459.31747  22690232.040    22690232.9654   22690240.5854
     -1597.971       -1245.172
  -2617226.585 9  -2012445.99846  22851955.074    22851955.4974   22851963.8044
      3646.910        2841.748
 -18964287.851 9 -14748201.63448  20255869.161    20255869.8114   20255875.9704
      2861.818        2229.988
 -12083598.863 9  -9398827.85048  19341996.796    19341997.0734   19342003.1164
      -792.277        -617.359
 -12486705.318 9  -9709720.85046  21593157.088    21593158.9834   21593167.3034
      4363.966        3400.493
 97  5 12 18 11 29.9940000  0  8  4  2 27 26  5  9  7 24            -0.005413693
 -26587647.790 9 -20388417.80948  19761444.769    19761445.9144   19761452.2234
      3187.294        2483.606
  -3276243.825 9  -2543421.25748  20557309.081    20557309.3714   20557316.3154
      -837.199        -652.363
  15968950.055 8  12447829.36845  23258373.925    23258375.0654   23258384.1944
     -3130.155       -2439.082
  -3522373.474 9  -2224056.49847  22699366.369    22699367.2154   22699374.8114
     -1601.345       -1247.801
  -2726625.781 9  -2097691.99646  22831137.063    22831137.3554   22831145.8424
      3647.151        2841.936
 -19049908.968 9 -14814919.38248  20239576.138    20239576.6774   20239582.8034
      2847.252        2218.638
 -12059710.363 9  -9380213.44548  19346542.531    19346542.9254   19346548.9674
      -799.384        -622.897
 -12617538.852 9  -9811669.01146  21568261.150    21568262.1034   21568270.4274
      4358.932        3396.570
 97  5 12 18 11 59.9940000  0  8  4  2 27 26  5  9  7 24            -0.005429921
 -26683039.970 9 -20462749.34848  19743292.197    19743293.3434   19743299.6724
      3171.817        2471.546
  -3251006.452 9  -2523755.80248  20562111.621    20562111.9164   20562118.8574
      -845.823        -659.083
  16062856.894 8  12521003.39845  23276244.280    23276245.1694   23276254.1094
     -3130.801       -2439.585
  -3474279.078 9  -2186580.37946  22708518.372    22708519.2644   22708526.9284
     -1605.533       -1251.065
  -2836054.275 9  -2182960.90646  22810313.463    22810313.8124   22810322.0624
      3647.654        2842.328
 -19135120.660 9 -14881318.10448  20223360.975    20223361.4514   20223367.5764
      2832.893        2207.449
 -12035630.023 9  -9361449.55948  19351124.912    19351125.3074   19351131.3374
      -806.533        -628.467
 -12748242.462 9  -9913515.93046  21543389.201    21543389.8984   21543398.3214
      4353.909        3392.656
 97  5 12 18 12 29.9940000  0  8  4  2 27 26  5  9  7 24            -0.005446112
 -26777942.907 9 -20536699.65648  19725232.797    19725233.8824   19725240.2514
      3156.479        2459.594
  -3225477.037 9  -2503862.77648  20566969.792    20566970.0534   20566976.9784
      -854.582        -665.908
  16156816.701 8  12594218.68645  23294124.155    23294125.1994   23294134.2074
     -3131.434       -2440.078
  -3426017.951 9  -2148974.31146  22717701.956    22717703.0084   22717710.7484
     -1610.374       -1254.837
  -2945464.524 9  -2268215.55546  22789493.265    22789493.8094   22789501.9904
      3647.986        2842.586
 -19219865.769 9 -14947353.25348  20207234.487    20207235.0024   20207241.1234
      2818.229        2196.023
 -12011304.697 9  -9342494.77148  19355753.866    19355754.2854   19355760.3154
      -813.595        -633.970
 -12878752.478 9 -10015212.00746  21518553.279    21518554.5844   21518563.0174
      4348.189        3388.199
 97  5 12 18 12 59.9940000  0  8  4  2 27 26  5  9  7 24            -0.005462280
 -26872387.575 9 -20610292.87448  19707260.463    19707261.6274   19707268.0044
      3139.850        2446.636
  -3199689.071 9  -2483768.28348  20571877.096    20571877.3894   20571884.3334
      -864.647        -673.751
  16250785.043 8  12667440.61045  23312005.798    23312006.9294   23312015.6614
     -3133.205       -2441.458
  -3377620.874 9  -2111262.31846  22726911.703    22726912.6834   22726920.4174
     -1615.975       -1259.201
  -3054885.343 9  -2353478.45546  22768671.228    22768671.6064   22768679.8144
      3646.766        2841.636
 -19304177.036 9 -15013050.33048  20191190.570    20191191.1044   20191197.2454
      2802.686        2183.911
 -11986772.224 9  -9323378.57148  19360422.327    19360422.6884   19360428.7204
      -821.963        -640.491
 -13009097.369 9 -10116779.41546  21493749.118    21493750.6494   21493759.1794
      4341.367        3382.883
 97  5 12 18 13 29.9940000  0  8  4  2 27 26  5  9  7 24            -0.005478413
 -26966361.032 9 -20683518.90948  19689377.890    19689379.0394   19689385.3974
      3125.350        2435.338
  -3173622.443 9  -2463456.65248  20576837.418    20576837.7584   20576844.7124
      -872.604        -679.951
  16344789.008 8  12740690.32645  23329894.112    23329895.4314   23329904.2674
     -3133.552       -2441.729
  -3329091.904 9  -2073447.55946  22736146.434    22736147.4644   22736155.1684
     -1618.951       -1261.520
  -3164300.129 9  -2438736.65246  22747850.426    22747850.6274   22747858.7554
      3647.896        2842.516
 -19388054.677 9 -15078409.51248  20175229.235    20175229.7344   20175235.8894
      2789.344        2173.515
 -11962013.625 9  -9304086.16848  19365133.925    19365134.1094   19365140.1544
      -828.266        -645.402
 -13139270.853 9 -10218213.25047  21468978.467    21468979.4394   21468987.9504
      4337.020        3379.496
 97  5 12 18 13 59.9940000  0  7  4  2 26  5  9  7 24               -0.005494538
 -27059866.522 9 -20756380.30648  19671584.502    19671585.5134   19671591.8904
      3108.619        2422.301
  -3147297.416 9  -2442943.67048  20581846.934    20581847.3244   20581854.2284
      -882.016        -687.285
  -3280449.896 9  -2035544.71446  22745402.664    22745403.7794   22745411.4744
     -1623.326       -1264.929
  -3273727.986 9  -2524005.04446  22727026.834    22727027.2284   22727035.2314
      3647.631        2842.310
 -19471495.220 9 -15143428.11748  20159350.958    20159351.5264   20159357.6924
      2773.493        2161.163
 -11937043.729 9  -9284629.12348  19369885.500    19369885.7284   19369891.7724
      -836.112        -651.516
 -13269283.966 9 -10319522.13047  21444237.412    21444238.7524   21444247.2674
      4330.777        3374.631
 97  5 12 18 14 29.9940000  0  7  4  2 26  5  9  7 24               -0.005510674
 -27152892.418 9 -20828867.98148  19653882.153    19653883.2584   19653889.6204
      3091.488        2408.952
  -3120722.638 9  -2422236.07048  20586904.068    20586904.3924   20586911.2614
      -891.125        -694.383
  -3231721.105 9  -1997574.25446  22754675.593    22754676.5644   22754684.2694
     -1626.697       -1267.556
  -3383171.777 9  -2609285.84246  22706200.433    22706200.7674   22706208.7204
      3647.142        2841.929
 -19554481.824 9 -15208093.00148  20143559.114    20143559.6774   20143565.8644
      2757.376        2148.605
 -11911862.149 9  -9265007.12748  19374677.445    19374677.5754   19374683.6514
      -844.255        -657.861
 -13399143.161 9 -10420711.07747  21419526.556    21419527.4184   21419535.8924
      4324.881        3370.037
 97  5 12 18 14 59.9940000  0  7  4  2 26  5  9  7 24               -0.005526819
 -27245399.396 9 -20900951.31048  19636278.598    19636279.7264   19636286.1224
      3076.879        2397.568
  -3093872.912 9  -2401314.23248  20592013.571    20592013.8034   20592020.6414
      -897.767        -699.559
  -3182896.620 9  -1959529.20646  22763966.772    22763967.5224   22763975.2234
     -1627.205       -1267.952
  -3492602.180 9  -2694556.21246  22685376.453    22685376.6664   22685384.7334
      3649.455        2843.731
 -19636976.122 9 -15272374.26048  20127860.847    20127861.4704   20127867.6694
      2743.322        2137.653
 -11886431.221 9  -9245190.83748  19379516.689    19379516.9524   19379523.0234
      -849.967        -662.312
 -13528821.054 9 -10521758.73647  21394849.646    21394850.5964   21394858.9684
      4321.275        3367.227
 97  5 12 18 15 29.9940000  0  7  4  2 26  5  9  7 24               -0.005542992
 -27337412.970 9 -20972650.17548  19618769.042    19618770.0984   19618776.5174
      3059.808        2384.266
  -3066769.256 9  -2380194.53748  20597171.247    20597171.4944   20597178.3354
      -906.620        -706.457
  -3134002.476 9  -1921429.90046  22773271.002    22773271.8084   22773279.4884
     -1630.040       -1270.161
  -3602048.609 9  -2779839.04946  22664549.166    22664549.5574   22664557.7234
      3649.178        2843.515
 -19718980.293 9 -15336273.60348  20112256.031    20112256.5914   20112262.7764
      2725.959        2124.124
 -11860771.482 9  -9225196.25448  19384399.673    19384399.8654   19384405.9204
      -858.360        -668.852
 -13658330.574 9 -10622675.21247  21370204.487    21370205.7464   21370214.0834
      4314.889        3362.251
 97  5 12 18 15 59.9940000  0  7  4  2 26  5  9  7 24               -0.005559179
 -27428918.025 9 -21043952.78648  19601356.169    19601357.2464   19601363.6904
      3041.540        2370.031
  -3039402.987 9  -2358870.19548  20602378.832    20602379.1784   20602386.0134
      -916.918        -714.481
  -3085027.263 9  -1883267.42946  22782590.392    22782591.4714   22782599.1994
     -1634.026       -1273.267
  -3711480.956 9  -2865110.91346  22643724.579    22643725.1814   22643733.3894
      3647.359        2842.098
 -19800473.661 9 -15399774.91248  20096748.188    20096748.9254   20096755.1024
      2708.038        2110.159
 -11834860.080 9  -9205005.56548  19389330.322    19389330.6154   19389336.6824
      -868.117        -676.455
 -13787645.176 9 -10723439.78447  21345596.734    21345597.9684   21345606.3044
      4306.970        3356.081
 97  5 12 18 16 29.9940000  0  7  4  2 26  5  9  7 24               -0.005575369
 -27519943.506 9 -21114881.71048  19584034.639    19584035.6474   19584042.0644
      3026.989        2358.693
  -3011779.149 9  -2337345.16148  20607635.390    20607635.8594   20607642.7044
      -924.490        -720.382
  -3035988.854 9  -1845055.70446  22791922.006    22791923.1954   22791930.9724
     -1635.187       -1274.172
  -3820919.033 9  -2950387.25446  22622899.387    22622899.8504   22622907.8584
      3648.723        2843.161
 -19881497.450 9 -15462910.33348  20081329.845    20081330.6294   20081336.7604
      2693.814        2099.076
 -11808710.718 9  -9184629.45348  19394306.362    19394306.6824   19394312.7784
      -874.792        -681.656
 -13916780.055 9 -10824064.30947  21321023.033    21321024.3754   21321032.7184
      4301.993        3352.202
 97  5 12 18 16 59.9940000  0  7  4  2 26  5  9  7 24               -0.005591555
 -27610524.644 9 -21185464.38848  19566797.480    19566798.6084   19566805.0264
      3011.561        2346.671
  -2983911.889 9  -2315630.43548  20612938.574    20612938.8354   20612945.6974
      -933.527        -727.424
  -2986891.919 9  -1806798.35646  22801264.913    22801266.0384   22801273.8444
     -1638.034       -1276.390
  -3930393.209 9  -3035691.73246  22602067.083    22602067.5964   22602075.5964
      3649.444        2843.723
 -19962087.153 9 -15525707.49648  20065994.151    20065994.9194   20066001.0454
      2678.735        2087.326
 -11782365.188 9  -9164100.48548  19399319.710    19399320.0864   19399326.2024
      -881.704        -687.042
 -14045749.098 9 -10924559.61347  21296481.042    21296482.2914   21296490.6924
      4295.669        3347.274
 97  5 12 18 17 29.9940000  0  7  4  2 26  5  9  7 24               -0.005607707
 -27700615.580 9 -21255665.09348  19549653.748    19549654.8494   19549661.2824
      2995.355        2334.043
  -2955751.755 9  -2293687.49948  20618297.136    20618297.5484   20618304.4264
      -942.804        -734.652
  -2937693.641 9  -1768462.08646  22810627.257    22810628.1434   22810635.9414
     -1640.999       -1278.701
  -4039865.875 9  -3120995.03846  22581235.231    22581235.6294   22581243.5224
      3649.407        2843.694
 -20042212.889 9 -15588143.13048  20050746.910    20050747.5244   20050753.6124
      2663.891        2075.759
 -11755794.957 9  -9143396.42748  19404375.850    19404376.3174   19404382.4094
      -888.741        -692.525
 -14174514.101 9 -11024895.93647  21271977.814    21271979.0254   21271987.4974
      4289.404        3342.393
 97  5 12 18 17 59.9940000  0  7  4  2 26  5  9  7 24               -0.005623832
 -27790235.797 9 -21325499.00648  19532599.591    19532600.6754   19532607.0944
      2980.315        2322.323
  -2927323.072 9  -2271535.30248  20623707.065    20623707.3474   20623714.2104
      -951.286        -741.262
  -2888415.753 9  -1730063.74746  22820004.859    22820005.4114   22820013.2714
     -1643.046       -1280.296
  -4149351.016 9  -3206308.02146  22560400.669    22560401.1754   22560409.1934
      3650.817        2844.792
 -20121913.644 9 -15650247.60948  20035580.298    20035580.9444   20035587.0504
      2650.427        2065.268
 -11729037.942 9  -9122546.81948  19409467.621    19409468.0614   19409474.1354
      -893.911        -696.554
 -14303098.920 9 -11125091.85347  21247508.473    21247510.1154   21247518.5524
      4283.919        3338.119
 97  5 12 18 18 29.9940000  0  7  4  2 26  5  9  7 24               -0.005639938
 -27879381.381 9 -21394963.07448  19515635.782    19515636.8154   19515643.2314
      2963.730        2309.400
  -2898625.101 9  -2249173.27748  20629168.137    20629168.4134   20629175.2864
      -960.733        -748.623
  -2839059.527 9  -1691604.35046  22829397.197    22829397.6204   22829405.4304
     -1646.274       -1282.811
  -4258866.141 9  -3291644.43246  22539560.501    22539561.0264   22539569.0594
      3651.223        2845.109
 -20201182.424 9 -15712015.49348  20020495.839    20020496.5844   20020502.6894
      2635.067        2053.299
 -11702107.874 9  -9101562.37248  19414592.359    19414592.7184   19414598.7654
      -900.258        -701.500
 -14431502.607 9 -11225146.62847  21223074.275    21223075.6254   21223084.0754
      4277.172        3332.861
 97  5 12 18 18 59.9940000  0  7  4  2 26  5  9  7 24               -0.005656016
 -27967996.872 9 -21464014.08048  19498772.760    19498773.8514   19498780.2404
      2944.225        2294.201
  -2869622.494 9  -2226573.85948  20634687.060    20634687.4134   20634694.2884
      -972.502        -757.794
  -2789583.741 9  -1653051.80346  22838812.125    22838812.5854   22838820.3704
     -1651.685       -1287.027
  -4368367.413 9  -3376970.01346  22518723.001    22518723.5174   22518731.5184
      3649.066        2843.428
 -20279953.995 9 -15773395.92448  20005506.133    20005506.8444   20005512.9184
      2616.642        2038.942
 -11674966.465 9  -9080413.23748  19419757.156    19419757.5694   19419763.6184
      -909.018        -708.326
 -14559678.908 9 -11325024.21247  21198683.165    21198684.4484   21198692.8714
      4268.040        3325.745
 97  5 12 18 19 29.9940000  0  7  4  2 26  5  9  7 24               -0.005672079
 -28056089.377 9 -21532657.56348  19482009.290    19482010.3964   19482016.7694
      2927.892        2281.474
  -2840331.991 9  -2203750.12648  20640260.794    20640261.1924   20640268.0934
      -980.838        -764.289
  -2740016.536 9  -1614428.01646  22848244.596    22848244.8574   22848252.7274
     -1653.720       -1288.613
  -4477857.659 8  -3462286.98746  22497887.606    22497888.1094   22497896.1784
      3649.327        2843.631
 -20358234.710 9 -15834393.88248  19990609.929    19990610.5364   19990616.5824
      2601.125        2026.851
 -11647622.122 9  -9059105.97748  19424960.666    19424961.0384   19424967.0674
      -914.940        -712.940
 -14687640.418 9 -11424734.42847  21174333.234    21174334.2414   21174342.5944
      4261.822        3320.900
 97  5 12 18 19 59.9940000  0  7  4  2 26  5  9  7 24               -0.005688135
 -28143678.365 9 -21600908.70048  19465341.684    19465342.7534   19465349.1034
      2911.123        2268.408
  -2810777.988 9  -2180721.06047  20645884.648    20645885.1564   20645892.0544
      -989.615        -771.129
  -2690364.758 9  -1575738.31446  22857692.631    22857693.2804   22857701.1484
     -1656.458       -1290.746
  -4587335.872 9  -3547594.62046  22477054.342    22477055.0284   22477063.1384
      3649.172        2843.511
 -20436024.162 9 -15895009.04448  19975807.094    19975807.6914   19975813.7034
      2584.733        2014.078
 -11620068.199 9  -9037635.40048  19430204.107    19430204.3964   19430210.4454
      -922.312        -718.685
 -14815397.197 9 -11524285.10747  21150021.627    21150022.8974   21150031.2744
      4254.937        3315.535
 97  5 12 18 20 29.9940000  0  7  4  2 26  5  9  7 24               -0.005704204
 -28230779.584 9 -21668779.75548  19448766.759    19448767.8984   19448774.2844
      2895.114        2255.933
  -2780987.633 9  -2157507.83347  20651553.588    20651554.0784   20651561.0214
      -997.105        -776.965
  -2640652.851 9  -1537001.76246  22867152.410    22867153.1204   22867161.1654
     -1658.276       -1292.163
  -4696833.015 9  -3632916.99646  22456217.694    22456218.3494   22456226.4184
      3649.865        2844.051
 -20513344.435 9 -15955258.60448  19961093.663    19961094.1084   19961100.1394
      2569.387        2002.120
 -11592298.701 9  -9015996.85048  19435488.381    19435488.7814   19435494.8254
      -929.569        -724.339
 -14942970.829 9 -11623693.08447  21125745.305    21125746.4184   21125754.7894
      4249.087        3310.977
 97  5 12 18 20 59.9940000  0  7  4  2 26  5  9  7 24               -0.005720278
 -28317390.151 9 -21736268.47948  19432285.261    19432286.4224   19432292.8134
      2877.626        2242.306
  -2750959.699 9  -2134109.48247  20657267.809    20657268.2274   20657275.1334
     -1006.160        -784.021
  -2590882.045 9  -1498219.35046  22876623.506    22876624.2014   22876632.2354
     -1660.855       -1294.173
  -4806329.361 9  -3718238.74046  22435380.688    22435381.6764   22435389.8744
      3648.663        2843.114
 -20590191.466 9 -16015139.40048  19946470.180    19946470.6004   19946476.6434
      2552.666        1989.090
 -11564298.425 9  -8994178.47148  19440816.634    19440817.0474   19440823.0704
      -938.503        -731.301
 -15070353.104 9 -11722951.94847  21101505.032    21101506.3274   21101514.7214
      4241.618        3305.157
 97  5 12 18 21 29.9940000  0  7  4  2 26  5  9  7 24               -0.005736322
 -28403470.131 9 -21803343.76748  19415904.719    19415905.9124   19415912.3354
      2860.892        2229.266
  -2720649.238 9  -2110490.97947  20663035.798    20663036.1414   20663043.0494
     -1014.674        -790.655
  -2541035.259 9  -1459377.74246  22886109.599    22886109.7794   22886117.7714
     -1662.439       -1295.407
  -4915784.373 9  -3803528.27146  22414552.319    22414553.0644   22414561.2644
      3648.229        2842.776
 -20666541.797 9 -16074633.16748  19931941.067    19931941.6334   19931947.6814
      2537.010        1976.891
 -11536017.286 9  -8972141.23948  19446198.338    19446198.7924   19446204.8044
      -946.971        -737.899
 -15197502.039 9 -11822029.00947  21077309.902    21077310.6264   21077319.0364
      4234.672        3299.744
 97  5 12 18 21 59.9940000  0  7  4  2 26  5  9  7 24               -0.005752368
 -28489050.397 9 -21870029.66648  19399619.235    19399620.4774   19399626.9284
      2843.447        2215.673
  -2690091.052 9  -2086679.44147  20668850.806    20668851.1844   20668858.1234
     -1023.518        -797.546
  -2491149.916 9  -1420506.08346  22895601.644    22895602.6474   22895610.6024
     -1664.057       -1296.668
  -5025240.865 9  -3888818.94846  22393723.345    22393724.1354   22393732.2594
      3648.117        2842.689
 -20742425.438 9 -16133763.27948  19917500.686    19917501.4194   19917507.4794
      2521.101        1964.494
 -11507492.705 9  -8949914.31148  19451626.459    19451626.8924   19451632.8864
      -955.308        -744.396
 -15324442.303 9 -11920943.45547  21053153.771    21053154.6234   21053163.0824
      4226.892        3293.682
 97  5 12 18 22 29.9940000  0  7  4  2 26  5  9  7 24               -0.005768391
 -28574089.778 9 -21936294.09748  19383436.726    19383437.9474   19383444.4324
      2825.958        2202.045
  -2659247.533 9  -2062645.56947  20674720.276    20674720.5174   20674727.4564
     -1032.696        -804.698
  -2441204.644 9  -1381587.70946  22905105.687    22905106.7914   22905114.8264
     -1665.520       -1297.808
  -5134672.986 9  -3974090.59946  22372899.081    22372899.8614   22372908.0604
      3647.361        2842.099
 -20817813.781 9 -16192507.44248  19903154.743    19903155.4794   19903161.5544
      2504.780        1951.777
 -11478721.198 9  -8927494.97248  19457101.588    19457101.9544   19457107.9074
      -962.517        -750.013
 -15451124.736 9 -12019656.99147  21029046.594    21029047.7154   21029056.0954
      4218.649        3287.259
 97  5 12 18 22 59.9940000  0  7  4  2 26  5  9  7 24               -0.005784398
 -28658598.584 9 -22002145.09248  19367355.225    19367356.3664   19367362.8934
      2808.233        2188.234
  -2628118.553 9  -2038389.25447  20680643.897    20680644.2064   20680651.1114
     -1042.178        -812.087
  -2391223.692 9  -1342641.52346  22914617.017    22914617.9404   22914625.8424
     -1666.358       -1298.461
  -5244082.751 9  -4059344.88946  22352079.312    22352079.8214   22352087.9134
      3647.033        2841.844
 -20892705.641 9 -16250864.72748  19888903.382    19888904.0374   19888910.1174
      2488.324        1938.954
 -11449746.006 9  -8904916.91948  19462615.349    19462615.7884   19462621.7154
      -968.812        -754.918
 -15577563.770 9 -12118180.87147  21004986.138    21004987.1934   21004995.5044
      4210.796        3281.140
 97  5 12 18 23 29.9940000  0  7  4  2 26  5  9  7 24               -0.005800400
 -28742578.784 9 -22067584.18648  19351374.354    19351375.4424   19351381.9774
      2791.925        2175.526
  -2596708.678 9  -2013914.06147  20686620.858    20686621.3384   20686628.2874
     -1050.248        -818.375
  -2341207.882 9  -1303668.20146  22924134.799    22924135.6674   22924143.5454
     -1666.810       -1298.813
  -5353487.118 9  -4144594.97546  22331260.102    22331260.6834   22331268.8444
      3647.975        2842.578
 -20967103.411 9 -16308837.01248  19874745.954    19874746.6364   19874752.6954
      2472.750        1926.818
 -11420591.012 9  -8882198.76148  19468163.380    19468163.8444   19468169.7404
      -973.280        -758.400
 -15703765.225 9 -12216519.62047  20980970.504    20980971.8264   20980980.0904
      4203.925        3275.786
 97  5 12 18 23 59.9940000  0  7  4  2 26  5  9  7 24               -0.005816407
 -28826050.551 9 -22132627.10448  19335490.221    19335491.2954   19335497.8404
      2773.294        2161.008
  -2565048.094 9  -1989243.51247  20692645.702    20692646.1904   20692653.1264
     -1060.250        -826.169
  -2291159.030 9  -1264669.13046  22933658.775    22933659.6734   22933667.5004
     -1669.384       -1300.819
  -5462897.261 9  -4229849.55746  22310440.068    22310440.5494   22310448.6214
      3646.286        2841.262
 -21041009.176 9 -16366425.91648  19860682.167    19860682.8464   19860688.8784
      2454.708        1912.759
 -11391287.306 9  -8859364.72248  19473739.787    19473740.1774   19473746.0604
      -980.029        -763.659
 -15829743.463 9 -12314684.44047  20956997.741    20956998.9694   20957007.1604
      4194.936        3268.781
 97  5 12 18 24 29.9940000  0  7  4  2 26  5  9  7 24               -0.005832401
 -28908994.321 9 -22197258.59048  19319706.456    19319707.5924   19319714.1654
      2755.527        2147.164
  -2533108.562 9  -1964355.60247  20698723.396    20698724.1004   20698731.0934
     -1069.815        -833.622
  -2241060.304 9  -1225631.17246  22943192.084    22943193.1974   22943201.0794
     -1671.212       -1302.243
  -5572280.041 9  -4315082.81446  22289625.240    22289625.7354   22289633.8014
      3645.155        2840.381
 -21114396.905 9 -16423611.14848  19846716.858    19846717.6104   19846723.6174
      2436.974        1898.941
 -11361807.501 9  -8836393.46248  19479349.649    19479350.0204   19479355.9094
      -986.164        -768.439
 -15955487.219 9 -12412666.55747  20933069.867    20933070.6984   20933078.8674
      4187.079        3262.659
 97  5 12 18 24 59.9940000  0  7  4  2 26  5  9  7 24               -0.005848407
 -28991429.201 9 -22261493.54548  19304019.707    19304020.7684   19304027.3324
      2738.276        2133.722
  -2500911.871 9  -1939267.31547  20704850.267    20704850.9764   20704857.9664
     -1078.408        -840.318
  -2190941.831 9  -1186577.84646  22952729.417    22952730.4574   22952738.3414
     -1672.022       -1302.874
  -5681669.622 9  -4400321.39746  22268809.162    22268809.5974   22268817.5614
      3645.580        2840.712
 -21187284.863 9 -16480406.95548  19832846.786    19832847.4854   19832853.4914
      2420.341        1885.980
 -11332169.000 9  -8813298.54748  19484989.718    19484990.0784   19484995.9544
      -991.700        -772.753
 -16081030.747 9 -12510492.64847  20909179.788    20909180.5324   20909188.6644
      4180.185        3257.287
 97  5 12 18 25 29.9940000  0  7  4  2 26  5  9  7 24               -0.005864406
 -29073338.768 9 -22325319.15948  19288432.790    19288433.9134   19288440.4564
      2720.788        2120.095
  -2468447.356 9  -1913970.33247  20711028.161    20711028.7834   20711035.7854
     -1087.410        -847.332
  -2140775.268 9  -1147487.08346  22962275.845    22962276.8634   22962284.8044
     -1673.886       -1304.327
  -5791049.502 9  -4485552.39546  22247994.519    22247995.2094   22248003.1584
      3644.897        2840.179
 -21259662.801 9 -16536805.34948  19819073.730    19819074.4244   19819080.4354
      2403.366        1872.753
 -11302347.197 9  -8790060.79148  19490664.687    19490664.9974   19490670.8884
      -997.950        -777.623
 -16206337.821 9 -12608134.49547  20885334.259    20885335.3484   20885343.4954
      4171.940        3250.862
 97  5 12 18 25 59.9940000  0  7  4  2 26  5  9  7 24               -0.005880390
 -29154723.494 9 -22388735.81348  19272945.772    19272946.9144   19272953.4304
      2703.657        2106.746
  -2435712.309 9  -1888462.53647  20717257.507    20717258.0784   20717265.1004
     -1096.236        -854.210
  -2090564.046 9  -1108361.48846  22971831.054    22971831.8214   22971839.6404
     -1674.708       -1304.967
  -5900411.276 9  -4570769.28946  22227183.683    22227184.3254   22227192.3424
      3644.581        2839.933
 -21331537.347 9 -16592811.48548  19805396.437    19805397.1714   19805403.1534
      2387.070        1860.055
 -11272339.901 9  -8766678.50548  19496374.857    19496375.1914   19496381.0954
     -1003.740        -782.135
 -16331402.784 9 -12705587.68547  20861535.313    20861536.2824   20861544.4174
      4164.345        3244.944
 97  5 12 18 26 29.9940000  0  7  4  2 26  5  9  7 24               -0.005896374
 -29235611.549 9 -22451765.44648  19257553.177    19257554.4074   19257560.9314
      2687.695        2094.308
  -2402725.612 9  -1862758.66047  20723534.858    20723535.2824   20723542.2914
     -1103.812        -860.113
  -2040341.901 9  -1069227.39646  22981388.208    22981388.7684   22981396.5954
     -1674.495       -1304.801
  -6009789.996 9  -4655999.38546  22206369.524    22206370.0754   22206378.1174
      3646.284        2841.260
 -21402941.165 9 -16648450.81848  19791808.763    19791809.5114   19791815.4884
      2372.209        1848.475
 -11242184.718 9  -8743180.97948  19502113.274    19502113.5404   19502119.4424
     -1007.683        -785.207
 -16456253.802 9 -12802874.16047  20837776.919    20837777.8874   20837786.0274
      4157.765        3239.817
 97  5 12 18 26 59.9940000  0  7  4  2 26  5  9  7 24               -0.005912354
 -29315976.966 9 -22514387.83248  19242260.204    19242261.3714   19242267.8874
      2671.898        2081.998
  -2369476.452 9  -1836850.26547  20729861.930    20729862.4174   20729869.4274
     -1110.923        -865.654
  -1990082.077 9  -1030063.93446  22990952.347    22990952.8984   22990960.7314
     -1674.302       -1304.651
  -6119176.390 9  -4741235.45546  22185553.985    22185554.4704   22185562.5114
      3647.793        2842.436
 -21473863.291 9 -16703714.81248  19778312.827    19778313.4844   19778319.4414
      2357.793        1837.241
 -11211871.440 9  -8719560.26448  19507881.649    19507881.9634   19507887.8694
     -1011.341        -788.058
 -16580861.499 9 -12899971.03447  20814064.898    20814065.8354   20814073.9254
      4151.017        3234.559
 97  5 12 18 27 29.9940000  0  7  4  2 26  5  9  7 24               -0.005928314
 -29395830.343 9 -22576611.22248  19227064.496    19227065.7694   19227072.3144
      2651.330        2065.971
  -2335971.399 9  -1810742.46147  20736237.806    20736238.2554   20736245.2834
     -1123.131        -875.167
  -1939784.701 9   -990871.19746  23000523.417    23000524.2434   23000532.1444
     -1678.973       -1308.291
  -6228552.722 9  -4826463.73746  22164740.359    22164740.9234   22164748.7394
      3643.736        2839.275
 -21544305.015 9 -16758604.46248  19764908.047    19764908.8554   19764914.8224
      2337.958        1821.785
 -11181403.237 9  -8695818.82248  19513679.469    19513679.8754   19513685.7924
     -1020.261        -795.009
 -16705216.464 9 -12996870.96947  20790401.278    20790401.8234   20790409.9294
      4139.148        3225.310
 97  5 12 18 27 59.9940000  0  7  4  2 26  5  9  7 24               -0.005944229
 -29475112.358 9 -22638389.40048  19211977.612    19211978.9194   19211985.4634
      2634.100        2052.545
  -2302147.098 9  -1784385.90147  20742674.531    20742674.8244   20742681.8814
     -1131.762        -881.892
  -1889406.479 9   -951615.50346  23010110.310    23010110.8634   23010118.8384
     -1679.522       -1308.718
  -6337860.173 9  -4911638.29246  22143939.520    22143940.1934   22143948.1054
      3643.529        2839.113
 -21614192.966 9 -16813062.60848  19751608.792    19751609.5614   19751615.5624
      2321.172        1808.705
 -11150711.864 9  -8671903.48848  19519519.835    19519520.2654   19519526.2024
     -1025.934        -799.429
 -16829281.522 9 -13093545.00947  20766792.365    20766793.0424   20766801.1164
      4131.626        3219.449
